[[{"header":{"parameterUnit":"m.s-1","parameterCategory":1,"la1":30.6,"la2":28.766,"lo1":-90.7593,"lo2":-88.6598,"dy":0.0162,"dx":0.0183,"nx":116,"ny":114,"refTime":"2024-06-05T06:00:00:Z","depth":0,"parameterNumber":2,"parameterNumberName":"U-component_of_WINDS"},"data":[0.0,0.0,0.0,0.0,0.0,0.0,0.0,0.0,0.0,0.0,0.0,0.0,0.0,0.0,0.0,0.0,0.0,0.0,0.0,0.0,0.0,0.0,0.0,0.0,0.0,0.0,0.0,0.0,0.0,0.0,0.0,0.0,0.0,0.0,0.0,0.0,0.0,0.0,0.0,0.0,0.0,0.0,0.0,0.0,0.0,0.0,0.0,0.0,0.0,0.0,0.0,0.0,0.0,0.0,0.0,0.0,0.0,0.0,0.0,0.0,0.0,0.0,0.0,0.0,0.0,0.0,0.0,0.0,0.0,0.0,0.0,0.0,0.0,0.0,0.0,0.0,0.0,0.0,0.0,0.0,0.0,0.0,0.0,0.0,0.0,0.0,0.0,0.0,0.0,0.0,0.0,0.0,0.0,0.0,0.0,0.0,0.0,0.0,0.0,0.0,0.0,0.0,0.0,0.0,0.0,0.0,0.0,0.0,0.0,0.0,0.0,0.0,0.0,0.0,0.0,0.0,0.0,0.0,0.0,0.0,0.0,0.0,0.0,0.0,0.0,0.0,0.0,0.0,0.0,0.0,0.0,0.0,0.0,0.0,0.0,0.0,0.0,0.0,0.0,0.0,0.0,0.0,0.0,0.0,0.0,0.0,0.0,0.0,0.0,0.0,0.0,0.0,0.0,0.0,0.0,0.0,0.0,0.0,0.0,0.0,0.0,0.0,0.0,0.0,0.0,0.0,0.0,0.0,0.0,0.0,0.0,0.0,0.0,0.0,0.0,0.0,0.0,0.0,0.0,0.0,0.0,0.0,0.0,0.0,0.0,0.0,0.0,0.0,0.0,0.0,0.0,0.0,0.0,0.0,0.0,0.0,0.0,0.0,0.0,0.0,0.0,0.0,0.0,0.0,0.0,0.0,0.0,0.0,0.0,0.0,0.0,0.0,0.0,0.0,0.0,0.0,0.0,0.0,0.0,0.0,0.0,0.0,0.0,0.0,0.0,0.0,0.0,0.0,0.0,0.0,0.0,0.0,0.0,0.0,0.0,0.0,0.0,0.0,0.0,0.0,0.0,0.0,0.0,0.0,0.0,0.0,0.0,0.0,0.0,0.0,0.0,0.0,0.0,0.0,0.0,0.0,0.0,0.0,0.0,0.0,0.0,0.0,0.0,0.0,0.0,0.0,0.0,0.0,0.0,0.0,0.0,0.0,0.0,0.0,0.0,0.0,0.0,0.0,0.0,0.0,0.0,0.0,0.0,0.0,0.0,0.0,0.0,0.0,0.0,0.0,0.0,0.0,0.0,0.0,0.0,0.0,0.0,0.0,0.0,0.0,0.0,0.0,0.0,0.0,0.0,0.0,0.0,0.0,0.0,0.0,0.0,0.0,0.0,0.0,0.0,0.0,0.0,0.0,0.0,0.0,0.0,0.0,0.0,0.0,0.0,0.0,0.0,0.0,0.0,0.0,0.0,0.0,0.0,0.0,0.0,0.0,0.0,0.0,0.0,0.0,0.0,0.0,0.0,0.0,0.0,0.0,0.0,0.0,0.0,0.0,0.0,0.0,0.0,0.0,0.0,0.0,0.0,0.0,0.0,0.0,0.0,0.0,0.0,0.0,0.0,0.0,0.0,0.0,0.0,0.0,0.0,0.0,0.0,0.0,0.0,0.0,0.0,0.0,0.0,0.0,0.0,0.0,0.0,0.0,0.0,0.0,0.0,0.0,0.0,0.0,0.0,0.0,0.0,0.0,0.0,0.0,0.0,0.0,0.0,0.0,0.0,0.0,0.0,0.0,0.0,0.0,0.0,0.0,0.0,0.0,0.0,0.0,0.0,0.0,0.0,0.0,0.0,0.0,0.0,0.0,0.0,0.0,0.0,0.0,0.0,0.0,0.0,0.0,0.0,0.0,0.0,0.0,0.0,0.0,0.0,0.0,0.0,0.0,0.0,0.0,0.0,0.0,0.0,0.0,0.0,0.0,0.0,0.0,0.0,0.0,0.0,0.0,0.0,0.0,0.0,0.0,0.0,0.0,0.0,0.0,0.0,0.0,0.0,0.0,0.0,0.0,0.0,0.0,0.0,0.0,0.0,0.0,0.0,0.0,0.0,0.0,0.0,0.0,0.0,0.0,0.0,0.0,0.0,0.0,0.0,0.0,0.0,0.0,0.0,0.0,0.0,0.0,0.0,0.0,0.0,0.0,0.0,0.0,0.0,0.0,0.0,0.0,0.0,0.0,0.0,0.0,0.0,0.0,0.0,0.0,0.0,0.0,0.0,0.0,0.0,0.0,0.0,0.0,0.0,0.0,0.0,0.0,0.0,0.0,0.0,0.0,0.0,0.0,0.0,0.0,0.0,0.0,0.0,0.0,0.0,0.0,0.0,0.0,0.0,0.0,0.0,0.0,0.0,0.0,0.0,0.0,0.0,0.0,0.0,0.0,0.0,0.0,0.0,0.0,0.0,0.0,0.0,0.0,0.0,0.0,0.0,0.0,0.0,0.0,0.0,0.0,0.0,0.0,0.0,0.0,0.0,0.0,0.0,0.0,0.0,0.0,0.0,0.0,0.0,0.0,0.0,0.0,0.0,0.0,0.0,0.0,0.0,0.0,0.0,0.0,0.0,0.0,0.0,0.0,0.0,0.0,0.0,0.0,0.0,0.0,0.0,0.0,0.0,0.0,0.0,0.0,0.0,0.0,0.0,0.0,0.0,0.0,0.0,0.0,0.0,0.0,0.0,0.0,0.0,0.0,0.0,0.0,0.0,0.0,0.0,0.0,0.0,0.0,0.0,0.0,0.0,0.0,0.0,0.0,0.0,0.0,0.0,0.0,0.0,0.0,0.0,0.0,0.0,0.0,0.0,0.0,0.0,0.0,0.0,0.0,0.0,0.0,0.0,0.0,0.0,0.0,0.0,0.0,0.0,0.0,0.0,0.0,0.0,0.0,0.0,0.0,0.0,0.0,0.0,0.0,0.0,0.0,0.0,0.0,0.0,0.0,0.0,0.0,0.0,0.0,0.0,0.0,0.0,0.0,0.0,0.0,0.0,0.0,0.0,0.0,0.0,0.0,0.0,0.0,0.0,0.0,0.0,0.0,0.0,0.0,0.0,0.0,0.0,0.0,0.0,0.0,0.0,0.0,0.0,0.0,0.0,0.0,0.0,0.0,0.0,0.0,0.0,0.0,0.0,0.0,0.0,0.0,0.0,0.0,0.0,0.0,0.0,0.0,0.0,0.0,0.0,0.0,0.0,0.0,0.0,0.0,0.0,0.0,0.0,0.0,0.0,0.0,0.0,0.0,0.0,0.0,0.0,0.0,0.0,0.0,0.0,0.0,0.0,0.0,0.0,0.0,0.0,0.0,0.0,0.0,0.0,0.0,0.0,0.0,0.0,0.0,0.0,0.0,0.0,0.0,0.0,0.0,0.0,0.0,0.0,0.0,0.0,0.0,0.0,0.0,0.0,0.0,0.0,0.0,0.0,0.0,0.0,0.0,0.0,0.0,0.0,0.0,0.0,0.0,0.0,0.0,0.0,0.0,0.0,0.0,0.0,0.0,0.0,0.0,0.0,0.0,0.0,0.0,0.0,0.0,0.0,0.0,0.0,0.0,0.0,0.0,0.0,0.0,0.0,0.0,0.0,0.0,0.0,0.0,0.0,0.0,0.0,0.0,0.0,0.0,0.0,0.0,0.0,0.0,0.0,0.0,0.0,0.0,0.0,0.0,0.0,0.0,0.0,0.0,0.0,0.0,0.0,0.0,0.0,0.0,0.0,0.0,0.0,0.0,0.0,0.0,0.0,0.0,0.0,0.0,0.0,0.0,0.0,0.0,0.0,0.0,0.0,0.0,0.0,0.0,0.0,0.0,0.0,0.0,0.0,0.0,0.0,0.0,0.0,0.0,0.0,0.0,0.0,0.0,0.0,0.0,0.0,0.0,0.0,0.0,0.0,0.0,0.0,0.0,0.0,0.0,0.0,0.0,0.0,0.0,0.0,0.0,0.0,0.0,0.0,0.0,0.0,0.0,0.0,0.0,0.0,0.0,0.0,0.0,0.0,0.0,0.0,0.0,0.0,0.0,0.0,0.0,0.0,0.0,0.0,0.0,0.0,0.0,0.0,0.0,0.0,0.0,0.0,0.0,0.0,0.0,0.0,0.0,0.0,0.0,0.0,0.0,0.0,0.0,0.0,0.0,0.0,0.0,0.0,0.0,0.0,0.0,0.0,0.0,0.0,0.0,0.0,0.0,0.0,0.0,0.0,0.0,0.0,0.0,0.0,0.0,0.0,0.0,0.0,0.0,0.0,0.0,0.0,0.0,0.0,0.0,0.0,0.0,0.0,0.0,0.0,0.0,0.0,0.0,0.0,0.0,0.0,0.0,0.0,0.0,0.0,0.0,0.0,0.0,0.0,0.0,0.0,0.0,0.0,0.0,0.0,0.0,0.0,0.0,0.0,0.0,0.0,0.0,0.0,0.0,0.0,0.0,0.0,0.0,0.0,0.0,0.0,0.0,0.0,0.0,0.0,0.0,0.0,0.0,0.0,0.0,0.0,0.0,0.0,0.0,0.0,0.0,0.0,0.0,0.0,0.0,0.0,0.0,0.0,0.0,0.0,0.0,0.0,0.0,0.0,0.0,0.0,0.0,0.0,0.0,0.0,0.0,0.0,0.0,0.0,0.0,0.0,0.0,0.0,0.0,0.0,0.0,0.0,0.0,0.0,0.0,0.0,0.0,0.0,0.0,0.0,0.0,0.0,0.0,0.0,0.0,0.0,0.0,0.0,0.0,0.0,0.0,0.0,0.0,0.0,0.0,0.0,0.0,0.0,0.0,0.0,0.0,0.0,0.0,0.0,0.0,0.0,0.0,0.0,0.0,0.0,0.0,0.0,0.0,0.0,0.0,0.0,0.0,0.0,0.0,0.0,0.0,0.0,0.0,0.0,0.0,0.0,0.0,0.0,0.0,0.0,0.0,0.0,0.0,0.0,0.0,0.0,0.0,0.0,0.0,0.0,0.0,0.0,0.0,0.0,0.0,0.0,0.0,0.0,0.0,0.0,0.0,0.0,0.0,0.0,0.0,0.0,0.0,0.0,0.0,0.0,0.0,0.0,0.0,0.0,0.0,0.0,0.0,0.0,0.0,0.0,0.0,0.0,0.0,0.0,0.0,0.0,0.0,0.0,0.0,0.0,0.0,0.0,0.0,0.0,0.0,0.0,0.0,0.0,0.0,0.0,0.0,0.0,0.0,0.0,0.0,0.0,0.0,0.0,0.0,0.0,0.0,0.0,0.0,0.0,0.0,0.0,0.0,0.0,0.0,0.0,0.0,0.0,0.0,0.0,0.0,0.0,0.0,0.0,0.0,0.0,0.0,0.0,0.0,0.0,0.0,0.0,0.0,0.0,0.0,0.0,0.0,0.0,0.0,0.0,0.0,0.0,0.0,0.0,0.0,0.0,0.0,0.0,0.0,0.0,0.0,0.0,0.0,0.0,0.0,0.0,0.0,0.0,0.0,0.0,0.0,0.0,0.0,0.0,0.0,0.0,0.0,0.0,0.0,0.0,0.0,0.0,0.0,0.0,0.0,0.0,0.0,0.0,0.0,0.0,0.0,0.0,0.0,0.0,0.0,0.0,0.0,0.0,0.0,0.0,0.0,0.0,0.0,0.0,0.0,0.0,0.0,0.0,0.0,0.0,0.0,0.0,0.0,0.0,0.0,0.0,0.0,0.0,0.0,0.0,0.0,0.0,0.0,0.0,0.0,0.0,0.0,0.0,0.0,0.0,0.0,0.0,0.0,0.0,0.0,0.0,0.0,0.0,0.0,0.0,0.0,0.0,0.0,0.0,0.0,0.0,0.0,0.0,0.0,0.0,0.0,0.0,0.0,0.0,0.0,0.0,0.0,0.0,0.0,0.0,0.0,0.0,0.0,0.0,0.0,0.0,0.0,0.0,0.0,0.0,0.0,0.0,0.0,0.0,0.0,0.0,0.0,0.0,0.0,0.0,0.0,0.0,0.0,0.0,0.0,0.0,0.0,0.0,0.0,0.0,0.0,0.0,0.0,0.0,0.0,0.0,0.0,0.0,0.0,0.0,0.0,0.0,0.0,0.0,0.0,-4.6441,-4.4556,0.0,0.0,0.0,0.0,0.0,0.0,0.0,0.0,0.0,0.0,0.0,0.0,0.0,0.0,0.0,0.0,0.0,0.0,0.0,0.0,0.0,0.0,0.0,-2.7972,-2.8973,-3.0237,-3.1121,-3.1423,-3.1038,0.0,0.0,0.0,0.0,0.0,-2.9308,-2.9736,-3.0438,-3.1323,-3.2183,-3.3318,-3.457,-3.3672,-3.2578,-3.1328,0.0,0.0,0.0,0.0,0.0,0.0,0.0,0.0,0.0,0.0,0.0,0.0,0.0,0.0,0.0,0.0,0.0,0.0,0.0,0.0,0.0,0.0,0.0,0.0,0.0,0.0,0.0,0.0,0.0,0.0,0.0,0.0,0.0,0.0,0.0,0.0,0.0,0.0,0.0,0.0,0.0,0.0,0.0,0.0,0.0,0.0,0.0,0.0,0.0,0.0,0.0,0.0,0.0,0.0,0.0,0.0,0.0,0.0,0.0,0.0,0.0,0.0,0.0,0.0,0.0,0.0,0.0,0.0,0.0,0.0,-5.1048,-4.9086,0.0,0.0,0.0,0.0,0.0,0.0,0.0,0.0,0.0,0.0,0.0,0.0,0.0,0.0,0.0,0.0,0.0,0.0,0.0,0.0,0.0,-2.6192,-2.7934,-2.8857,-3.01,-3.2016,-3.2632,-3.2709,-3.2214,-3.19,0.0,0.0,0.0,-3.0792,-3.0908,-3.1932,-3.3273,-3.4922,-3.6406,-3.793,-3.9492,-3.9805,-3.8789,-3.6601,-3.4336,0.0,0.0,0.0,0.0,0.0,0.0,0.0,0.0,0.0,0.0,0.0,0.0,0.0,0.0,0.0,0.0,0.0,0.0,0.0,0.0,0.0,0.0,0.0,0.0,0.0,0.0,0.0,0.0,0.0,0.0,0.0,0.0,0.0,0.0,0.0,0.0,0.0,0.0,0.0,0.0,0.0,0.0,0.0,0.0,0.0,0.0,0.0,0.0,0.0,0.0,0.0,0.0,0.0,0.0,0.0,0.0,0.0,0.0,0.0,0.0,0.0,0.0,0.0,-5.8896,-5.9396,-6.0589,-5.9165,-5.9319,-6.0396,-5.6165,-5.4587,-5.4626,-5.0818,0.0,0.0,0.0,0.0,0.0,0.0,0.0,0.0,0.0,0.0,0.0,0.0,0.0,0.0,0.0,0.0,0.0,0.0,0.0,-2.7082,-2.8742,-2.9698,-3.1268,-3.381,-3.3461,-3.3345,-3.4013,-3.2614,0.0,0.0,-3.1661,-3.1746,-3.1848,-3.3472,-3.4843,-3.582,-3.9687,-4.207,-4.3047,-4.457,-4.5117,-4.457,-3.9844,-3.7695,-3.7383,0.0,0.0,0.0,0.0,0.0,0.0,0.0,0.0,0.0,0.0,0.0,0.0,0.0,0.0,0.0,0.0,0.0,0.0,0.0,0.0,0.0,0.0,0.0,0.0,0.0,0.0,0.0,0.0,0.0,0.0,0.0,0.0,0.0,0.0,0.0,0.0,0.0,0.0,0.0,0.0,0.0,-4.3169,-4.5791,0.0,0.0,0.0,0.0,0.0,0.0,0.0,0.0,0.0,0.0,0.0,0.0,0.0,-5.778,-5.8819,-6.1781,-6.3051,-6.2654,-6.4782,-6.5513,-6.5051,-6.482,-6.4859,-6.5013,-6.4359,0.0,-5.6522,-5.4472,0.0,0.0,0.0,0.0,0.0,0.0,0.0,0.0,0.0,0.0,0.0,0.0,0.0,0.0,0.0,0.0,0.0,0.0,0.0,0.0,0.0,-3.1468,-3.3631,-3.6319,-3.7055,-3.693,-3.592,-3.5146,-3.3877,-3.2005,-3.2428,-3.2739,-3.2807,-3.4999,-3.7773,-4.1055,-4.4883,-4.6992,-4.7383,-4.8594,-4.918,-4.9062,-4.6328,-4.3476,-4.0547,-3.7578,0.0,0.0,0.0,0.0,0.0,0.0,0.0,0.0,0.0,0.0,0.0,0.0,0.0,0.0,0.0,0.0,0.0,0.0,0.0,0.0,0.0,0.0,0.0,0.0,0.0,0.0,0.0,0.0,0.0,0.0,0.0,0.0,0.0,0.0,0.0,0.0,0.0,0.0,0.0,-4.2401,-4.6364,-4.7441,-4.7663,-4.7391,0.0,0.0,0.0,0.0,0.0,0.0,0.0,0.0,0.0,-6.0589,-6.1435,-6.2935,-6.5205,-6.6705,-6.7744,-6.8321,-6.9436,-7.0052,-7.0129,-6.9167,-6.8706,-6.8667,-6.7705,-6.5551,-6.2409,-5.8781,-5.5857,-5.3433,0.0,0.0,0.0,0.0,-5.0548,-5.0741,0.0,0.0,0.0,0.0,0.0,0.0,0.0,0.0,0.0,0.0,0.0,0.0,-3.1077,-3.3468,-3.6016,-3.8938,-4.0105,-4.0048,-3.8426,-3.752,-3.5834,-3.3134,-3.3412,-3.366,-3.3711,-3.7148,-4.125,-4.6016,-4.9023,-5.0625,-5.0859,-5.168,-5.207,-5.2031,-5.1445,-4.875,-4.4492,-4.1289,-3.8281,-3.543,0.0,0.0,0.0,0.0,0.0,0.0,0.0,0.0,0.0,0.0,0.0,0.0,0.0,0.0,0.0,0.0,0.0,0.0,0.0,0.0,0.0,0.0,0.0,0.0,0.0,0.0,0.0,0.0,0.0,0.0,0.0,0.0,0.0,0.0,0.0,0.0,0.0,-4.6136,-4.9163,-4.9394,-5.0548,-5.0587,0.0,0.0,0.0,0.0,0.0,0.0,-5.8792,-5.9973,-6.2281,-6.609,-6.6436,-6.7859,-7.0667,-7.0667,-7.1283,-7.2514,-7.2514,-7.286,-7.3476,-7.2168,-7.1437,-7.1168,-6.9898,-6.8744,-6.7398,-6.2743,-5.9819,-5.8088,-5.5742,-5.4703,-5.4626,-5.5472,-5.5357,-5.5164,0.0,0.0,0.0,0.0,0.0,0.0,0.0,0.0,0.0,0.0,0.0,-3.0055,-3.3615,-3.5545,-3.8008,-4.1499,-4.117,-4.1089,-4.1801,-3.8922,-3.6768,-3.5747,-3.4932,-3.4558,-3.4648,-4.0391,-4.5117,-4.8711,-5.0469,-5.1758,-5.2578,-5.3476,-5.3867,-5.3867,-5.3828,-5.2734,-5.0625,-4.5586,-4.2851,-4.1523,-3.6484,0.0,0.0,0.0,0.0,0.0,0.0,0.0,0.0,0.0,0.0,0.0,0.0,0.0,0.0,0.0,0.0,0.0,0.0,0.0,0.0,0.0,0.0,0.0,0.0,0.0,0.0,0.0,0.0,0.0,0.0,0.0,0.0,0.0,0.0,0.0,0.0,0.0,0.0,-5.2856,-5.5126,0.0,0.0,0.0,0.0,-5.6483,-5.8204,-6.0666,-6.4051,-6.5782,-6.7859,-7.0514,-7.1398,-7.2283,-7.3322,-7.3322,-7.336,-7.3437,-7.3437,-7.3476,-7.3514,-7.3399,-7.2937,-7.2129,-7.2052,-7.1091,-6.9283,-6.5782,-6.3358,-6.1678,-5.9896,-5.8704,-5.8127,-5.8934,-5.9204,-5.9204,0.0,0.0,0.0,0.0,0.0,-2.4331,-2.4331,-2.4583,-2.5128,-2.5994,-2.8771,-3.1796,-3.4731,-3.8,-4.0976,-4.3402,-4.3904,-4.3774,-4.2991,-4.0406,-3.8722,-3.8354,-3.7001,-3.7841,-4.125,-4.5078,-4.8164,-5.0508,-5.2773,-5.4062,-5.4375,-5.5273,-5.5664,-5.5664,-5.5078,-5.4492,-5.3633,-4.9609,-4.6094,-4.2969,-4.0078,-3.6641,0.0,0.0,0.0,0.0,0.0,0.0,0.0,0.0,0.0,0.0,0.0,0.0,0.0,0.0,0.0,0.0,0.0,0.0,0.0,0.0,0.0,0.0,0.0,0.0,0.0,0.0,0.0,0.0,0.0,0.0,0.0,0.0,0.0,0.0,0.0,0.0,0.0,-5.6395,-5.8742,0.0,-5.8242,-5.9358,-6.0627,-6.1781,-6.3974,-6.6244,-6.8513,-6.9744,-7.1283,-7.3283,-7.3668,-7.4245,-7.5091,-7.513,-7.513,-7.513,-7.513,-7.513,-7.5091,-7.4553,-7.4091,-7.3745,-7.2668,-7.186,-7.1129,-6.8821,-6.6551,-6.4436,-6.3243,-6.2281,-6.155,-6.1858,-6.1973,-6.1858,0.0,0.0,0.0,0.0,-2.419,-2.419,-2.419,-2.47,-2.5649,-2.7093,-3.0285,-3.3646,-3.6846,-4.02,-4.2949,-4.4713,-4.5464,-4.5405,-4.431,-4.2208,-4.0773,-4.0211,-3.9127,-4.0855,-4.5781,-4.8164,-5.0469,-5.2734,-5.4453,-5.5469,-5.5742,-5.6328,-5.6601,-5.6562,-5.6015,-5.5586,-5.5156,-5.2891,-4.9609,-4.5703,-4.3398,-4.0586,-3.7461,0.0,0.0,0.0,0.0,0.0,0.0,0.0,0.0,0.0,0.0,0.0,0.0,0.0,0.0,0.0,0.0,0.0,0.0,0.0,0.0,0.0,0.0,0.0,0.0,0.0,0.0,0.0,0.0,0.0,0.0,0.0,0.0,0.0,0.0,-5.4979,-5.8511,-5.9088,-6.1897,-6.3332,-6.2204,-6.3858,-6.5513,-6.6628,-6.8552,-7.0552,-7.2514,-7.3168,-7.4245,-7.5938,-7.5976,-7.613,-7.6438,-7.6438,-7.6284,-7.6015,-7.6015,-7.6015,-7.5976,-7.5399,-7.4976,-7.463,-7.3245,-7.2476,-7.2091,-7.0667,-6.8936,-6.7051,-6.5897,-6.5089,-6.4551,-6.4282,-6.4012,-6.3589,0.0,0.0,0.0,-2.419,-2.419,-2.419,-2.419,-2.5069,-2.6684,-2.9431,-3.2232,-3.5622,-4.0031,-4.2085,-4.3816,-4.5479,-4.5718,-4.5813,-4.59,-4.4275,-4.2685,-4.1289,-4.1367,-4.3398,-4.7617,-4.9414,-5.1953,-5.5312,-5.5312,-5.5781,-5.6601,-5.6601,-5.6601,-5.6601,-5.6601,-5.6133,-5.5351,-5.5312,-5.3398,-5.0078,-4.6601,-4.4609,-4.3281,0.0,0.0,0.0,0.0,0.0,0.0,0.0,0.0,0.0,0.0,0.0,0.0,0.0,0.0,0.0,0.0,0.0,0.0,0.0,0.0,0.0,0.0,0.0,0.0,0.0,0.0,0.0,0.0,0.0,0.0,0.0,0.0,0.0,-5.4633,-5.8333,-6.0935,-6.1012,-6.4705,-6.659,-6.4974,-6.709,-6.9244,-7.0898,-7.1822,-7.3399,-7.5899,-7.6053,-7.6823,-7.8438,-7.8477,-7.813,-7.7361,-7.7323,-7.6861,-7.6053,-7.6015,-7.6015,-7.6015,-7.6015,-7.5553,-7.4707,-7.386,-7.3014,-7.2168,-7.1283,-7.0437,-6.9552,-6.7821,-6.7128,-6.7013,-6.6205,-6.5359,-6.4359,0.0,0.0,-2.419,-2.419,-2.419,-2.419,-2.419,-2.5032,-2.6627,-2.9185,-3.3124,-3.688,-3.9879,-4.3029,-4.5094,-4.5556,-4.5757,-4.5836,-4.5711,-4.3147,-4.1761,-4.1981,-4.5077,-4.7891,-5.0312,-5.207,-5.3711,-5.5312,-5.5937,-5.6367,-5.6601,-5.6601,-5.6601,-5.6601,-5.6601,-5.6484,-5.6211,-5.5586,-5.4765,-5.3633,-5.0781,-4.7617,-4.4453,0.0,0.0,0.0,0.0,0.0,0.0,0.0,0.0,0.0,0.0,0.0,0.0,0.0,0.0,0.0,0.0,0.0,0.0,0.0,0.0,0.0,0.0,0.0,0.0,0.0,0.0,0.0,0.0,0.0,0.0,0.0,-5.3699,-5.7255,-5.8042,-6.1278,-6.4243,-6.609,-6.8398,-6.9937,-7.009,-7.1321,-7.2552,-7.3591,-7.4476,-7.5553,-7.6861,-7.7476,-7.8015,-7.8477,-7.8477,-7.84,-7.8169,-7.7592,-7.7169,-7.6938,-7.6284,-7.6015,-7.6015,-7.6015,-7.5861,-7.5553,-7.413,-7.336,-7.3053,-7.1514,-7.0783,-7.0398,-6.8706,-6.7667,-6.7013,-6.6205,-6.5359,-6.4436,0.0,-2.419,-2.419,-2.419,-2.419,-2.419,-2.419,-2.5329,-2.7233,-3.0058,-3.4101,-3.7823,-4.0806,-4.3704,-4.5285,-4.5086,-4.5508,-4.546,-4.4662,-4.337,-4.3333,-4.4894,-4.7848,-5.0391,-5.2422,-5.3828,-5.4961,-5.5859,-5.6367,-5.6797,-5.7148,-5.7148,-5.7344,-5.7656,-5.7305,-5.7148,-5.7109,-5.6211,-5.5625,-5.5156,-5.3633,-5.1094,-4.8008,-4.6055,-4.4414,-4.293,-4.1328,-3.9961,-3.8867,-3.8516,0.0,0.0,0.0,0.0,0.0,0.0,0.0,0.0,0.0,0.0,0.0,0.0,0.0,0.0,0.0,0.0,0.0,0.0,0.0,0.0,0.0,0.0,0.0,0.0,-5.7381,-6.0965,-6.2459,-6.4397,-6.659,-6.9129,-7.0629,-7.1937,-7.3129,-7.3707,-7.4361,-7.5168,-7.6053,-7.6899,-7.7746,-7.8592,-7.9208,-7.9592,-7.9592,-7.94,-7.9054,-7.8592,-7.7977,-7.7284,-7.6784,-7.6361,-7.6015,-7.6015,-7.6015,-7.5899,-7.4245,-7.3514,-7.336,-7.1629,-7.0898,-7.0783,0.0,0.0,0.0,0.0,-6.559,-6.5013,0.0,-2.419,-2.419,-2.419,-2.419,-2.419,-2.419,-2.5727,-2.8043,-3.1289,-3.4776,-3.8325,-4.1881,-4.384,-4.4727,-4.4338,-4.5034,-4.4924,-4.3623,-4.465,-4.6364,-4.8757,-4.9996,-5.1719,-5.4101,-5.5,-5.5859,-5.6758,-5.6758,-5.7187,-5.8047,-5.8047,-5.8476,-5.918,-5.8398,-5.8008,-5.7851,-5.707,-5.625,-5.543,-5.5351,-5.4219,-5.2226,-4.918,-4.7891,-4.7422,-4.5117,-4.332,-4.1953,-4.1055,0.0,0.0,0.0,0.0,0.0,0.0,0.0,0.0,0.0,0.0,0.0,0.0,0.0,0.0,0.0,0.0,0.0,0.0,0.0,0.0,0.0,0.0,0.0,0.0,-6.0894,-6.4436,-6.6898,-6.7321,-6.8282,-7.0744,-7.1822,-7.2976,-7.4553,-7.4784,-7.5207,-7.6092,-7.6938,-7.7784,-7.8592,-7.9477,0.0,0.0,0.0,-8.0746,-7.9939,-7.9862,-7.9015,-7.7438,-7.7323,-7.6823,-7.6015,-7.6015,-7.6005,-7.5918,-7.4336,-7.3605,-7.3416,-7.172,-7.1002,-7.0837,-6.9913,-6.9066,-6.8103,-6.6499,-6.5897,-6.5782,0.0,-2.419,-2.419,-2.419,-2.419,-2.419,-2.419,-2.5598,-2.758,-3.018,-3.3864,-3.7244,-3.9954,-4.2192,-4.3726,-4.4239,-4.4553,-4.4932,-4.5498,-4.6959,-4.8443,-4.9841,-5.207,-5.3828,-5.5039,-5.5898,-5.6797,-5.7656,-5.7656,-5.8086,-5.8945,-5.8945,-5.9023,-5.918,-5.9023,-5.8555,-5.789,-5.7734,-5.7148,-5.6289,-5.5586,-5.3828,-5.1562,-5.0937,-4.9844,-4.8594,-4.8086,-4.7695,-4.7266,-4.6406,-4.4961,-4.3242,-4.1641,-4.0,0.0,0.0,0.0,0.0,0.0,0.0,0.0,0.0,0.0,0.0,0.0,0.0,0.0,0.0,0.0,0.0,0.0,0.0,0.0,-5.8704,-6.2613,-6.6051,-6.7898,-6.8744,-6.9898,-7.1706,-7.2706,-7.363,-7.463,-7.5361,-7.6092,-7.6976,-7.7823,-7.8631,-7.9515,-8.04,-8.0939,-8.1093,-8.1093,-8.1016,-8.0862,-8.0169,-7.9285,-7.8246,-7.7592,0.0,-7.6015,-7.6015,-7.6106,-7.6192,-7.4987,-7.4179,-7.3651,-7.2456,-7.1647,-7.0982,-6.9424,-6.8313,-6.7482,-6.6428,-6.6008,-6.5782,-2.4497,-2.4428,-2.4348,-2.4348,-2.4348,-2.4303,-2.4209,-2.5217,-2.6869,-2.928,-3.2324,-3.5322,-3.7948,-3.9726,-4.0759,-4.0935,-4.1524,-4.2869,-4.5254,-4.7334,-4.9376,-5.1367,-5.3516,-5.5078,-5.5937,-5.6797,-5.7461,-5.789,-5.8359,-5.8984,-5.9805,-5.9805,-6.0039,-6.043,-6.0,-5.9336,-5.8515,-5.8086,-5.7383,-5.6562,-5.6133,-5.4922,-5.3242,-5.2383,-5.1523,-5.0703,-4.9844,-4.9531,-4.9414,-4.8555,-4.7656,-4.6641,-4.4883,-4.3476,-4.1875,0.0,0.0,0.0,0.0,0.0,0.0,0.0,0.0,0.0,0.0,0.0,0.0,0.0,0.0,-5.2324,-5.3838,0.0,-5.9882,-6.2329,-6.482,-6.709,-6.8821,-6.9783,-7.0937,-7.2668,-7.3245,-7.4014,-7.5245,-7.5745,-7.6361,-7.7207,-7.8054,-7.8861,-7.9746,-8.0631,-8.1093,-8.1093,-8.1093,-8.1093,-8.1093,-8.0669,-7.9785,-7.8477,-7.8092,-7.7207,-7.5976,-7.6095,-7.6183,-7.6256,-7.5365,-7.4596,-7.3769,-7.2434,-7.1676,-7.1329,-7.0038,-6.8956,-6.7871,-6.6583,-6.6014,-6.582,-2.476,-2.47,-2.4583,-2.4501,-2.4485,-2.4462,-2.4294,-2.489,-2.624,-2.8504,-3.0808,-3.3216,-3.58,-3.6983,-3.7623,-3.7612,-3.8944,-4.1242,-4.4724,-4.7509,-5.0202,-5.2851,-5.4609,-5.5898,-5.6562,-5.7461,-5.7969,-5.8164,-5.9023,-5.9844,-6.0664,-6.0664,-6.1015,-6.168,-6.0976,-6.0117,-5.914,-5.8437,-5.7539,-5.6601,-5.6601,-5.6172,-5.5351,-5.3633,-5.2851,-5.2461,-5.0781,-5.0195,-5.0039,-4.8984,-4.875,-4.8633,-4.7031,-4.6055,-4.4883,-4.1797,-4.0781,0.0,0.0,0.0,0.0,0.0,0.0,0.0,0.0,-4.788,-4.9647,-5.1621,-5.434,-5.6943,-5.8979,-6.084,-6.2926,-6.5543,-6.6871,-6.809,-6.9513,-7.0398,-7.1475,-7.3053,-7.3399,-7.4168,-7.5822,-7.6015,-7.6438,-7.7438,-7.813,-7.8938,-8.0015,-8.0708,-8.1093,-8.1093,-8.1093,-8.1093,-8.1093,-8.1093,-8.0323,-7.8746,-7.8592,-7.7713,-7.6321,-7.6297,-7.632,-7.6351,-7.5485,-7.4671,-7.3858,-7.2218,-7.1604,-7.1615,-7.085,-6.9845,-6.8627,-6.7027,-6.6224,-6.5923,0.0,-2.4877,-2.4833,-2.4551,-2.4485,-2.4476,-2.4488,-2.5004,-2.608,-2.7944,-2.9793,-3.1571,-3.3321,-3.4528,-3.5856,-3.7457,-3.9989,-4.2742,-4.5667,-4.895,-5.1723,-5.3789,-5.5508,-5.6484,-5.6601,-5.7461,-5.8281,-5.9062,-5.9883,-6.0703,-6.1562,-6.1562,-6.1601,-6.1719,-6.1601,-6.0664,-5.918,-5.9101,-5.8086,-5.6601,-5.6601,-5.6523,-5.625,-5.4531,-5.3359,-5.2461,-5.0781,-5.0195,-4.9961,-4.8281,-4.8242,-4.8711,-4.7773,-4.7383,-4.6914,-4.5,-4.3867,-4.3047,-4.2109,-4.2617,-4.4334,-4.812,-4.8188,-4.9021,0.0,-5.5769,-5.5351,-5.8554,-6.0059,-6.1108,-6.2145,-6.4078,-6.5674,-6.6032,-6.7969,-6.9475,-6.9667,-7.0398,-7.1245,-7.2206,-7.3014,-7.4168,-7.5822,-7.6015,-7.6669,-7.8246,-7.8438,-7.9208,-8.0862,-8.1054,-8.1093,-8.1093,-8.1093,-8.1093,-8.1093,-8.1093,-8.0592,-7.9669,-7.8861,-7.8111,-7.74,-7.6632,-7.6471,-7.6726,-7.5105,-7.427,-7.3865,-7.2335,-7.1682,-7.1621,-7.0968,-7.0058,-6.905,-6.807,-6.6943,-6.5946,0.0,-2.4897,-2.483,-2.47,-2.467,-2.4631,-2.4501,-2.4617,-2.5157,-2.6361,-2.7964,-2.9465,-3.0602,-3.1791,-3.3117,-3.4577,-3.7678,-4.1016,-4.4316,-4.8175,-5.1447,-5.3906,-5.5195,-5.6094,-5.6601,-5.7461,-5.832,-5.9219,-6.0,-6.0859,-6.1719,-6.1719,-6.1719,-6.1719,-6.1719,-6.0781,-5.9219,-5.9219,-5.8203,-5.6601,-5.6601,-5.6289,-5.5703,-5.4453,-5.3125,-5.1797,-5.0625,-4.9883,0.0,-4.8594,-4.8594,-4.875,-4.7851,-4.7266,-4.6601,-4.5351,-4.5469,-4.6211,-4.7344,-4.8236,-4.9269,-5.1011,-5.2466,-5.4115,-5.6836,-5.7881,-5.8828,-6.0742,-6.2614,-6.3967,-6.4205,-6.5734,-6.7113,-6.7474,-6.8764,-6.986,-7.0321,-7.0706,-7.1052,-7.1398,-7.2302,-7.3536,-7.5106,-7.5245,-7.6169,-7.8323,-7.8477,-7.9246,-8.1016,-8.1093,-8.1093,-8.1093,-8.1093,-8.1093,-8.1093,-8.1093,-8.0669,-7.9785,-7.904,-7.8283,-7.7573,-7.6949,-7.679,-7.6979,-7.5223,-7.443,-7.421,-7.2559,-7.1862,-7.1865,-7.1562,-7.0537,-6.9081,-6.8219,-6.7186,-6.62,0.0,-2.4823,-2.4804,-2.4804,-2.4753,-2.467,-2.451,-2.4321,-2.4586,-2.5648,-2.6775,-2.786,-2.8877,-2.9878,-3.1015,-3.2382,-3.5614,-3.9142,-4.284,-4.7068,-5.0579,-5.3121,-5.457,-5.5586,-5.6211,-5.7344,-5.8203,-5.8828,-5.9687,-6.0508,-6.1328,-6.1287,-6.1443,-6.168,-6.1404,-6.0506,-5.918,-5.8945,-5.7969,-5.6601,-5.6601,-5.6094,-5.5195,-5.4062,-5.2382,-5.0544,-4.9724,-4.8905,-4.8086,-4.7342,-4.7577,-4.8047,-4.7148,-4.6797,-4.6641,-4.6484,-4.7344,-4.8711,-5.0504,-5.174,-5.2774,-5.3745,-5.6016,-5.8057,-5.8183,-5.9722,-6.1367,-6.2226,-6.3906,-6.5272,-6.5364,-6.6455,-6.7632,-6.8515,-6.9303,-7.0003,-7.0796,-7.0706,-7.0579,-7.0632,-7.1081,-7.2015,-7.3587,-7.4383,-7.573,-7.7992,-7.8361,-7.9169,-8.0669,-8.0977,-8.1093,-8.1093,-8.1093,-8.1093,-8.1093,-8.1093,-8.0785,-8.0131,-7.9224,-7.8524,-7.801,-7.7287,-7.7048,-7.7026,-7.5312,-7.4609,-7.4453,-7.2734,-7.1992,-7.1992,-7.1992,-7.0893,-6.9186,-6.8562,-6.7516,-6.6399,0.0,0.0,-2.4804,-2.4804,-2.4639,-2.4493,-2.4485,-2.4321,-2.4827,-2.66,-2.672,-2.7226,-2.884,-2.9265,-3.0206,-3.2043,-3.4797,-3.8032,-4.179,-4.6129,-4.9386,-5.1288,-5.3902,-5.5312,-5.5351,-5.7031,-5.789,-5.793,-5.8828,-5.9648,-6.043,-6.0325,-6.0759,-6.164,-6.0675,-5.986,-5.914,-5.8281,-5.7422,-5.6601,-5.6601,-5.6094,-5.5117,-5.3398,-5.1088,-4.8679,-4.7781,0.0,-4.5976,-4.3377,-4.4247,-4.6211,-4.5351,-4.6211,-4.7891,-4.9531,-5.0078,-5.0116,-4.9994,-5.127,-5.3474,-5.6636,-5.8303,-5.9805,-6.2226,-6.2851,-6.3164,-6.4023,-6.4297,-6.4609,-6.5429,-6.6147,-6.7114,-6.8644,-6.9446,-7.0126,-7.0823,-7.0244,-6.9785,-6.991,-6.9216,-6.9409,-7.1141,-7.3541,-7.563,-7.7237,-7.8054,-7.89,-7.9785,-8.0631,-8.1093,-8.1093,-8.1093,-8.1093,-8.1093,-8.1093,-8.1093,-8.1016,-7.9533,-7.8902,-7.9026,-7.7779,-7.7099,-7.6809,-7.5267,-7.4609,-7.4453,-7.2734,-7.1992,-7.1992,-7.1992,-7.0976,-6.9492,-6.9375,-6.8117,-6.6435,0.0,0.0,0.0,-2.4567,-2.4445,-2.4284,-2.4284,-2.4698,-2.5221,-2.5815,-2.6786,0.0,0.0,0.0,0.0,0.0,-3.4149,-3.7049,-4.0649,-4.3972,-4.6936,-4.9347,-5.1401,-5.3049,-5.4138,-5.5394,-5.6619,-5.7789,-5.8161,-5.8708,-5.939,-5.9371,-5.9466,-5.9716,-5.9466,-5.8902,-5.8181,-5.8006,-5.7734,-5.7344,-5.6211,-5.5153,-5.4163,-5.3027,-4.9838,-4.5988,0.0,-4.4635,-4.3383,-4.2579,-4.2907,-4.37,-4.4023,-4.4531,-4.5586,-4.8476,-4.9766,-5.0664,-5.2885,-5.5101,-5.7242,-5.9014,-6.0962,-6.2716,-6.3632,-6.3867,-6.3945,-6.4258,-6.4297,-6.4375,-6.4687,-6.529,-6.6256,-6.7788,-6.8592,-6.9458,-7.0708,-7.1168,-7.0746,-6.9077,-7.0331,-7.1018,-7.0295,-7.1688,-7.3713,-7.6251,-7.7304,-7.8411,-7.9723,-8.0631,-8.1093,-8.1093,-8.1093,-8.1093,-8.1093,-8.1093,-8.1093,-8.1093,-7.9533,-7.8378,-7.7643,-7.7209,-7.6948,-7.6805,-7.5267,-7.4609,-7.4453,-7.2734,-7.1992,-7.1992,-7.1992,-7.1289,-7.0234,-6.9687,-6.8667,-6.7516,0.0,0.0,0.0,0.0,0.0,0.0,0.0,0.0,0.0,0.0,0.0,0.0,0.0,0.0,0.0,0.0,0.0,-3.5775,-3.9123,-4.1935,-4.4542,-4.6975,-4.8807,-5.0382,-5.174,-5.2441,-5.3637,-5.5347,-5.5435,-5.6174,-5.7489,-5.7412,-5.7532,-5.7775,-5.7532,-5.7139,-5.667,-5.6445,-5.6188,-5.5838,-5.4706,-5.3323,-5.1807,-5.0943,-4.7965,0.0,0.0,-4.18,-4.0641,-4.0463,-4.1255,-4.2373,-4.2695,-4.4297,-4.6445,-4.8711,-5.0391,-5.2304,-5.5658,-5.7758,-5.9431,-6.128,-6.2954,-6.4203,-6.4296,-6.4297,-6.4101,-6.3515,-6.3125,-6.289,-6.289,-6.3037,-6.3995,-6.6698,-6.7487,-6.8519,-7.0606,-7.1129,-7.0761,-6.9204,-7.0663,-7.142,-7.043,-7.1389,-7.3005,-7.5341,-7.6995,-7.8282,-7.93,-8.0477,-8.1093,-8.1093,-8.1093,-8.1093,-8.1093,-8.1093,-8.0823,-8.026,-7.9274,-7.8059,-7.6702,-7.6847,-7.686,-7.6707,-7.5223,-7.4609,-7.4453,-7.2734,-7.1992,-7.1992,-7.1992,-7.1484,-7.0586,-6.9805,-6.8945,-6.8086,0.0,0.0,0.0,0.0,0.0,0.0,0.0,0.0,0.0,0.0,0.0,0.0,0.0,0.0,0.0,0.0,0.0,0.0,-3.7317,-3.9961,0.0,-4.4201,-4.6071,-4.7497,-4.8349,-4.8483,-4.9383,-5.1005,-5.1053,-5.2329,-5.4684,-5.4562,-5.5002,-5.5891,-5.4943,-5.4575,-5.465,-5.3833,-5.3025,-5.2334,-5.2256,-5.0698,-4.8358,-4.7536,0.0,0.0,0.0,-3.8855,-3.8003,-3.7358,-3.9568,-4.25,-4.1875,-4.5625,-5.0273,-5.043,-5.2266,-5.496,-5.8126,-5.9244,-6.0272,-6.3401,-6.4284,-6.4375,-6.4375,-6.4258,-6.3672,-6.1914,-6.0859,-6.0195,-6.0078,-5.957,-6.0649,-6.5316,-6.6192,-6.7368,-7.0465,-7.0335,-6.9984,-7.0285,-7.0388,-7.0745,-7.151,-7.2511,-7.3574,-7.469,-7.7044,-7.8468,-7.8507,-8.0146,-8.1093,-8.1093,-8.1093,-8.1093,-8.1093,-8.1054,-8.0285,-7.8801,-7.8739,-7.786,-7.6306,-7.6715,-7.6775,-7.6526,-7.5247,-7.4648,-7.4453,-7.2773,-7.2031,-7.1992,-7.1992,-7.1484,-7.0664,-6.9805,-6.8984,-6.8125,0.0,0.0,0.0,0.0,0.0,0.0,0.0,0.0,0.0,0.0,0.0,0.0,0.0,0.0,0.0,0.0,0.0,0.0,-3.6185,0.0,0.0,0.0,-4.3202,-4.4853,-4.6321,-4.7682,-4.8908,-4.9989,-5.0734,-5.139,-5.1923,-5.1869,-5.1943,-5.2086,-5.1951,-5.1869,-5.1891,-5.1784,-5.1637,-5.1334,0.0,-4.8667,-4.7379,0.0,0.0,0.0,0.0,-3.9322,-3.8202,-3.8739,-4.1761,-4.5625,-4.7344,-4.9375,-5.1484,-5.3437,-5.5859,-5.8203,-5.9645,-6.1952,-6.4179,-6.4997,-6.5233,-6.5273,-6.5273,-6.375,-6.1875,-6.0195,-5.8633,-5.7187,-5.5859,-5.707,-5.9213,-6.2247,-6.4749,-6.7425,-7.0672,-7.193,-7.2367,-7.195,-7.3146,-7.3586,-7.2549,-7.3968,-7.5195,-7.5852,-7.7046,-7.8051,-7.8682,-8.0242,-8.1093,-8.1093,-8.1093,-8.1093,-8.1093,-8.0477,-7.9668,-7.8789,-7.8052,-7.7216,-7.6306,-7.6545,-7.667,-7.6565,-7.5872,-7.5195,-7.4531,-7.3437,-7.2578,-7.1992,-7.1992,-7.1875,-7.1484,-7.0039,-6.9375,-6.8945,0.0,0.0,0.0,0.0,0.0,0.0,0.0,0.0,0.0,0.0,0.0,0.0,0.0,0.0,0.0,0.0,0.0,0.0,0.0,0.0,0.0,-3.915,-4.0276,-4.147,-4.2824,-4.416,-4.5307,-4.6182,0.0,0.0,-4.8578,-4.8578,-4.8544,-4.848,-4.8552,-4.8578,-4.8586,-4.8638,0.0,0.0,0.0,0.0,0.0,0.0,0.0,0.0,0.0,0.0,0.0,0.0,-4.5054,-4.7383,-5.0351,-5.2148,-5.3633,-5.625,-5.8281,-6.0156,-6.2148,-6.4101,-6.5586,-6.5586,-6.5586,-6.5117,-6.3203,-6.164,-5.9805,-5.6953,-5.5273,-5.4023,-5.3047,-5.4687,-5.7222,-6.0405,-6.3642,-6.7014,-7.0679,-7.2212,-7.2971,-7.3141,-7.4413,-7.5099,-7.4644,-7.5916,-7.6985,-7.7626,-7.7932,-7.8421,-7.9211,-8.0444,-8.1093,-8.1093,-8.1093,-8.1093,-8.1093,-8.0246,-7.9427,-7.867,-7.7733,-7.6899,-7.6172,-7.6475,-7.6582,-7.6565,-7.6109,-7.539,-7.4531,-7.3672,-7.2773,-7.1992,-7.1992,-7.1992,-7.1797,-7.0078,-6.9453,-6.9258,0.0,0.0,0.0,0.0,0.0,0.0,0.0,0.0,0.0,0.0,0.0,0.0,0.0,0.0,0.0,0.0,0.0,0.0,0.0,0.0,0.0,-3.7544,-3.787,-3.8469,-3.9438,-4.0246,-4.1046,-4.1808,0.0,0.0,0.0,0.0,0.0,0.0,0.0,0.0,0.0,0.0,0.0,0.0,0.0,0.0,0.0,0.0,0.0,0.0,0.0,0.0,0.0,0.0,-4.8774,-4.9062,-5.2461,-5.4687,-5.6484,-5.8984,-6.0273,-6.1601,-6.4765,-6.5664,-6.5742,-6.5625,-6.543,-6.418,-6.0117,-5.8828,-5.7305,-5.3086,-5.1484,-5.082,-5.0586,-5.2266,-5.4997,-5.9053,-6.2533,-6.6227,-7.0612,-7.1819,-7.2793,-7.4164,-7.5132,-7.607,-7.7007,-7.7876,-7.8731,-7.9502,-7.9244,-7.9292,-7.9846,-8.0699,-8.1116,-8.1093,-8.1093,-8.1093,-8.1093,-8.0131,-7.9246,-7.8477,-7.7553,-7.6746,-7.6005,-7.6419,-7.6582,-7.6565,-7.6109,-7.539,-7.4531,-7.3672,-7.2773,-7.1992,-7.1992,-7.1992,-7.1797,-7.0039,-6.9453,-6.9258,0.0,0.0,0.0,0.0,0.0,0.0,0.0,0.0,0.0,0.0,-3.3004,-3.2107,0.0,0.0,0.0,0.0,0.0,0.0,0.0,0.0,0.0,0.0,-3.787,-3.87,-4.0246,-4.1123,-4.1662,-4.1808,-4.2816,0.0,0.0,0.0,0.0,0.0,0.0,0.0,0.0,0.0,0.0,0.0,0.0,0.0,0.0,0.0,0.0,0.0,0.0,0.0,0.0,0.0,-5.1683,-5.3516,-5.6992,-5.875,-5.9883,-6.1797,-6.2969,-6.3906,-6.5234,-6.6133,-6.6484,-6.5781,-6.4531,-6.2695,-5.9844,-5.6953,-5.3906,-5.0312,-4.8867,-4.7812,-4.6367,-4.9258,-5.3047,-5.6638,-6.0542,-6.5041,-7.0603,-7.208,-7.3503,-7.5875,-7.7067,-7.7834,-7.8199,-7.8943,-7.9714,-8.0435,-8.0393,-8.0338,-8.0288,-8.096,-8.1271,-8.1108,-8.1093,-8.1093,-8.1093,-7.9515,-7.8631,-7.8477,-7.6938,-7.613,-7.6005,-7.6419,-7.6582,-7.6565,-7.6109,-7.539,-7.4531,-7.3672,-7.2773,-7.1992,-7.1992,-7.1992,-7.1797,-7.0039,-6.9414,-6.918,0.0,0.0,0.0,0.0,0.0,0.0,0.0,-3.3463,-3.5045,-3.7199,-3.691,-3.6015,-3.4663,-3.3968,-3.366,0.0,0.0,0.0,0.0,0.0,0.0,0.0,0.0,-3.8199,-3.9161,-4.0469,-4.0931,-4.0508,0.0,-4.22,-4.1739,-4.1739,-4.1739,-4.1739,-4.1739,0.0,0.0,0.0,0.0,-4.1329,-4.1833,-4.174,0.0,0.0,0.0,0.0,0.0,0.0,0.0,0.0,-5.1197,-5.4602,-5.8554,-6.039,-6.1406,-6.3164,-6.3984,-6.4609,-6.5937,-6.6562,-6.6562,-6.5234,-6.3945,-6.1875,-5.75,-5.4492,-5.1562,-4.7656,-4.6172,-4.5469,-4.5078,-4.7773,-5.1094,-5.4062,-5.7668,-6.2126,-6.8076,-6.9954,-7.2043,-7.5647,-7.7316,-7.8437,-7.9062,-7.9883,-8.0702,-8.1468,-8.1545,-8.1356,-8.0941,-8.1141,-8.121,-8.1093,-8.1093,-8.09,-8.0439,-7.9131,-7.8299,-7.7861,-7.6592,-7.6015,-7.6005,-7.6419,-7.6582,-7.6565,-7.6109,-7.539,-7.4531,-7.3672,-7.2773,-7.1992,-7.1992,-7.1992,-7.1797,-7.0078,-6.9414,-6.914,0.0,0.0,0.0,0.0,0.0,0.0,0.0,-3.5032,-3.6808,-3.9738,-4.043,-3.9724,-3.7224,-3.5859,-3.4896,0.0,0.0,0.0,0.0,0.0,0.0,0.0,0.0,-3.8006,-3.8507,0.0,0.0,-3.9854,-4.1354,0.0,0.0,0.0,0.0,0.0,-4.0593,-4.0581,-4.0697,-4.0697,0.0,0.0,0.0,-4.2096,0.0,0.0,0.0,0.0,0.0,0.0,0.0,0.0,-4.9883,-5.3376,-5.7642,-6.0115,-6.168,-6.3047,-6.3867,-6.4648,-6.6211,-6.6758,-6.6484,-6.4726,-6.3359,-6.0976,-5.5273,-5.2226,-4.9453,-4.5547,-4.4023,-4.3672,-4.457,-4.6719,-4.9297,-5.2226,-5.5334,-5.955,-6.5741,-6.8144,-7.0863,-7.5112,-7.7326,-7.8842,-7.9609,-8.0664,-8.1562,-8.2265,-8.222,-8.1971,-8.1501,-8.1271,-8.1146,-8.1093,-8.0939,-8.0477,-7.9823,-7.8746,-7.7938,-7.7284,-7.6399,-7.6015,-7.6005,-7.6419,-7.6582,-7.6565,-7.5911,-7.5234,-7.4531,-7.3476,-7.2617,-7.1992,-7.1992,-7.1992,-7.1797,-7.0117,-6.9453,-6.914,0.0,0.0,0.0,0.0,0.0,0.0,0.0,-3.5796,-3.8077,-4.22,-4.1847,-4.103,-4.0488,-3.8999,-3.7478,0.0,0.0,0.0,0.0,0.0,0.0,0.0,0.0,0.0,0.0,0.0,0.0,-4.1577,-4.2508,0.0,0.0,0.0,0.0,0.0,0.0,-4.0581,-4.0697,-4.0697,0.0,0.0,0.0,0.0,0.0,0.0,0.0,0.0,0.0,0.0,0.0,0.0,0.0,-4.9526,-5.3169,-5.7155,-6.0547,-6.0703,-6.2422,-6.4492,-6.5469,-6.6289,-6.6484,-6.4726,-6.2461,-5.9453,-5.5,-5.0859,-4.7148,-4.4375,-4.3125,-4.2773,-4.3672,-4.5312,-4.7891,-5.2031,-5.4961,-5.9015,-6.5673,-6.8884,-7.1784,-7.5205,-7.7954,-7.9609,-7.9687,-8.1211,-8.2226,-8.2304,-8.1971,-8.1718,-8.1695,-8.1491,-8.1298,-8.1108,-8.0323,-7.99,-7.9823,-7.8207,-7.7361,-7.7284,-7.6399,-7.6015,-7.6005,-7.6419,-7.6582,-7.6526,-7.5287,-7.4687,-7.4453,-7.2812,-7.207,-7.1992,-7.1992,-7.1992,-7.1797,-7.0039,-6.9414,-6.914,0.0,0.0,0.0,0.0,0.0,0.0,-3.5227,-3.6312,-3.8339,-4.291,-4.2649,-4.2036,-4.2042,-4.1001,-3.9232,-3.6544,0.0,0.0,0.0,0.0,0.0,0.0,0.0,0.0,0.0,0.0,-4.2611,-4.2619,-4.3006,0.0,0.0,0.0,0.0,0.0,0.0,-4.137,-4.1524,-4.1529,0.0,0.0,0.0,0.0,0.0,0.0,0.0,0.0,0.0,0.0,-4.4025,-4.5264,0.0,0.0,-4.8821,-5.2044,0.0,0.0,-6.1052,-6.3164,-6.5078,-6.625,-6.6484,-6.4726,-6.2344,-5.9297,-5.4961,-5.0664,-4.6875,-4.4258,-4.3008,-4.2656,-4.3555,-4.4687,-4.6406,-4.918,-5.0937,-5.3788,-5.9051,-6.2497,-6.6327,-7.1278,-7.5154,-7.8008,-7.9531,-8.1289,-8.2263,-8.2122,-8.1861,-8.1662,-8.1514,-8.1336,-8.095,-8.0323,-7.9977,-7.9323,-7.8323,-7.763,-7.7053,-7.6515,-7.6169,-7.6015,-7.6005,-7.6419,-7.6582,-7.6526,-7.5169,-7.4609,-7.4453,-7.2734,-7.1992,-7.1992,-7.1992,-7.168,-7.1055,-6.9883,-6.914,-6.8515,0.0,0.0,0.0,0.0,0.0,-3.2123,-3.5484,-3.6534,-3.8495,-4.2827,-4.2742,-4.2397,-4.2781,-4.1764,-4.0104,-3.7581,-3.7676,0.0,0.0,0.0,0.0,0.0,0.0,0.0,0.0,0.0,-4.3505,-4.3582,-4.3847,-4.4051,0.0,0.0,-4.3582,-4.3531,0.0,0.0,0.0,0.0,0.0,0.0,0.0,0.0,0.0,0.0,0.0,0.0,0.0,0.0,0.0,0.0,0.0,0.0,0.0,0.0,0.0,0.0,-5.9131,-6.1484,-6.3828,-6.5273,-6.5781,-6.4297,-6.1758,-5.8672,-5.4883,-5.0664,-4.6914,-4.457,-4.3398,-4.3047,-4.3906,-4.4609,-4.5586,-4.7305,-4.875,-5.1133,-5.5469,-5.9023,-6.3125,-6.8437,-7.2187,-7.5469,-7.8281,-8.0779,-8.2168,-8.1996,-8.1778,-8.1427,-8.1031,-8.0814,-8.0439,-7.9823,-7.9323,-7.8477,-7.7323,-7.7053,-7.6592,-7.6015,-7.6015,-7.6015,-7.6005,-7.6419,-7.6466,-7.6176,-7.5052,-7.4453,-7.4101,-7.2617,-7.1992,-7.1992,-7.1992,-7.1484,-7.0586,-6.9765,-6.8945,-6.8086,0.0,0.0,0.0,0.0,0.0,0.0,-3.4674,-3.6467,-3.869,-4.2082,-4.2008,-4.1917,-4.2723,-4.1065,-3.9916,-3.9863,-3.9129,0.0,0.0,0.0,0.0,0.0,0.0,0.0,0.0,0.0,-4.4353,-4.4505,-4.5357,-4.5825,-4.584,-4.4932,-4.4505,-4.446,0.0,0.0,0.0,0.0,0.0,0.0,0.0,0.0,0.0,0.0,0.0,0.0,0.0,0.0,0.0,0.0,0.0,0.0,0.0,0.0,0.0,0.0,-5.6396,-5.9609,-6.1289,-6.3008,-6.4101,-6.3242,-6.0469,-5.7226,-5.4609,-5.0664,-4.7109,-4.5351,-4.4297,-4.3945,-4.4844,-4.5,-4.5586,-4.7305,-4.9726,-5.2891,-5.7265,-6.082,-6.4297,-6.7773,-6.9726,-7.2109,-7.5586,-7.9619,-8.1992,-8.1992,-8.1645,-8.1031,-8.0167,-7.9927,-7.9823,-7.9823,-7.8207,-7.7323,-7.7284,-7.6438,-7.6015,-7.6015,-7.6015,-7.6015,-7.6005,-7.6419,-7.6115,-7.5273,-7.4818,-7.4101,-7.3242,-7.2344,-7.1992,-7.1992,-7.1992,-7.1484,-7.0586,-6.9726,-6.8906,-6.8086,0.0,0.0,0.0,0.0,0.0,0.0,0.0,-3.5162,-3.6891,-3.9801,-3.9511,-3.9751,-4.1462,-4.062,-4.012,-4.0671,-3.9974,0.0,0.0,0.0,0.0,0.0,0.0,0.0,0.0,0.0,-4.5587,-4.6338,-4.661,-4.7178,-4.7912,-4.6859,-4.6338,-4.6289,-4.4645,-4.4039,0.0,0.0,0.0,0.0,0.0,0.0,0.0,0.0,0.0,0.0,0.0,0.0,0.0,0.0,0.0,0.0,0.0,0.0,0.0,-4.8296,0.0,-5.5769,-5.6992,-5.8594,-5.957,-5.8086,-5.6015,-5.3828,-5.1836,-4.8984,-4.6406,-4.5234,-4.4766,-4.4687,-4.4961,-4.5508,-4.6641,-4.8984,-5.0508,-5.25,-5.5664,-5.957,-6.3398,-6.6914,-7.2461,-7.6914,-7.918,-8.031,-8.0916,-8.0922,-8.0511,-7.9995,-7.9254,-7.8629,-7.8232,-7.8107,-7.7592,-7.7015,-7.6399,-7.613,-7.6015,-7.6015,-7.6015,-7.6079,-7.6207,-7.6493,-7.6216,-7.5464,-7.4871,-7.4101,-7.3242,-7.2344,-7.1992,-7.1992,-7.1992,-7.1094,-6.9765,-6.9492,-6.8515,-6.7265,0.0,0.0,0.0,0.0,0.0,0.0,0.0,-3.4694,-3.6068,-3.7952,-3.7941,-3.85,-4.043,-3.9937,-3.99,-4.0985,-4.0634,0.0,0.0,0.0,0.0,0.0,0.0,0.0,-4.406,-4.5112,-4.6274,-4.7683,-4.7683,-4.8287,-4.9375,-4.8621,-4.788,-4.7168,-4.5944,-4.5297,0.0,0.0,0.0,0.0,0.0,0.0,0.0,0.0,0.0,0.0,0.0,0.0,0.0,0.0,0.0,0.0,0.0,0.0,0.0,0.0,-4.7716,-5.0964,0.0,-5.5351,-5.6172,-5.5078,-5.3516,-5.1875,-5.0508,-4.8164,-4.6133,-4.5586,-4.5234,-4.5117,-4.543,-4.5937,-4.6836,-4.8476,-4.9961,-5.1836,-5.4453,-5.8515,-6.2734,-6.6914,-7.3086,-7.7422,-7.8476,-7.9455,-8.0026,-8.0033,-7.9737,-7.9192,-7.8447,-7.7952,-7.7493,-7.7043,-7.6945,-7.6619,-7.6015,-7.6015,-7.6015,-7.6015,-7.6079,-7.6185,-7.6316,-7.6256,-7.583,-7.5085,-7.4408,-7.3594,0.0,-7.2226,-7.1992,-7.1953,-7.164,-7.0664,-6.9414,-6.9062,-6.8086,-6.6914,0.0,0.0,0.0,0.0,0.0,0.0,0.0,-3.4907,-3.5983,-3.6521,-3.7068,-3.8006,-3.9549,-3.9166,-3.9423,-4.0948,0.0,0.0,0.0,0.0,0.0,0.0,0.0,0.0,-4.4574,-4.5253,-4.6552,-4.8509,-4.8548,-4.9226,-5.039,-5.0255,-4.9181,-4.7371,-4.7324,-4.6774,0.0,0.0,0.0,0.0,0.0,0.0,0.0,0.0,0.0,0.0,0.0,0.0,0.0,0.0,0.0,0.0,0.0,0.0,0.0,0.0,0.0,0.0,0.0,-5.2695,-5.3359,-5.3281,-5.2109,-5.0742,-4.9922,-4.7891,0.0,-4.6133,-4.5508,-4.5273,-4.6211,-4.6328,-4.6406,-4.6797,-4.8906,-5.1367,-5.3984,-5.8203,-6.293,-6.8047,-7.2265,-7.4805,-7.4883,-7.7547,-7.9292,-7.9295,-7.9124,-7.8637,-7.7764,-7.7725,-7.7375,-7.6643,-7.6438,-7.6231,-7.602,-7.6029,-7.6029,-7.602,-7.6195,-7.6278,-7.6224,-7.5797,-7.5085,-7.4194,-7.3588,-7.2812,-7.1992,-7.1992,-7.1992,-7.1914,-7.1055,-7.0195,-6.9375,-6.8515,-6.7656,-6.6914,0.0,0.0,0.0,0.0,0.0,0.0,0.0,0.0,0.0,0.0,-3.6089,-3.6964,-3.797,-3.8982,-4.001,0.0,0.0,0.0,0.0,0.0,0.0,0.0,0.0,0.0,-4.4574,-4.5253,-4.6552,-4.8509,-4.9175,-5.0399,-5.2109,-5.2013,-5.0982,-4.9171,-4.8366,-4.724,0.0,0.0,0.0,0.0,0.0,0.0,0.0,0.0,0.0,0.0,-4.3913,-4.4021,0.0,0.0,0.0,0.0,0.0,0.0,0.0,0.0,-4.233,-4.3155,-4.5199,0.0,-4.6953,-4.6289,-4.6328,-4.6289,0.0,-4.5273,-4.5117,-4.4453,-4.4687,-4.5469,-4.6992,-4.6758,-4.7578,-5.1562,-5.2695,-5.4258,-5.7539,-6.3359,-6.8711,-7.2617,-7.5156,-7.6836,-7.7539,-7.8093,-7.8433,-7.848,-7.8234,-7.7806,-7.7146,-7.7112,-7.7034,-7.6843,-7.6775,-7.6575,-7.6231,-7.6079,-7.6079,-7.6219,-7.6261,-7.6116,-7.578,-7.5642,-7.4843,-7.3511,-7.3359,-7.2812,-7.1992,-7.1992,-7.1992,-7.1914,-7.1055,-7.0195,-6.9375,-6.8515,-6.7656,-6.6914,0.0,0.0,0.0,0.0,0.0,0.0,0.0,0.0,0.0,0.0,0.0,0.0,0.0,0.0,0.0,0.0,0.0,0.0,0.0,0.0,0.0,0.0,0.0,-4.3781,-4.4799,-4.5361,-4.6752,-4.9093,-4.9958,-5.1378,-5.3281,-5.3276,-5.2028,-4.972,-4.7966,-4.6751,0.0,0.0,0.0,0.0,0.0,0.0,0.0,0.0,0.0,0.0,-4.3195,-4.3231,0.0,-4.3605,-4.3932,-4.4085,0.0,0.0,0.0,0.0,-4.1385,-4.1614,-4.2172,-4.3925,-4.5469,-4.5,-4.5547,-4.6055,-4.5586,-4.4922,-4.4375,-4.4297,-4.4336,-4.4805,-4.6172,-4.6992,-4.8555,-5.1758,-5.3555,-5.6367,-6.1445,-6.668,-7.1133,-7.4219,-7.6133,-7.7383,-7.7851,-7.7764,-7.771,-7.7751,-7.7596,-7.7394,-7.7046,-7.7048,-7.7048,-7.705,-7.6942,-7.6715,-7.6306,-7.621,-7.6173,-7.616,-7.5932,-7.5712,-7.5429,-7.4831,-7.4093,-7.3281,-7.289,-7.2422,-7.1992,-7.1992,-7.1758,-7.1328,-7.0469,-6.9648,-6.8789,-6.793,-6.7305,-6.6914,0.0,0.0,0.0,0.0,0.0,0.0,0.0,0.0,0.0,0.0,0.0,0.0,0.0,0.0,0.0,0.0,0.0,0.0,0.0,0.0,0.0,0.0,-4.3753,-4.4104,-4.5268,-4.5506,-4.6892,-4.9576,-5.0709,-5.2178,-5.3983,-5.4374,-5.2903,-4.988,-4.7406,-4.6201,0.0,0.0,0.0,0.0,0.0,0.0,0.0,0.0,0.0,0.0,0.0,0.0,0.0,-4.3334,-4.397,-4.4124,-4.3047,0.0,0.0,0.0,0.0,0.0,-4.1284,-4.3862,-4.6366,-4.582,-4.6562,-4.7344,-4.707,0.0,0.0,0.0,0.0,0.0,-4.5391,-4.75,-4.9531,-5.0937,-5.4141,-5.8711,-6.5117,-6.8828,-7.1836,-7.4297,-7.6133,-7.7187,-7.7187,-7.7187,-7.7187,-7.7187,-7.7187,-7.7187,-7.7187,-7.7187,-7.7187,-7.7187,-7.7048,-7.6682,-7.6187,-7.626,-7.6177,-7.5916,-7.5516,-7.5203,-7.4949,-7.3807,-7.3242,-7.3047,-7.2305,-7.1992,-7.1992,-7.1875,-7.1367,-7.0625,-6.9687,-6.8867,-6.8086,-6.7226,-6.6914,-6.6914,0.0,0.0,0.0,0.0,0.0,0.0,0.0,0.0,0.0,0.0,0.0,0.0,0.0,0.0,0.0,0.0,0.0,0.0,0.0,0.0,0.0,-4.4468,-4.4697,-4.5224,-4.6118,-4.5774,-4.6576,-4.8542,-5.0836,-5.2601,-5.3879,-5.6055,-5.4846,-5.0819,-4.8954,-4.728,-4.5959,-4.6199,0.0,0.0,-4.6289,0.0,0.0,0.0,0.0,0.0,0.0,0.0,0.0,-4.1296,-4.2516,-4.3893,-4.1631,0.0,0.0,0.0,0.0,0.0,-4.3497,-4.563,-4.6545,-4.371,-4.4766,-4.6094,-4.4648,-4.457,0.0,0.0,0.0,0.0,-4.7851,-4.9219,-5.1211,-5.5,-5.9101,-6.3203,-6.7226,-7.0117,-7.25,-7.4375,-7.6133,-7.7187,-7.7187,-7.7187,-7.7187,-7.7187,-7.7187,-7.7187,-7.7187,-7.7187,-7.7187,-7.7187,-7.7187,-7.6698,-7.5737,-7.6086,-7.6107,-7.5658,-7.5418,-7.4694,-7.3586,-7.3398,-7.289,-7.2187,-7.207,-7.1992,-7.1953,-7.1211,-7.082,-7.0547,-6.8984,-6.832,-6.8086,-6.7226,-6.6914,-6.6914,0.0,0.0,0.0,0.0,0.0,0.0,0.0,0.0,0.0,0.0,0.0,0.0,0.0,0.0,0.0,0.0,0.0,0.0,0.0,0.0,-4.4589,-4.5215,-4.5764,-4.6262,-4.6607,-4.6839,-4.8056,-5.0347,-5.2492,-5.4252,-5.5727,-5.5065,-5.3142,-5.0192,-4.8132,-4.6707,-4.5935,-4.6196,-4.6289,0.0,0.0,0.0,0.0,0.0,0.0,0.0,0.0,0.0,0.0,0.0,-4.2277,-4.3355,-4.17,0.0,0.0,0.0,0.0,0.0,-4.2256,-4.4319,-4.5854,-4.4765,-4.7148,-4.9414,-4.8164,-4.7812,-4.7695,0.0,-4.7539,-4.8164,-4.9375,-5.1445,-5.4492,-5.9297,-6.289,-6.5976,-6.8515,-7.0664,-7.2461,-7.375,-7.543,-7.6484,-7.6484,-7.6914,-7.6992,-7.6523,-7.6484,-7.6289,-7.582,-7.5781,-7.5781,-7.5781,-7.5781,-7.5545,-7.5063,-7.5162,-7.5074,-7.4745,-7.4288,-7.3731,-7.3143,-7.2771,-7.2383,-7.1992,-7.1992,-7.1719,-7.1289,-7.0859,-7.0156,-6.9258,-6.8515,-6.789,-6.7461,-6.7031,-6.6914,-6.6914,0.0,0.0,0.0,0.0,0.0,0.0,0.0,0.0,0.0,0.0,0.0,0.0,0.0,0.0,0.0,0.0,0.0,0.0,0.0,-4.4495,-4.4991,-4.5597,-4.6459,-4.7201,-4.7778,-4.8394,-4.991,-5.236,-5.4302,-5.6071,-5.7586,-5.4408,-5.183,-4.9826,-4.765,-4.6398,-4.5935,-4.6196,-4.6289,0.0,0.0,0.0,0.0,0.0,0.0,0.0,0.0,0.0,0.0,0.0,0.0,0.0,0.0,0.0,0.0,-4.1516,-4.1087,-4.1211,-4.1867,-4.3585,-4.5506,-4.664,-4.9219,-5.1523,-5.168,-5.0937,-5.0351,-5.0976,-5.1094,-5.1133,-5.1367,-5.4375,-5.8281,-6.2851,-6.5781,-6.8008,-6.9492,-7.1211,-7.2539,-7.3203,-7.4648,-7.5586,-7.5586,-7.6211,-7.6328,-7.5664,-7.5586,-7.5312,-7.4648,-7.4609,-7.4609,-7.4609,-7.4609,-7.4492,-7.4297,-7.4121,-7.3985,-7.3849,-7.3254,-7.2903,-7.2768,-7.2222,-7.1992,-7.1992,-7.1797,-7.1328,-7.0664,-7.0273,-6.9375,-6.8164,-6.7969,-6.75,-6.6914,-6.6914,-6.6914,-6.6914,0.0,0.0,0.0,0.0,0.0,0.0,0.0,0.0,0.0,0.0,0.0,0.0,0.0,0.0,0.0,0.0,0.0,0.0,0.0,-4.4884,-4.5082,-4.5159,-4.6292,-4.8009,-5.0366,-5.0481,-5.1366,-5.3107,-5.5619,-5.7381,-5.838,-5.5877,-5.3312,-5.0731,-4.92,-4.7561,-4.5935,-4.6196,-4.6289,-4.6289,-4.6289,0.0,0.0,0.0,0.0,0.0,0.0,0.0,0.0,0.0,0.0,0.0,0.0,0.0,-4.3085,-4.2931,-4.2423,-4.2455,-4.4932,-4.5816,-4.6463,-4.8241,-4.8359,-4.8789,-5.1914,-5.1367,-5.0859,-5.3242,-5.3711,-5.3984,-5.4765,-5.8398,-6.2148,-6.4961,-6.7617,-6.9609,-7.0469,-7.2109,-7.3242,-7.3281,-7.4101,-7.4687,-7.4687,-7.4765,-7.4765,-7.4687,-7.4687,-7.4687,-7.4609,-7.4609,-7.4609,-7.4609,-7.4609,-7.4219,-7.3398,-7.3398,-7.3359,-7.3358,-7.3122,-7.2659,-7.207,-7.2031,-7.1992,-7.1953,-7.1133,-7.0742,-7.0586,-6.9023,-6.832,-6.8125,-6.7305,-6.6953,-6.6914,-6.6914,-6.6914,-6.6914,0.0,0.0,0.0,0.0,0.0,0.0,0.0,0.0,0.0,0.0,0.0,0.0,0.0,0.0,0.0,0.0,0.0,0.0,0.0,-4.4837,-4.5112,-4.5802,-4.6992,-4.8355,-4.9856,-5.1433,-5.3626,-5.6357,-5.7857,-5.8266,-5.7641,-5.4686,-5.2175,-5.0131,-4.8111,-4.6768,-4.6059,-4.6204,-4.6289,-4.6289,-4.6289,0.0,0.0,0.0,0.0,0.0,0.0,0.0,0.0,0.0,-4.17,-4.247,-4.17,-4.2585,-4.3649,-4.2707,-4.2232,-4.2291,-4.3419,-4.5322,-4.7184,-4.789,-4.9453,-5.125,-5.3086,-5.4297,-5.5547,-5.7578,-5.8398,-5.8906,-5.9219,-6.1055,-6.3359,-6.5976,-6.8164,-6.9961,-7.1328,-7.207,-7.25,-7.25,-7.3242,-7.3789,-7.3789,-7.4297,-7.4375,-7.3828,-7.3789,-7.3555,-7.3008,-7.2969,-7.2969,-7.2969,-7.2969,-7.2812,-7.25,-7.25,-7.25,-7.25,-7.2416,-7.226,-7.1992,-7.1992,-7.1719,-7.1172,-7.0859,-7.0117,-6.9101,-6.8476,-6.789,-6.7344,-6.7031,-6.6914,-6.6914,-6.6914,-6.6914,-6.6914,0.0,0.0,0.0,0.0,0.0,0.0,0.0,0.0,0.0,0.0,0.0,0.0,0.0,0.0,0.0,0.0,0.0,0.0,-4.5243,-4.5033,-4.5239,-4.6056,-4.7108,-4.824,-4.9394,-5.1895,-5.4472,-5.7088,-5.8165,-5.7909,-5.6308,-5.3586,-5.153,-5.0121,-4.8066,-4.7064,-4.6915,-4.6754,-4.6562,-4.6289,-4.6289,-4.5781,0.0,0.0,0.0,0.0,0.0,0.0,0.0,0.0,-4.1508,-4.22,-4.1824,-4.2556,-4.3481,-4.2957,-4.2694,-4.2588,-4.2683,-4.4716,-4.6992,-4.7812,-5.0156,-5.2891,-5.5117,-5.6797,-5.8515,-6.0742,-6.1719,-6.2109,-6.2109,-6.2812,-6.418,-6.6523,-6.8359,-7.0078,-7.1758,-7.1992,-7.1992,-7.1992,-7.2539,-7.289,-7.289,-7.3437,-7.3515,-7.293,-7.289,-7.2617,-7.2031,-7.1992,-7.1992,-7.1992,-7.1992,-7.1992,-7.1992,-7.1992,-7.1992,-7.1992,-7.1719,-7.1719,-7.1992,-7.1719,-7.125,-7.0664,-7.0156,-6.9258,-6.8164,-6.789,-6.7422,-6.6914,-6.6914,-6.6914,-6.6914,-6.6914,-6.6914,-6.6914,0.0,0.0,0.0,0.0,0.0,0.0,0.0,0.0,0.0,0.0,0.0,0.0,0.0,0.0,0.0,0.0,0.0,0.0,-4.5594,-4.5594,-4.5594,-4.5594,-4.6432,-4.7663,-4.9317,-5.1856,-5.3587,-5.4511,-5.6175,-5.6135,-5.452,-5.301,-5.1857,-5.0987,-4.9552,-4.8822,-4.8634,-4.7887,-4.7109,-4.6289,-4.6289,-4.5781,0.0,0.0,0.0,0.0,0.0,0.0,0.0,0.0,-4.12,-4.0939,-4.3478,-4.3226,-4.2363,-4.3983,-4.4068,-4.3626,-4.3626,-4.4324,-4.5664,-4.8281,-5.0195,-5.2812,-5.8047,-5.8555,-5.8906,-6.2344,-6.3047,-6.3008,-6.3008,-6.3711,-6.4883,-6.6601,-6.8359,-7.0078,-7.1758,-7.1992,-7.1992,-7.1992,-7.1992,-7.1992,-7.1992,-7.1992,-7.1992,-7.1992,-7.1992,-7.1992,-7.1992,-7.1992,-7.1992,-7.1992,-7.1992,-7.1992,-7.1992,-7.1992,-7.1992,-7.1953,-7.1094,-7.1133,-7.1953,-7.1094,-7.0664,-7.0586,-6.8906,-6.8203,-6.8125,-6.7265,-6.6914,-6.6914,-6.6914,-6.6914,-6.6914,-6.6914,-6.6914,-6.6914,0.0,0.0,0.0,0.0,0.0,0.0,0.0,0.0,0.0,0.0,0.0,0.0,0.0,0.0,0.0,0.0,0.0,0.0,-4.5586,-4.539,-4.5371,-4.5586,-4.6432,-4.6855,-4.6749,-4.8625,-5.151,-5.5318,-5.5326,-5.4188,-5.2051,-5.1685,-5.0483,-4.8655,-4.8827,-4.8203,-4.6989,-4.6797,-4.6523,-4.6289,-4.6289,-4.6133,-4.5742,0.0,0.0,0.0,0.0,0.0,0.0,0.0,0.0,0.0,-4.1563,-4.2791,-4.3777,-4.3151,-4.4106,-4.5121,-4.3976,-4.6093,-4.8828,-4.9609,-5.3398,-5.7422,-5.957,-6.0312,-6.1562,-6.5039,-6.5273,-6.4844,-6.4844,-6.5039,-6.5586,-6.6719,-6.832,-6.9805,-7.0937,-7.1601,-7.1992,-7.1992,-7.1992,-7.1992,-7.1992,-7.1992,-7.1992,-7.1992,-7.1992,-7.1992,-7.1992,-7.1992,-7.1992,-7.1992,-7.1992,-7.1719,-7.1094,-7.1094,-7.0781,-7.0234,-6.9961,-7.0273,-7.1055,-7.0234,-6.9531,-6.8906,-6.8437,-6.7851,-6.7265,-6.6992,-6.6914,-6.6914,-6.6914,-6.6914,-6.6914,-6.6914,-6.6914,-6.6797,0.0,0.0,0.0,0.0,0.0,0.0,0.0,0.0,0.0,0.0,-4.5594,-4.5594,0.0,0.0,0.0,0.0,0.0,0.0,0.0,-4.541,-4.54,-4.5586,-4.6086,-4.6432,-4.6586,-4.7932,-4.9933,-5.2664,-5.2958,-5.2031,-5.0024,-5.119,-5.0795,-4.9141,-5.0391,-4.9961,-4.832,-4.7969,-4.7266,-4.6289,-4.6289,-4.6289,-4.6094,0.0,0.0,0.0,0.0,0.0,0.0,0.0,0.0,0.0,-4.0671,-4.142,-4.2202,-4.229,-4.3409,-4.4715,-4.5156,-4.7656,-5.0625,-5.2305,-5.6015,-5.9765,-6.1953,-6.2851,-6.3945,-6.6406,-6.6211,-6.5586,-6.5586,-6.5586,-6.5898,-6.6758,-6.8047,-6.9219,-7.0117,-7.0937,-7.1484,-7.1484,-7.1484,-7.1484,-7.1484,-7.1172,-7.0976,-7.0976,-7.0976,-7.1015,-7.0976,-7.0976,-7.0976,-7.0976,-7.0976,-7.0742,-7.0234,-7.0195,-6.9922,-6.9453,-6.914,-6.9258,-6.9687,-6.9219,-6.8711,-6.8164,-6.7812,-6.7383,-6.6914,-6.6914,-6.6914,-6.6914,-6.6914,-6.6914,-6.6914,-6.6914,-6.668,-6.6328,0.0,0.0,0.0,0.0,0.0,0.0,0.0,0.0,0.0,0.0,-4.5594,-4.5594,0.0,0.0,0.0,0.0,0.0,0.0,0.0,-4.5594,-4.5594,-4.5594,-4.5671,-4.6471,-4.8086,-4.8817,-4.8779,-4.8009,-4.9745,-4.9847,-4.8434,-5.1125,-5.201,-5.1367,-5.3008,-5.2812,-5.1094,-5.0156,-4.8398,-4.6289,-4.6211,-4.6172,-4.6016,-4.4336,0.0,0.0,0.0,0.0,0.0,0.0,0.0,0.0,-4.0478,-3.9758,-3.9105,-4.1408,-4.2333,-4.3359,-4.6601,-4.8867,-5.1328,-5.5547,-5.8125,-6.0742,-6.4805,-6.5703,-6.5937,-6.6758,-6.6289,-6.5703,-6.5703,-6.5703,-6.5976,-6.6758,-6.7617,-6.8476,-6.9258,-7.0078,-7.0586,-7.0586,-7.0586,-7.0586,-7.0586,-6.9883,-6.9414,-6.9414,-6.9453,-6.9453,-6.9414,-6.9414,-6.9414,-6.9414,-6.9414,-6.9414,-6.9375,-6.9336,-6.9258,-6.914,-6.8437,-6.8086,-6.8086,-6.8086,-6.8086,-6.8047,-6.7226,-6.6914,-6.6914,-6.6914,-6.6914,-6.6914,-6.6914,-6.6836,-6.6797,-6.6797,-6.6211,-6.5469,0.0,0.0,0.0,0.0,0.0,0.0,0.0,0.0,0.0,0.0,0.0,0.0,0.0,0.0,0.0,0.0,0.0,0.0,0.0,-4.5594,-4.5594,-4.5594,-4.624,-4.7086,-4.8086,-4.7663,-4.7355,-4.7154,-4.8406,-4.8481,-4.7523,-5.0324,-5.121,-5.0508,-5.1523,-5.1016,-4.9297,-4.707,-4.6172,-4.625,-4.5547,-4.5273,-4.5156,-4.405,-4.3235,0.0,0.0,0.0,0.0,0.0,0.0,0.0,-4.0024,-4.0347,-4.0584,-4.0466,-4.2343,-4.4766,-4.6172,-4.8828,-5.2031,-5.5703,-5.9922,-6.3789,-6.6094,-6.6601,-6.668,-6.6875,-6.6758,-6.6601,-6.6601,-6.6601,-6.668,-6.6875,-6.7617,-6.8281,-6.8437,-6.9219,-6.9726,-6.9687,-6.9687,-6.9687,-6.9765,-6.9531,-6.9414,-6.9414,-6.9453,-6.9492,-6.9492,-6.9414,-6.9414,-6.9492,-6.9492,-6.914,-6.8476,-6.8476,-6.8125,-6.7422,-6.7265,-6.7187,-6.7187,-6.7187,-6.7187,-6.7187,-6.6992,-6.6914,-6.6914,-6.6914,-6.6914,-6.6914,-6.6914,-6.6484,-6.5898,-6.5898,-6.5312,-6.4492,0.0,0.0,0.0,0.0,0.0,0.0,0.0,0.0,0.0,0.0,0.0,0.0,0.0,0.0,0.0,0.0,0.0,0.0,0.0,-4.5594,-4.5787,-4.6201,-4.6663,-4.7077,-4.7509,-4.7115,-4.6701,-4.6278,-4.6938,-4.7237,-4.7259,-5.0492,-5.1797,-5.1445,-5.2266,-5.1484,-4.9414,-4.7617,-4.6406,-4.5664,-4.5625,-4.535,-4.4795,-4.3491,-4.2479,-4.1589,-4.0604,0.0,0.0,0.0,0.0,0.0,0.0,0.0,-3.9336,-3.9297,-4.1133,-4.3711,-4.625,-4.9726,-5.3789,-5.8476,-6.1992,-6.4648,-6.5976,-6.6601,-6.6914,-6.6914,-6.6914,-6.6914,-6.6914,-6.6914,-6.6914,-6.6914,-6.7265,-6.7578,-6.7578,-6.832,-6.8867,-6.8828,-6.8828,-6.8828,-6.8867,-6.8476,-6.8203,-6.8203,-6.8242,-6.8242,-6.8242,-6.8203,-6.8203,-6.8242,-6.8242,-6.8047,-6.7578,-6.7578,-6.7344,-6.6914,-6.6914,-6.6914,-6.6914,-6.6914,-6.6914,-6.6914,-6.6914,-6.6914,-6.6914,-6.6914,-6.6914,-6.6875,-6.6445,-6.6015,-6.5547,-6.5117,-6.4414,-6.3594,0.0,0.0,0.0,0.0,0.0,0.0,0.0,0.0,0.0,0.0,0.0,0.0,0.0,0.0,0.0,0.0,0.0,0.0,0.0,-4.5594,-4.597,-4.6846,-4.6885,-4.6962,-4.7077,-4.6817,-4.6411,-4.5838,-4.5881,-4.6675,-4.8187,-5.1119,-5.2656,-5.293,-5.3359,-5.2226,-4.9883,-4.8555,-4.6758,-4.4844,-4.5391,-4.5152,-4.4271,-4.2705,-4.1532,-4.0675,-3.9811,-3.9677,-4.0,-4.0742,0.0,0.0,0.0,0.0,-3.7656,-3.8203,-3.9609,-4.1797,-4.5664,-5.0273,-5.539,-6.1328,-6.3437,-6.4297,-6.5195,-6.5937,-6.6445,-6.6445,-6.668,-6.6914,-6.6914,-6.6914,-6.6914,-6.6914,-6.6914,-6.6914,-6.6914,-6.7539,-6.7969,-6.7969,-6.7969,-6.7969,-6.7969,-6.7305,-6.6914,-6.6914,-6.6914,-6.6914,-6.6914,-6.6914,-6.6914,-6.6914,-6.6914,-6.6914,-6.6914,-6.6914,-6.6914,-6.6914,-6.6914,-6.6914,-6.6914,-6.6914,-6.6914,-6.6914,-6.6914,-6.6797,-6.668,-6.668,-6.6601,-6.6367,-6.5664,-6.5273,-6.5078,-6.4336,-6.3515,-6.2773,0.0,0.0,0.0,0.0,0.0,0.0,0.0,0.0,0.0,0.0,-4.583,-4.5825,-4.5764,-4.5782,0.0,0.0,0.0,0.0,-4.5594,0.0,0.0,-4.6846,-4.6885,-4.724,-4.7932,-4.6509,-4.6103,-4.6813,-4.6245,-4.8011,-5.1867,-5.1674,-5.2383,-5.3789,-5.2383,-5.0742,-4.8867,-4.5742,-4.418,-4.3828,-4.3164,-4.2851,-4.2615,-4.1579,-4.0687,-3.992,-3.892,-3.9166,-3.9922,-4.0039,-4.0508,0.0,0.0,0.0,-3.8281,-3.7656,-3.8711,-4.0508,-4.2539,0.0,-5.5273,0.0,-6.2539,-6.3398,-6.4258,-6.457,-6.4648,-6.4648,-6.5859,-6.6914,-6.6914,-6.6914,-6.6914,-6.6914,-6.6914,-6.6914,-6.6914,-6.6992,-6.707,-6.707,-6.707,-6.707,-6.707,-6.6953,-6.6914,-6.6914,-6.6914,-6.6914,-6.6914,-6.6914,-6.6914,-6.6914,-6.6914,-6.6914,-6.6914,-6.6914,-6.6914,-6.6914,-6.6914,-6.6914,-6.6914,-6.6914,-6.6914,-6.6914,-6.6914,-6.6484,-6.5781,-6.5781,-6.5312,-6.4648,-6.4531,-6.4023,-6.332,-6.3203,-6.2617,-6.1875,0.0,0.0,0.0,0.0,0.0,0.0,0.0,0.0,0.0,0.0,0.0,-4.59,-4.5841,-4.5834,0.0,0.0,0.0,0.0,-4.5594,-4.5594,0.0,-4.6846,-4.6432,-4.6586,-4.7432,-4.574,-4.5291,-4.6229,-4.5592,-4.7759,-5.2487,-5.2725,-5.4297,-5.6836,-5.457,-5.2344,-5.0078,-4.6601,-4.4609,-4.3672,-4.3281,-4.3944,-4.4831,-4.1535,-4.0992,-4.1587,-3.8759,-3.8035,-3.8594,-3.957,-4.0156,-4.0234,-3.8984,0.0,0.0,0.0,-3.7812,-4.0273,-4.5391,-4.9961,-5.4492,0.0,-6.164,-6.25,-6.3359,-6.3945,-6.4297,-6.4297,-6.4922,-6.543,-6.543,-6.5859,-6.6172,-6.6172,-6.6562,-6.6914,-6.6914,-6.6914,-6.6914,-6.6914,-6.6914,-6.6914,-6.6914,-6.6914,-6.6914,-6.6914,-6.6914,-6.6914,-6.6914,-6.6914,-6.6914,-6.6914,-6.6914,-6.6914,-6.6914,-6.6914,-6.664,-6.6172,-6.6172,-6.5937,-6.543,-6.543,-6.5703,-6.6172,-6.6172,-6.5664,-6.4883,-6.4883,-6.4648,-6.4258,-6.375,-6.3359,-6.293,-6.2461,-6.2031,-6.1719,0.0,0.0,0.0,0.0,0.0,0.0,0.0,0.0,0.0,0.0,0.0,0.0,-4.5963,0.0,0.0,0.0,0.0,0.0,-4.5594,0.0,0.0,0.0,0.0,-4.5893,-4.6547,-4.4893,-4.4427,-4.5332,-4.4649,-4.7216,-5.2781,-5.381,-5.6405,-6.0039,-5.7226,-5.4141,-5.0898,-4.8125,-4.6094,-4.4687,-4.4687,-4.5817,-4.709,-4.3654,-4.3576,-4.4707,-4.0411,-3.9017,-3.9336,-3.9766,-4.0039,-4.0039,-3.8945,-3.8594,0.0,0.0,0.0,-3.9492,0.0,0.0,-5.2031,-5.7422,-5.9765,-6.1015,-6.2109,-6.3008,-6.3633,-6.3633,-6.3633,-6.3633,-6.3633,-6.4531,-6.5273,-6.5273,-6.582,-6.625,-6.625,-6.625,-6.625,-6.625,-6.625,-6.625,-6.625,-6.625,-6.625,-6.625,-6.625,-6.625,-6.625,-6.625,-6.625,-6.625,-6.625,-6.625,-6.625,-6.625,-6.5898,-6.5273,-6.5273,-6.4922,-6.4297,-6.4297,-6.4531,-6.4961,-6.5156,-6.4765,-6.3984,-6.3984,-6.3828,-6.3555,-6.293,-6.2656,-6.2578,-6.1953,-6.1719,-6.1719,0.0,0.0,0.0,0.0,0.0,0.0,0.0,0.0,0.0,0.0,0.0,0.0,-4.6091,-4.6082,-4.6014,-4.5918,0.0,0.0,0.0,0.0,0.0,0.0,0.0,0.0,-4.5671,-4.4008,-4.3613,-4.457,-4.3698,-4.6916,-5.3832,-5.4654,-5.7839,-6.2656,-5.9258,-5.4961,-5.0195,-4.918,-4.8242,-4.7383,-4.7383,-4.7461,-4.7734,-4.914,-4.9726,-4.9297,-4.4922,-4.3906,-4.4101,-4.0976,-4.0469,-4.0859,-3.9141,-3.8594,-3.8242,0.0,0.0,0.0,-4.2617,-4.4687,0.0,-5.2851,-5.6211,-5.8515,-6.0156,-6.1211,-6.1836,-6.1836,-6.1836,-6.1836,-6.1836,-6.3203,-6.4375,-6.4375,-6.4414,-6.4453,-6.4453,-6.4453,-6.4453,-6.4453,-6.4453,-6.4453,-6.4453,-6.4453,-6.4453,-6.4453,-6.4453,-6.4453,-6.4453,-6.4453,-6.4453,-6.4453,-6.4453,-6.4453,-6.4453,-6.4453,-6.4414,-6.4375,-6.4375,-6.4336,-6.4297,-6.4297,-6.3867,-6.3164,-6.4023,-6.3867,-6.3086,-6.3086,-6.2578,-6.1836,-6.1797,-6.1758,-6.1758,-6.1719,-6.1719,-6.1719,0.0,0.0,0.0,0.0,0.0,0.0,0.0,0.0,0.0,0.0,0.0,0.0,0.0,-4.6149,-4.608,-4.6017,-4.589,0.0,0.0,0.0,0.0,0.0,0.0,0.0,-4.5594,-4.397,-4.3511,-4.4361,-4.3563,-4.5691,-5.0491,-5.2525,-5.4515,-5.6406,-5.6875,-5.6055,-5.3984,-4.9258,-4.7695,-4.8398,-4.7812,-4.9258,-5.1601,-5.0586,-5.1562,-5.2891,-4.8594,-4.6172,-4.4883,-4.4219,-4.2773,-4.0976,-3.9805,-3.9062,-3.8242,-3.6523,-3.6797,-3.832,-4.1289,0.0,0.0,-5.0469,-5.3476,-5.5859,-5.7578,-5.9453,-6.0859,-6.0859,-6.1328,-6.1719,-6.1719,-6.2656,-6.3476,-6.3476,-6.3945,-6.4297,-6.4297,-6.4297,-6.4297,-6.4297,-6.4297,-6.4297,-6.4297,-6.4297,-6.4297,-6.4297,-6.4297,-6.4297,-6.4297,-6.4297,-6.4297,-6.4297,-6.4297,-6.4297,-6.4297,-6.4297,-6.4023,-6.3476,-6.3476,-6.3164,-6.2617,-6.2617,-6.2461,-6.2187,-6.25,-6.2461,-6.2187,-6.2187,-6.1992,-6.1719,-6.1719,-6.1719,-6.1719,-6.1719,-6.1719,-6.1719,0.0,0.0,0.0,0.0,0.0,0.0,0.0,0.0,-4.62,-4.6289,0.0,0.0,0.0,0.0,-4.6147,-4.6091,-4.599,-4.5813,-4.568,-4.5665,0.0,0.0,0.0,0.0,-4.5687,-4.4314,-4.3698,-4.3929,-4.3417,-4.484,-4.8083,-5.0212,-5.1878,-5.3082,-5.3711,-5.4805,-5.5898,-5.1562,-5.0273,-5.1016,-5.0742,-5.2344,-5.4844,-5.4609,-5.5742,-5.6953,-5.3242,-5.0625,-4.875,-4.7891,-4.5703,-4.3047,-4.1289,-3.9336,-3.75,-3.6328,-3.7031,-3.8437,-3.957,-4.1562,-4.4258,-4.832,-5.0391,-5.2344,-5.582,-5.7695,-5.8945,-5.9805,-6.0664,-6.1367,-6.164,-6.2187,-6.2578,-6.2578,-6.3047,-6.3437,-6.3437,-6.3437,-6.3437,-6.3437,-6.3437,-6.3437,-6.3437,-6.3437,-6.3437,-6.3437,-6.3437,-6.3437,-6.3437,-6.3437,-6.3437,-6.3437,-6.3437,-6.3437,-6.3437,-6.3437,-6.3125,-6.2578,-6.2578,-6.2265,-6.1719,-6.1719,-6.1719,-6.1719,-6.1719,-6.1719,-6.1719,-6.1719,-6.1719,-6.1719,-6.1719,-6.1719,-6.1719,-6.1719,-6.1719,-6.1719,0.0,0.0,0.0,0.0,0.0,0.0,0.0,0.0,-4.6328,-4.6328,0.0,0.0,0.0,0.0,0.0,-4.6173,-4.6167,-4.6066,-4.5809,-4.579,0.0,0.0,0.0,0.0,-4.5918,-4.4982,-4.4085,-4.3194,-4.3127,-4.443,-4.6977,-4.7928,-5.0254,-5.3442,-5.0309,-5.125,-5.5195,-5.5937,-5.5859,-5.5312,-5.6133,-5.6562,-5.7148,-6.1328,-6.2422,-6.1445,-5.8945,-5.7461,-5.6055,-5.1875,-4.9258,-4.7109,-4.3516,-3.9492,-3.6094,-3.6055,-3.668,-3.7383,0.0,0.0,0.0,-4.6133,-4.6797,-4.8008,-5.4765,-5.5664,-5.5859,-5.8555,-5.9726,-6.0547,-6.1484,-6.164,-6.168,-6.1719,-6.1719,-6.1719,-6.1719,-6.1719,-6.1719,-6.1719,-6.1719,-6.1719,-6.1719,-6.1719,-6.1719,-6.1719,-6.1719,-6.1719,-6.1719,-6.1719,-6.1719,-6.1719,-6.1719,-6.1719,-6.1719,-6.1719,-6.1719,-6.1719,-6.1719,-6.1719,-6.1719,-6.1719,-6.1719,-6.1719,-6.1719,-6.1719,-6.1719,-6.1719,-6.1719,-6.1719,-6.1719,-6.1719,-6.1719,-6.1719,-6.1719,-6.1719,0.0,0.0,0.0,0.0,0.0,-4.6091,-4.6288,-4.6289,-4.6523,0.0,0.0,0.0,-4.7226,-4.7812,-4.8122,-4.7971,-4.7966,-4.7382,-4.5959,-4.5867,-4.5867,-4.5867,-4.5867,-4.5886,-4.5918,-4.5074,-4.416,-4.3194,-4.3183,-4.3266,-4.3451,-4.5026,-4.6654,-4.8287,-4.9372,-5.0508,-5.1445,-4.918,-5.0586,-5.4258,-5.3242,-5.5469,-5.9414,-6.0039,-6.164,-6.3398,-6.207,-6.0625,-5.9062,-5.7305,-5.3867,-4.9414,-4.4062,-4.0742,-3.8555,-3.7305,-3.8437,-3.9726,-3.7812,0.0,0.0,0.0,0.0,0.0,-4.8437,-4.9922,-5.1758,-5.5586,-5.6562,-5.7539,-6.0273,-6.0742,-6.0976,-6.1601,-6.1719,-6.1719,-6.1719,-6.1719,-6.1719,-6.1719,-6.1719,-6.1719,-6.1719,-6.1719,-6.1719,-6.1719,-6.1719,-6.1719,-6.1719,-6.1719,-6.1719,-6.1719,-6.1719,-6.1719,-6.1719,-6.1719,-6.1719,-6.1719,-6.1719,-6.1719,-6.1719,-6.1719,-6.1719,-6.1719,-6.1719,-6.1719,-6.1719,-6.1719,-6.1719,-6.1719,-6.1719,-6.1719,-6.1719,-6.1719,-6.1719,-6.1719,0.0,0.0,0.0,-4.6484,-4.7104,-4.7721,-4.7889,-4.793,-4.8125,0.0,0.0,0.0,-4.8633,-5.0078,-5.0585,-4.9441,-4.897,-4.8133,-4.6619,-4.618,-4.5985,-4.5985,-4.5985,-4.6001,-4.6072,-4.554,-4.462,-4.3291,-4.323,-4.277,-4.1924,-4.307,-4.4055,-4.5045,-4.6348,-4.7302,-4.7851,-4.5078,-4.7617,-5.3516,-5.4336,-5.6758,-6.0039,-6.1367,-6.289,-6.4297,-6.414,-6.3203,-6.1914,-6.1055,-5.6836,-5.1094,-4.6133,-4.3164,-4.1133,-3.9414,-4.0508,-4.1758,-3.9531,-4.0625,-4.2344,-4.2109,0.0,0.0,-4.6641,-4.7617,-4.8945,-5.2851,-5.4258,-5.5469,-5.7851,-5.8867,-5.9648,-6.0508,-6.0937,-6.1289,-6.164,-6.1719,-6.1719,-6.1719,-6.1719,-6.1719,-6.1719,-6.1719,-6.1719,-6.1719,-6.1719,-6.1719,-6.1719,-6.1719,-6.1719,-6.1719,-6.1719,-6.1719,-6.1719,-6.1719,-6.1719,-6.1719,-6.1719,-6.1719,-6.1719,-6.1719,-6.1719,-6.1719,-6.1719,-6.1719,-6.1719,-6.1719,-6.1719,-6.1719,-6.1719,-6.1719,-6.1719,-6.1719,-6.1719,-6.1719,0.0,0.0,-4.803,-4.7582,-4.8781,-4.9985,-5.0428,-5.0391,-5.043,0.0,-5.0078,-5.0039,-5.1094,-5.2969,-5.3242,-5.0976,-4.9805,-4.8708,-4.7625,-4.6646,-4.6138,-4.6138,-4.6138,-4.6195,-4.6289,-4.6196,-4.5292,-4.358,-4.3335,-4.2744,-4.1817,-4.1861,-4.232,-4.3082,-4.2559,-4.3192,-4.4648,-4.3476,-4.6641,-5.2773,-5.6758,-5.8867,-6.0039,-6.375,-6.5,-6.4805,-6.539,-6.5156,-6.4414,-6.3242,-5.8633,-5.2773,-4.9141,-4.6445,-4.418,-4.2187,-4.2891,-4.3906,-4.2109,-4.2344,-4.3398,-4.457,-4.3359,0.0,-4.7226,-4.7031,-4.6953,-5.0273,-5.2148,-5.3516,-5.4765,-5.6289,-5.7617,-5.8476,-5.9375,-6.039,-6.1523,-6.1719,-6.1719,-6.1719,-6.1719,-6.1719,-6.1719,-6.1719,-6.1719,-6.1719,-6.1719,-6.1719,-6.1719,-6.1719,-6.1719,-6.1719,-6.1719,-6.1719,-6.1719,-6.1719,-6.1719,-6.1719,-6.1719,-6.1719,-6.1719,-6.1719,-6.1719,-6.1719,-6.1719,-6.1719,-6.1719,-6.1719,-6.1719,-6.1719,-6.1719,-6.1719,-6.1719,-6.1719,-6.1719,-6.1719,0.0,-4.7218,-4.7797,-4.9075,-4.9655,-5.0469,-5.1991,-5.1601,-5.1914,-5.4023,-5.4141,-5.4922,-5.7187,-5.6015,-5.4844,-5.4336,-5.2226,-5.0273,-4.8709,-4.7147,-4.6248,-4.6248,-4.6248,-4.6288,-4.6289,-4.6288,-4.5732,-4.4597,-4.3775,-4.2879,-4.1951,-4.1315,-4.1151,-4.1334,-4.2049,-4.2577,-4.3086,-4.5547,-4.8164,-5.082,-5.2305,-5.668,-6.2265,-6.2422,-6.4531,-6.7265,-6.6055,-6.5937,-6.5937,-6.2969,-6.0156,-5.707,-5.2187,-5.0312,-4.9141,-4.5351,-4.5976,-4.7344,-4.4922,-4.5898,-4.7031,-4.457,-4.5156,0.0,-4.4062,-4.3945,-4.5,-4.7773,-4.8047,-4.8906,-5.2539,-5.3476,-5.3984,-5.4883,-5.6328,-5.8359,-6.1289,-6.1719,-6.1719,-6.1719,-6.1719,-6.1719,-6.1719,-6.1719,-6.1719,-6.1719,-6.1719,-6.1719,-6.1719,-6.1719,-6.1719,-6.1719,-6.1719,-6.1719,-6.1719,-6.1719,-6.1719,-6.1719,-6.1719,-6.1719,-6.1719,-6.1719,-6.1719,-6.1719,-6.1719,-6.1719,-6.1719,-6.1719,-6.1719,-6.1719,-6.1719,-6.1719,-6.1719,-6.1719,-6.1719,-6.1719,-4.7233,-4.83,-4.9453,-5.0304,-5.1236,-5.2511,-5.4374,-5.4258,-5.4765,-5.6953,-5.7969,-5.8515,-5.8555,-5.8125,-5.7344,-5.6055,-5.3555,-5.1328,-4.9648,-4.793,-4.6758,-4.6328,-4.6289,-4.6289,-4.6289,-4.6289,-4.5855,-4.4885,-4.388,-4.2948,-4.2024,-4.116,-4.1501,-4.2847,-4.2515,-4.3317,-4.5039,-4.5469,-4.7148,-4.9883,-5.375,-5.8398,-6.3125,-6.4453,-6.6289,-6.8086,-6.7226,-6.6914,-6.6367,-6.289,-6.1133,-5.9609,-5.4844,-5.3633,-5.3242,-4.9336,-4.9414,-5.0234,-4.7656,-4.7891,-4.8476,-4.6719,-4.6641,0.0,0.0,-4.4648,-4.4961,-4.7148,-4.6914,-4.7109,-4.9687,-5.0508,-5.1094,-5.1953,-5.3906,-5.5898,-5.7617,-5.9375,-6.0469,-6.0469,-6.0469,-6.0625,-6.1015,-6.1055,-6.1211,-6.168,-6.1719,-6.1719,-6.1719,-6.1719,-6.1719,-6.1719,-6.1719,-6.1719,-6.1719,-6.1719,-6.1719,-6.1719,-6.1719,-6.1719,-6.1719,-6.1719,-6.1719,-6.1719,-6.1719,-6.1719,-6.1719,-6.1719,-6.1719,-6.1719,-6.1719,-6.1719,-6.1719,-6.1719,-6.1719,-6.1719,-4.7371,-4.9067,-5.0792,-5.1057,-5.2604,-5.4426,-5.6327,-5.6601,-5.7344,-5.9414,-6.1133,-6.1562,-5.9805,-6.0547,-6.0469,-5.8711,-5.5586,-5.3125,-5.1758,-4.9414,-4.7773,-4.707,-4.6562,-4.6445,-4.6797,-4.6484,-4.5857,-4.4937,-4.3905,-4.3003,-4.2139,-4.1189,-4.2066,-4.4339,-4.3136,-4.4365,-4.7226,-4.5273,-4.6758,-5.0898,-5.6836,-6.0234,-6.2187,-6.6015,-6.7539,-6.7734,-6.8086,-6.7656,-6.6406,-6.3242,-6.2187,-6.1484,-5.7344,-5.664,-5.668,-5.3359,-5.3008,-5.3203,-5.0976,-5.0508,-5.043,-4.9609,-4.8711,-4.7851,0.0,0.0,0.0,-4.6875,-4.6523,-4.6328,-4.7187,-4.7773,-4.8437,-4.9297,-5.1328,-5.2812,-5.3008,-5.5703,-5.789,-5.8398,-5.8594,-5.9023,-5.9844,-5.9765,-6.0117,-6.1133,-6.1055,-6.1094,-6.1445,-6.1601,-6.1719,-6.1719,-6.1719,-6.1719,-6.1719,-6.1719,-6.1719,-6.1719,-6.1719,-6.1719,-6.1719,-6.1719,-6.1719,-6.1719,-6.1719,-6.1719,-6.1719,-6.1719,-6.1719,-6.1719,-6.1719,-6.1719,-6.1719,-6.1719,-6.1719,-6.1719,-4.7129,-4.8076,-4.9421,-5.0863,-5.2604,-5.4426,-5.6327,-5.6601,-5.7773,-6.0976,-6.293,-6.4492,-6.5742,-6.4687,-6.4375,-6.5625,-6.0586,-5.7226,-5.7031,-5.2578,-4.9844,-4.9766,-4.7539,-4.7031,-4.8555,-4.7109,-4.5859,-4.4999,-4.404,-4.3116,-4.2256,-4.1391,-4.1551,-4.262,-4.3276,-4.4609,-4.6484,-4.6953,-5.0469,-5.5937,-5.8242,-5.8437,-5.7851,-6.2851,-6.5234,-6.6094,-6.7656,-6.7656,-6.6601,-6.4648,-6.3984,-6.3398,-5.9883,-5.9297,-5.9453,-5.6797,-5.664,-5.707,-5.6015,-5.6289,-5.5937,-5.207,-5.2695,-5.2695,-4.668,0.0,-4.6914,-4.5586,0.0,-4.5391,-4.6289,0.0,0.0,-4.6601,-4.7617,-4.8594,-4.9375,-5.1094,-5.3164,-5.5469,-5.6406,-5.7226,-5.8086,-5.75,-5.7695,-5.9375,-5.8789,-5.8984,-6.0469,-6.1289,-6.1719,-6.1719,-6.1719,-6.1719,-6.1719,-6.1719,-6.1719,-6.1719,-6.1719,-6.1719,-6.1719,-6.1719,-6.1719,-6.1719,-6.1719,-6.1719,-6.1719,-6.1719,-6.1719,-6.1719,-6.1719,-6.1719,-6.1719,-6.1719,-6.1719,-6.1719,-4.7097,-4.8431,-4.9747,-5.0352,-5.1958,-5.3784,-5.5586,-5.9258,-6.2148,-6.3086,-6.5156,-6.7031,-6.8281,-6.6406,-6.5742,-6.75,-6.3476,-6.0234,-5.875,-5.5195,-5.2695,-5.168,-4.918,-4.8164,-4.8867,-4.6719,-4.5351,-4.5,-4.3538,-4.2671,-4.2336,-4.1418,-4.2554,-4.5384,-4.578,-4.7734,-5.0742,-5.0625,-5.1719,-5.3828,-5.6562,-5.6953,-5.6758,-6.4922,-6.7969,-6.789,-6.8125,-6.7656,-6.6562,-6.4297,-6.3867,-6.3789,-6.082,-6.0469,-6.0742,-5.8711,-5.8359,-5.8359,-5.6953,-5.6875,-5.6445,-5.3633,-5.2969,-5.2031,-4.8164,-4.7031,-4.6797,-4.6562,0.0,0.0,0.0,0.0,0.0,0.0,-4.5508,-4.6055,-4.5898,-4.7344,-4.957,-5.2656,-5.3359,-5.4101,-5.5508,-5.5742,-5.6367,-5.7617,-5.7344,-5.789,-5.9609,-6.0508,-6.1172,-6.168,-6.1719,-6.1719,-6.1719,-6.1719,-6.1719,-6.1719,-6.1719,-6.1719,-6.1719,-6.1719,-6.1719,-6.1719,-6.1719,-6.1719,-6.1719,-6.1719,-6.1719,-6.1719,-6.1719,-6.1719,-6.1719,-6.1719,-6.1719,-6.1719,-4.7122,-4.8449,-4.9529,-4.9612,-5.1124,-5.3164,-5.5625,-6.0664,-6.4297,-6.4609,-6.6719,-6.8789,-7.0351,-6.8867,-6.8594,-7.082,-6.7617,-6.4492,-6.2187,-5.8672,-5.6015,-5.4531,-5.1328,-4.9687,-4.9922,-4.7383,-4.5703,-4.5,-4.3428,-4.2726,-4.2734,-4.1826,-4.3351,-4.6914,-4.7891,-5.043,-5.3984,-5.3828,-5.4375,-5.5508,-5.7773,-5.918,-6.0586,-6.7148,-6.9609,-6.9414,-6.875,-6.7812,-6.6562,-6.4414,-6.414,-6.4297,-6.2148,-6.1758,-6.1836,-6.0586,-6.0078,-5.9609,-5.8359,-5.7812,-5.707,-5.4609,-5.2851,-5.1133,-4.8711,-4.7773,-4.7422,-4.7578,-4.7148,0.0,0.0,0.0,-4.4687,-4.4453,0.0,-4.4766,-4.4141,-4.4922,-4.668,-4.9648,-5.0625,-5.1562,-5.2851,-5.332,-5.4101,-5.543,-5.5312,-5.6133,-5.8359,-5.9492,-6.0469,-6.1328,-6.1562,-6.1719,-6.1719,-6.1719,-6.1719,-6.1719,-6.1719,-6.1719,-6.1719,-6.1719,-6.1719,-6.1719,-6.1719,-6.1719,-6.1719,-6.1719,-6.1719,-6.1719,-6.1719,-6.1719,-6.1719,-6.1719,-6.1719,-6.1719,-4.7231,-4.7569,-4.7928,-4.8601,-5.0227,-5.2891,-5.7148,-5.9375,-6.1758,-6.5117,-6.7109,-6.9453,-7.2812,-7.3086,-7.4414,-7.7851,-7.4219,-7.0976,-6.9297,-6.3555,-5.9844,-5.9023,-5.4062,-5.1719,-5.2578,-5.0078,-4.7539,-4.5,-4.4101,-4.3672,-4.3633,-4.2773,-4.332,-4.5234,-4.8594,-5.1562,-5.4101,-5.5781,-5.9844,-6.5078,-6.4336,-6.7031,-7.1133,-6.8164,-6.8047,-6.9492,-6.9375,-6.8281,-6.6758,-6.582,-6.5547,-6.539,-6.4453,-6.3633,-6.2969,-6.289,-6.2265,-6.1601,-6.1562,-6.0937,-5.9258,-5.5039,-5.332,-5.1562,-4.7344,-4.8281,-4.9609,-4.793,-4.9531,-5.0703,-4.9101,-4.8086,-4.7187,-4.6367,-4.5547,0.0,0.0,-4.4297,-4.4453,-4.625,-4.8711,-5.0273,-5.0312,-4.957,-5.0156,-5.2656,-5.2031,-5.3047,-5.6484,-5.832,-5.9609,-6.043,-6.125,-6.1719,-6.1719,-6.1719,-6.1719,-6.1719,-6.1719,-6.1719,-6.1719,-6.1719,-6.1719,-6.1719,-6.1719,-6.1719,-6.1719,-6.1719,-6.1719,-6.1719,-6.1719,-6.1719,-6.1719,-6.1719,-6.1719,-6.1719,-4.8356,-4.8905,-4.9023,-4.8121,-4.9413,-5.2266,-5.7148,-6.1289,-6.5078,-6.8515,-7.0508,-7.3086,-7.7109,-7.6562,-7.6797,-7.9101,-7.6914,-7.4453,-7.2187,-6.7422,-6.457,-6.4297,-5.8203,-5.5234,-5.6133,-5.1953,-4.875,-4.6719,-4.5273,-4.4258,-4.3672,-4.3398,-4.418,-4.6016,-4.9453,-5.2734,-5.5898,-5.875,-6.1133,-6.3125,-6.457,-6.789,-7.1797,-7.0078,-6.9453,-6.9414,-6.8828,-6.7851,-6.6836,-6.6562,-6.6094,-6.5547,-6.5234,-6.457,-6.375,-6.3164,-6.2773,-6.2422,-6.1875,-6.1484,-6.0351,-5.664,-5.4648,-5.2578,-4.8867,-4.9141,-4.9726,-4.7969,-4.9648,-5.0898,-4.9219,-4.8203,-4.7305,-4.6445,-4.5586,-4.4609,0.0,-4.3047,-4.3281,-4.4453,-4.6367,-4.7383,-4.6797,-4.7539,-4.8633,-5.0078,-5.0469,-5.2109,-5.5547,-5.7383,-5.8984,-6.0351,-6.125,-6.1719,-6.1719,-6.1719,-6.1719,-6.1719,-6.1719,-6.1719,-6.1719,-6.1719,-6.1719,-6.1719,-6.1719,-6.1719,-6.1719,-6.1719,-6.1719,-6.1719,-6.1719,-6.1719,-6.1719,-6.1719,-6.1719,-6.1679,-4.9414,-4.9805,-4.9922,-4.9101,-5.0898,-5.3906,-5.8125,-6.3203,-6.7656,-7.0742,-7.2969,-7.5625,-7.9297,-7.875,-7.8789,-8.0469,-7.9336,-7.7187,-7.3984,-7.1172,-6.8945,-6.7422,-6.2812,-6.0078,-5.9726,-5.5586,-5.2109,-4.9414,-4.7383,-4.5937,-4.5078,-4.4453,-4.4922,-4.6445,-5.0195,-5.3633,-5.6836,-6.0586,-6.3047,-6.4687,-6.6953,-6.9531,-7.1914,-7.1015,-7.0195,-6.9375,-6.8515,-6.7656,-6.6914,-6.6914,-6.6523,-6.6055,-6.6055,-6.5469,-6.4648,-6.4101,-6.3476,-6.289,-6.2305,-6.1719,-6.0586,-5.7773,-5.5976,-5.4023,-5.0586,-5.0937,-5.1523,-4.9766,-5.0976,-5.2187,-5.1719,-4.9922,-4.8359,-4.7773,-4.6172,-4.4297,0.0,-4.25,-4.2851,-4.2812,-4.4336,-4.5391,-4.5469,-4.5625,-4.6484,-4.8281,-4.8672,-5.0312,-5.3711,-5.5859,-5.7734,-5.9453,-6.0625,-6.1406,-6.1719,-6.1719,-6.1719,-6.1719,-6.1719,-6.1719,-6.1719,-6.1719,-6.1719,-6.1719,-6.1719,-6.1719,-6.1719,-6.1719,-6.1719,-6.1719,-6.1719,-6.1719,-6.1719,-6.1719,-6.1678,-6.1585,-5.0547,-5.0547,-5.0898,-5.1641,-5.4453,-5.75,-6.0117,-6.4844,-6.9101,-7.1797,-7.4414,-7.6992,-7.9531,-7.9844,-8.0508,-8.2148,-8.1523,-7.9297,-7.5195,-7.4805,-7.289,-6.8828,-6.7656,-6.5898,-6.3398,-6.0703,-5.7226,-5.2969,-5.0273,-4.8516,-4.7617,-4.5898,-4.5508,-4.6484,-5.0742,-5.4101,-5.6836,-6.1172,-6.5547,-6.9687,-7.1328,-7.1992,-7.1914,-7.1015,-7.0195,-6.9375,-6.8515,-6.7656,-6.6914,-6.6914,-6.6914,-6.6914,-6.6914,-6.6328,-6.5664,-6.5625,-6.4414,-6.3125,-6.3008,-6.1797,-6.0117,-5.8437,-5.7344,-5.5781,-5.2422,-5.3594,-5.4922,-5.3203,-5.3594,-5.4687,-5.6133,-5.3086,-5.0273,-5.0117,-4.7226,-4.4141,-4.1719,-4.2734,-4.3125,-4.1562,-4.2773,-4.4297,-4.582,-4.3906,-4.3867,-4.7148,-4.6719,-4.7773,-5.1211,-5.3789,-5.6015,-5.7851,-5.9531,-6.082,-6.168,-6.1719,-6.1719,-6.1719,-6.1719,-6.1719,-6.1719,-6.1719,-6.1719,-6.1719,-6.1719,-6.1719,-6.1719,-6.1719,-6.1719,-6.1719,-6.1719,-6.1719,-6.1719,-6.1719,-6.163,-6.1491,-5.293,-5.5117,-5.6953,-5.7148,-5.6875,-5.789,-6.1758,-6.5117,-6.8867,-7.3359,-7.6211,-7.8789,-8.1367,-8.164,-8.1797,-8.2265,-8.2109,-8.1211,-7.9453,-7.7578,-7.6055,-7.4922,-7.1562,-6.914,-6.7851,-6.3398,-5.957,-5.6562,-5.207,-4.9414,-4.8516,0.0,0.0,-4.6445,-5.0117,-5.3203,-5.5976,-6.0898,-6.5859,-7.0508,-7.1562,-7.1992,-7.1914,-7.1015,-7.0156,-6.9336,-6.8476,-6.7656,-6.6914,-6.6914,-6.6914,-6.6914,-6.6914,-6.6758,-6.6445,-6.5781,-6.5273,-6.4648,-6.3359,-6.2656,-6.1914,-6.0195,-5.8633,-5.7148,-5.5625,-5.6289,-5.6758,-5.5,-5.6367,-5.6992,-5.4219,-5.2812,-5.1211,-4.8672,-4.6445,-4.4766,-4.4101,-4.3828,-4.3789,-4.3984,-4.3828,-4.3125,-4.168,-4.3242,-4.4453,-4.4687,-4.5703,-4.7773,-5.1211,-5.2656,-5.4765,-5.7812,-5.9531,-6.082,-6.168,-6.1719,-6.1719,-6.1719,-6.1719,-6.1719,-6.1719,-6.1719,-6.1719,-6.1719,-6.1719,-6.1719,-6.1719,-6.1719,-6.1719,-6.1719,-6.1719,-6.1719,-6.1719,-6.1719,-6.163,-6.1491,-5.5117,-5.8515,-6.1562,-6.1914,-6.2109,-6.289,-6.4961,-6.7148,-7.0,-7.4062,-7.6875,-7.9062,-8.0469,-8.164,-8.2304,-8.2304,-8.2304,-8.1601,-8.0,-7.9609,-7.875,-7.7265,-7.5234,-7.3359,-7.1758,-6.6992,-6.289,-5.957,-5.4375,-5.1055,-4.9414,0.0,0.0,0.0,-4.9883,-5.2656,-5.5156,-6.1445,-6.625,-6.9726,-7.0937,-7.164,0.0,-7.1445,-7.0742,-6.9844,-6.9062,-6.7969,-6.6914,-6.6914,-6.6914,-6.6914,-6.6914,-6.6914,-6.6797,-6.6328,-6.5898,-6.539,-6.4414,-6.3594,-6.2773,-6.1797,-6.0547,-5.9258,-5.8008,-5.8125,-5.8203,-5.7226,-5.7578,-5.7656,-5.6328,-5.3906,-5.0898,-4.707,-4.5625,-4.4883,-4.4492,-4.4336,-4.418,-4.3906,-4.4101,-4.3125,-4.0195,-4.1992,-4.3125,-4.2656,-4.418,-4.6172,-4.8476,-5.1211,-5.3945,-5.668,-5.8789,-6.0469,-6.168,-6.1719,-6.1719,-6.1719,-6.1719,-6.1719,-6.1719,-6.1719,-6.1719,-6.1719,-6.1719,-6.1719,-6.1719,-6.1719,-6.1719,-6.1719,-6.1719,-6.1719,-6.1719,-6.1719,-6.1579,-6.1392,-5.7383,-6.1445,-6.5156,-6.5664,-6.7969,-6.9609,-6.9258,-7.0469,-7.2265,-7.4765,-7.7383,-7.8984,-7.8984,-8.0976,-8.2304,-8.2304,-8.2304,-8.1367,-7.914,-8.1054,-8.0937,-7.7812,-7.8437,-7.7617,-7.5,-7.0742,-6.6406,-6.2031,-5.664,-5.2695,-5.0156,0.0,0.0,0.0,-4.9766,-5.2578,-5.5312,-6.2539,-6.668,-6.8515,-7.0195,-7.1328,-7.1992,-7.1992,-7.1445,-7.0586,-6.9805,-6.8437,-6.7031,-6.6953,-6.6914,-6.6914,-6.6914,-6.6914,-6.6914,-6.6914,-6.6367,-6.5742,-6.5625,-6.4414,-6.3125,-6.3047,-6.2344,-6.1328,-5.9844,-5.9531,-5.9531,-5.9531,-5.832,-5.7851,-5.9726,-5.539,-5.0234,-4.6172,-4.5508,-4.5273,-4.4648,-4.4922,-4.4609,-4.3086,-4.4218,0.0,-4.0391,-4.0937,-4.1445,-4.1211,-4.2656,-4.4023,-4.5117,-4.9531,-5.2969,-5.5078,-5.7656,-5.9844,-6.1523,-6.164,-6.1679,-6.1719,-6.1679,-6.1679,-6.1719,-6.1719,-6.1719,-6.1719,-6.1719,-6.1719,-6.1719,-6.1719,-6.1719,-6.1719,-6.1719,-6.1719,-6.1719,-6.1679,-6.1512,-6.1283,-6.0586,-6.5,-6.8164,-6.6914,-6.9375,-7.2226,-7.4258,-7.4805,-7.5664,-7.7578,-8.0039,-8.164,-8.164,-8.2031,-8.2304,-8.2304,-8.2304,-8.2109,-8.164,-8.2031,-8.1719,-8.039,-8.0469,-7.9375,-7.6797,-7.25,-6.8164,-6.3828,-5.7226,-5.2695,-5.0156,-4.7539,-4.6289,0.0,0.0,-5.3711,-5.957,-6.3789,-6.6992,-6.9336,-7.1094,-7.1875,-7.1992,-7.1992,-7.1445,-7.0586,-6.9805,-6.8828,-6.7851,-6.7148,-6.6914,-6.6914,-6.6914,-6.6914,-6.6914,-6.6914,-6.6797,-6.6523,-6.5781,-6.4844,-6.3906,-6.3164,-6.2344,-6.1601,-6.1328,-6.125,-6.125,-6.125,-6.1015,-6.0312,-5.8633,-5.5117,-5.1523,-4.8672,-4.8203,-4.8398,-4.8984,-4.7344,-4.5976,-4.5664,-4.577,-4.4593,-4.1289,-4.2344,-4.2695,-4.1289,-4.2109,-4.3633,-4.5937,-4.7617,-5.0273,-5.4101,-5.6758,-5.8945,-6.0625,-6.1232,-6.1584,-6.1719,-6.1582,-6.1584,-6.1719,-6.1719,-6.1719,-6.1719,-6.1719,-6.1719,-6.1719,-6.1719,-6.1719,-6.1719,-6.1719,-6.1719,-6.1679,-6.1579,-6.146,-6.1283,-6.6719,-6.9062,-7.082,-7.0898,-7.3008,-7.5273,-7.6992,-7.8359,-7.9062,-7.8555,-7.957,-8.0312,-8.0312,-8.1523,-8.2304,-8.2304,-8.2304,-8.2304,-8.2304,-8.2304,-8.2109,-8.1679,-8.125,-8.0039,-7.793,-7.4062,-6.9726,-6.4961,-5.8945,-5.4258,-5.0781,-4.8164,-4.6953,-4.7148,-5.0625,-5.5234,-6.0586,-6.3633,-6.6406,-6.8945,-7.0625,-7.1601,-7.1992,-7.1992,-7.1758,-7.125,-7.043,-6.957,-6.8633,-6.7344,-6.6914,-6.6914,-6.6914,-6.6914,-6.6914,-6.6914,-6.6914,-6.6797,-6.6406,-6.5269,-6.409,-6.375,-6.2613,-6.1591,-6.1679,-6.1719,-6.1719,-6.1719,-6.1719,-6.0898,-5.823,-5.4886,-5.2101,-5.0954,-4.9673,-4.9134,-5.0078,-4.8711,-4.7305,-4.6406,-4.6247,-4.5034,-4.2109,-4.2969,-4.2617,-4.0039,-4.1055,-4.25,-4.418,-4.6406,-4.9375,-5.3203,-5.5859,-5.8242,-6.039,-6.1145,-6.1575,-6.1719,-6.1575,-6.1577,-6.1719,-6.1719,-6.1719,-6.1719,-6.1719,-6.1719,-6.1719,-6.1719,-6.1719,-6.1719,-6.1719,-6.1719,-6.1679,-6.1568,-6.1404,-6.1277,-7.1992,-7.2734,-7.3476,-7.4687,-7.6445,-7.7969,-7.8633,-8.0781,-8.1562,-7.957,-7.9297,-7.9297,-7.9297,-8.1094,-8.2304,-8.2304,-8.2304,-8.2304,-8.2304,-8.2304,-8.2304,-8.2304,-8.164,-8.0586,-7.9062,-7.582,-7.1601,-6.6406,-6.125,-5.6406,-5.1914,-4.9531,-4.8594,-4.9101,-5.2891,-5.6953,-6.1133,-6.375,-6.6367,-6.8867,-7.0351,-7.1406,-7.1992,-7.1992,-7.1992,-7.1875,-7.1015,-7.0273,-6.9414,-6.7734,-6.7031,-6.6914,-6.6914,-6.6914,-6.6914,-6.6914,-6.6914,-6.6875,-6.6834,-6.5487,-6.4133,-6.4163,-6.2822,-6.1515,-6.1585,-6.1677,-6.1679,-6.1632,-6.1591,-6.076,-5.8048,-5.5433,-5.3419,-5.2614,-5.0959,-4.9934,-5.039,-4.957,-4.832,-4.6717,-4.6053,-4.4919,-4.2804,-4.2574,-4.1599,-3.9294,-4.0429,-4.1719,-4.2891,-4.5547,-4.8633,-5.207,-5.4883,-5.7383,-5.957,-6.082,-6.1525,-6.1719,-6.1522,-6.1525,-6.1719,-6.1719,-6.1719,-6.1719,-6.1719,-6.1719,-6.1719,-6.1719,-6.1719,-6.1719,-6.1719,-6.1719,-6.1679,-6.1512,-6.1383,-6.1259,-7.3164,-7.5078,-7.6523,-7.5898,-7.7812,-7.9492,-7.957,-8.1133,-8.2226,-8.1992,-8.1953,-8.1953,-8.1953,-8.2148,-8.2304,-8.2304,-8.2304,-8.2304,-8.2304,-8.2304,-8.2304,-8.2304,-8.2226,-8.1758,-8.0781,-7.8164,-7.4297,-6.9023,-6.3867,-5.875,-5.3711,-5.1914,-5.1875,-5.3476,-5.5469,-5.875,-6.293,-6.5547,-6.8125,-7.0547,-7.1484,-7.1914,-7.1992,-7.1992,-7.1992,-7.1875,-7.1015,-7.0664,-7.0312,-6.8633,-6.7539,-6.6914,-6.6914,-6.6914,-6.6914,-6.6914,-6.6914,-6.6874,-6.6683,-6.5376,-6.4067,-6.3891,-6.2652,-6.1485,-6.1354,-6.1517,-6.1633,-6.1378,-6.1328,-6.0539,-5.7898,-5.7781,-5.6889,-5.3121,-5.2947,-5.2856,-5.1484,-4.9922,-4.8513,-4.7432,-4.5275,-4.3729,-4.3335,-4.0624,-3.9412,-4.0662,-4.1049,-4.2226,-4.4648,-4.5078,-4.6836,-5.0312,-5.3672,-5.5937,-5.6953,-5.9864,-6.1467,-6.1719,-6.1424,-6.1432,-6.1719,-6.1719,-6.1719,-6.1719,-6.1719,-6.1719,-6.1719,-6.1719,-6.1719,-6.1719,-6.1719,-6.1719,-6.1678,-6.14,-6.1301,-6.124,-7.7148,-7.7187,-7.7578,-7.875,-7.8984,-7.9492,-8.1015,-8.1836,-8.2304,-8.2304,-8.2304,-8.2304,-8.2304,-8.2304,-8.2304,-8.2304,-8.2304,-8.2304,-8.2304,-8.2304,-8.2304,-8.2304,-8.2304,-8.1875,-8.1015,-7.9023,-7.5664,-7.0976,-6.6328,-6.168,-5.707,-5.4805,-5.4687,-5.6445,-5.9219,-6.1992,-6.4726,-6.7344,-6.9336,-7.0781,-7.164,-7.1992,-7.1992,-7.1992,-7.1992,-7.1953,-7.1601,-7.1133,-7.0586,-6.9922,-6.8789,-6.7578,-6.707,-6.6914,-6.6914,-6.6914,-6.6792,-6.6692,-6.6625,-6.5241,-6.3845,-6.3955,-6.258,-6.1238,-6.1387,-6.1424,-6.1417,-6.1312,-6.1207,-6.081,-5.9754,-5.8117,-5.6698,-5.6207,-5.4728,-5.3497,-5.2901,-5.1441,-4.9841,-4.8363,-4.6362,-4.485,-4.4245,-4.2015,-4.1162,-4.2451,-4.0735,-4.0742,-4.3281,-4.4414,-4.6367,-4.9336,-5.3242,-5.5703,-5.6601,-5.9792,-6.1512,-6.1719,-6.1509,-6.1512,-6.1719,-6.1719,-6.1719,-6.1719,-6.1719,-6.1719,-6.1719,-6.1719,-6.1719,-6.1719,-6.1719,-6.1637,-6.1571,-6.1359,-6.1227,-6.1089,-8.0039,-7.914,-7.8984,-8.1015,-8.039,-8.0234,-8.2031,-8.2304,-8.2304,-8.2304,-8.2304,-8.2304,-8.2304,-8.2304,-8.2304,-8.2304,-8.2304,-8.2304,-8.2304,-8.2304,-8.2304,-8.2304,-8.2304,-8.1992,-8.1406,-7.9961,-7.7344,-7.3515,-6.9726,-6.5664,-6.1406,-5.8789,-5.8476,-6.0273,-6.2969,-6.5117,-6.6875,-6.8945,-7.0312,-7.1133,-7.1758,-7.1992,-7.1992,-7.1992,-7.1992,-7.1992,-7.1992,-7.1601,-7.1055,-7.0781,-6.9922,-6.875,-6.7617,-6.7109,-6.6914,-6.6914,-6.679,-6.6678,-6.6553,-6.531,-6.4016,-6.3884,-6.2609,-6.1375,-6.1316,-6.1301,-6.1271,-6.1227,-6.1056,-6.0935,-6.0935,-5.8508,-5.675,-5.7607,-5.5804,-5.3979,-5.313,-5.2049,-5.0692,-4.8907,-4.6715,-4.5273,-4.5055,-4.3013,-4.2307,-4.3743,-4.1476,-4.1045,-4.3437,-4.4412,-4.6245,-4.9096,-5.3072,-5.5606,-5.6426,-5.9778,-6.1507,-6.1635,-6.1566,-6.1577,-6.1719,-6.1719,-6.1719,-6.1719,-6.1719,-6.1719,-6.1719,-6.1719,-6.1719,-6.1719,-6.1719,-6.1631,-6.1495,-6.1339,-6.1179,-6.097,-8.082,-8.0976,-8.125,-8.2148,-8.2265,-8.2265,-8.2304,-8.2304,-8.2304,-8.2304,-8.2304,-8.2304,-8.2304,-8.2304,-8.2304,-8.2304,-8.2304,-8.2304,-8.2304,-8.2304,-8.2304,-8.2304,-8.2304,-8.2304,-8.2265,-8.1406,-7.9726,-7.7148,-7.4492,-7.1015,-6.6758,-6.414,-6.3828,-6.5547,-6.6445,-6.7773,-6.9414,-7.0312,-7.1172,-7.1992,-7.1992,-7.1992,-7.1992,-7.1992,-7.1992,-7.1992,-7.1992,-7.1992,-7.1836,-7.0976,-7.0703,-7.039,-6.8711,-6.7578,-6.6914,-6.6914,-6.6914,-6.683,-6.6473,-6.577,-6.4789,-6.361,-6.2776,-6.2046,-6.1015,-6.1053,-6.124,-6.1048,-6.0913,-6.0793,-6.0793,-5.9396,-5.7779,-5.6179,-5.5899,-5.4802,-5.1674,-5.123,-5.0569,-4.8903,-4.5699,-4.4192,-4.566,-4.2781,-4.1854,-4.4305,-4.3785,-4.4199,-4.6132,-4.533,-4.635,-4.9784,-5.3169,-5.5291,-5.6103,-5.9571,-6.1364,-6.1504,-6.1504,-6.1577,-6.1719,-6.1719,-6.1719,-6.1719,-6.1719,-6.1719,-6.1719,-6.1719,-6.1719,-6.1719,-6.1719,-6.1631,-6.1495,-6.1339,-6.1179,-6.097,-8.1836,-8.1875,-8.1953,-8.2265,-8.2304,-8.2304,-8.2304,-8.2304,-8.2304,-8.2304,-8.2304,-8.2304,-8.2304,-8.2304,-8.2304,-8.2304,-8.2304,-8.2304,-8.2304,-8.2304,-8.2304,-8.2304,-8.2304,-8.2304,-8.2304,-8.1445,-8.0312,-7.8906,-7.5742,-7.2265,-6.8594,-6.8359,-6.8555,-6.914,-7.0625,-7.1562,-7.207,-7.2344,-7.2617,-7.2812,-7.2226,-7.1992,-7.1992,-7.1992,-7.1992,-7.1992,-7.1992,-7.1992,-7.1953,-7.168,-7.1172,-7.0625,-7.0078,-6.8945,-6.7656,-6.707,-6.679,-6.6631,-6.6446,-6.5676,-6.4795,-6.4425,-6.3229,-6.2105,-6.1852,-6.137,-6.0953,-6.0871,-6.0811,-6.0781,-6.0781,-5.9435,-5.8149,-5.7608,-5.6616,-5.5141,-5.3003,-5.236,-5.1193,-4.8715,-4.7017,-4.5959,-4.5704,-4.4152,-4.3786,-4.5292,-4.4059,-4.3826,-4.5059,-4.7054,-4.863,-4.972,-5.4212,-5.6773,-5.712,-5.9974,-6.1507,-6.1634,-6.1527,-6.1515,-6.1575,-6.1575,-6.1591,-6.1719,-6.1719,-6.1719,-6.1719,-6.1719,-6.1719,-6.1719,-6.1719,-6.1573,-6.1349,-6.1306,-6.1089,-6.0877,-8.2304,-8.2304,-8.2304,-8.2304,-8.2304,-8.2304,-8.2304,-8.2304,-8.2304,-8.2304,-8.2304,-8.2304,-8.2304,-8.2304,-8.2304,-8.2304,-8.2304,-8.2304,-8.2304,-8.2304,-8.2304,-8.2304,-8.2304,-8.2304,-8.2304,-8.1758,-8.1054,-8.0195,-7.7109,-7.4453,-7.2344,-7.2226,-7.2148,-7.2226,-7.3281,-7.3789,-7.3789,-7.3789,-7.3789,-7.375,-7.3203,-7.2969,-7.293,-7.2617,-7.25,-7.2461,-7.2109,-7.1992,-7.1992,-7.1992,-7.164,-7.1133,-7.0781,-6.9961,-6.8906,-6.7734,-6.7064,-6.668,-6.6507,-6.5933,-6.5295,-6.4888,-6.3664,-6.2406,-6.186,-6.1263,-6.0781,-6.0781,-6.0781,-6.0781,-6.0781,-5.9435,-5.8319,-5.8319,-5.6647,-5.4895,-5.3576,-5.2496,-5.1128,-4.9108,-4.8427,-4.7714,-4.67,-4.6677,-4.684,-4.7125,-4.6739,-4.6583,-4.6881,-4.8651,-5.0118,-5.1049,-5.5394,-5.7942,-5.8408,-6.0413,-6.1498,-6.1632,-6.1525,-6.1485,-6.1413,-6.1488,-6.1566,-6.1632,-6.1679,-6.1719,-6.1719,-6.1719,-6.1719,-6.1719,-6.1719,-6.1522,-6.1283,-6.1283,-6.1087,-6.0781,-8.2304,-8.2304,-8.2304,-8.2304,-8.2304,-8.2304,-8.2304,-8.2304,-8.2304,-8.2304,-8.2304,-8.2304,-8.2304,-8.2304,-8.2304,-8.2304,-8.2304,-8.2304,-8.2304,-8.2304,-8.2304,-8.2304,-8.2304,-8.2304,-8.2304,-8.2304,-8.1875,-8.1015,-7.8633,-7.7383,-7.7265,-7.5625,-7.4844,-7.4765,-7.4765,-7.4765,-7.4765,-7.4726,-7.4687,-7.4687,-7.4609,-7.4609,-7.4492,-7.3633,-7.3281,-7.3203,-7.2305,-7.1992,-7.1992,-7.1992,-7.1992,-7.1875,-7.1055,-7.0742,-7.0351,-6.8672,-6.7617,-6.6912,-6.667,-6.6493,-6.6146,-6.5148,-6.4078,-6.2897,-6.1243,-6.0819,-6.0781,-6.0781,-6.0781,-6.0781,-6.0781,-5.9435,-5.8319,-5.8319,-5.6165,-5.4246,-5.3506,-5.1982,-5.0692,-4.9948,-4.9802,-4.9427,-4.8568,-4.983,-5.0366,-4.9548,-5.0933,-5.151,-5.0827,-5.0306,-5.1091,-5.3489,-5.6693,-5.8883,-5.9882,-6.0805,-6.1344,-6.1495,-6.1501,-6.1421,-6.1306,-6.1424,-6.1507,-6.1515,-6.1636,-6.1719,-6.1719,-6.1719,-6.1719,-6.1719,-6.1719,-6.1522,-6.1283,-6.1283,-6.1087,-6.0781,-8.2304,-8.2304,-8.2304,-8.2304,-8.2304,-8.2304,-8.2304,-8.2304,-8.2304,-8.2304,-8.2304,-8.2304,-8.2304,-8.2304,-8.2304,-8.2304,-8.2304,-8.2304,-8.2304,-8.2304,-8.2304,-8.2304,-8.2304,-8.2304,-8.2304,-8.2304,-8.1875,-8.1015,-8.039,-7.9453,-7.8164,-7.7773,-7.7226,-7.6562,-7.6562,-7.6562,-7.6523,-7.5859,-7.5586,-7.5547,-7.4883,-7.4609,-7.4492,-7.3633,-7.3281,-7.3203,-7.2305,-7.1992,-7.1992,-7.1992,-7.1992,-7.1953,-7.1758,-7.125,-7.0351,-6.8672,-6.8047,-6.7691,-6.6707,-6.6418,-6.6274,-6.576,-6.4458,-6.3051,-6.2012,-6.1293,-6.0781,-6.0781,-6.0781,-6.0781,-6.0781,-5.9435,-5.8319,-5.8319,-5.6165,-5.4223,-5.3359,-5.2983,-5.219,-5.0653,-5.1091,-5.113,-5.0228,-5.0471,-5.0596,-5.0404,-5.0741,-5.1164,-5.1587,-5.3291,-5.4515,-5.5132,-5.7802,-5.9693,-6.0726,-6.094,-6.1179,-6.1339,-6.1432,-6.1491,-6.1432,-6.1495,-6.1571,-6.1638,-6.1679,-6.1719,-6.1719,-6.1719,-6.1719,-6.1719,-6.1719,-6.1522,-6.1283,-6.1283,-6.1087,-6.0781,-8.2383,-8.2617,-8.2773,-8.2383,-8.2304,-8.2304,-8.2304,-8.2304,-8.2304,-8.2304,-8.2304,-8.2304,-8.2304,-8.2304,-8.2304,-8.2304,-8.2304,-8.2304,-8.2304,-8.2304,-8.2304,-8.2304,-8.2304,-8.2304,-8.2304,-8.2304,-8.207,-8.1601,-8.1211,-8.0547,-7.9648,-7.8867,-7.8242,-7.7773,-7.7383,-7.7187,-7.7187,-7.6719,-7.6484,-7.6445,-7.5976,-7.5781,-7.5703,-7.4805,-7.4258,-7.3789,-7.289,-7.2344,-7.1992,-7.1992,-7.1992,-7.1992,-7.1992,-7.168,-7.1055,-6.9726,-6.8789,-6.8043,-6.7282,-6.6758,-6.622,-6.5489,-6.4282,-6.3089,-6.2281,-6.1435,-6.0781,-6.0781,-6.0781,-6.0781,-6.0781,-5.9435,-5.8165,-5.778,-5.5588,-5.3587,-5.2741,-5.2665,-5.2355,-5.1376,-5.2752,-5.3388,-5.253,-5.3136,-5.3251,-5.2472,-5.2779,-5.3164,-5.3626,-5.5703,-5.6703,-5.6329,-5.8781,-6.0387,-6.0997,-6.1097,-6.1193,-6.1289,-6.1364,-6.1396,-6.14,-6.1485,-6.1525,-6.1629,-6.1679,-6.1719,-6.1719,-6.1719,-6.1719,-6.1719,-6.1719,-6.1522,-6.1283,-6.1283,-6.1087,-6.0781,-8.2461,-8.3008,-8.332,-8.2461,-8.2422,-8.2461,-8.2304,-8.2304,-8.2304,-8.2304,-8.2304,-8.2304,-8.2304,-8.2304,-8.2304,-8.2304,-8.2304,-8.2304,-8.2304,-8.2304,-8.2304,-8.2304,-8.2304,-8.2304,-8.2304,-8.2304,-8.2304,-8.2304,-8.1562,-8.1133,-8.0976,-7.9531,-7.875,-7.8476,-7.7734,-7.7305,-7.7187,-7.7187,-7.7187,-7.7187,-7.7187,-7.7187,-7.7109,-7.6211,-7.543,-7.4687,-7.3828,-7.293,-7.2187,-7.2187,-7.2109,-7.1992,-7.1992,-7.1992,-7.1836,-7.1094,-6.9805,-6.8474,-6.7991,-6.7119,-6.6065,-6.5041,-6.4128,-6.3281,-6.2474,-6.1589,-6.0973,-6.0819,-6.0781,-6.0781,-6.0781,-5.9511,-5.8165,-5.7176,-5.5049,-5.3203,-5.2038,-5.2115,-5.2269,-5.2269,-5.4434,-5.5665,-5.5126,-5.6252,-5.6483,-5.5164,-5.5588,-5.5934,-5.6088,-5.7627,-5.8127,-5.7407,-5.9588,-6.0828,-6.0982,-6.1158,-6.1253,-6.1253,-6.1277,-6.1283,-6.1289,-6.1421,-6.1504,-6.1507,-6.1635,-6.1679,-6.1678,-6.1678,-6.1678,-6.1678,-6.1678,-6.152,-6.1318,-6.1295,-6.1103,-6.085,-8.2344,-8.3008,-8.332,-8.2461,-8.289,-8.3164,-8.2422,-8.2304,-8.2304,-8.2304,-8.2304,-8.2304,-8.2304,-8.2304,-8.2304,-8.2304,-8.2304,-8.2304,-8.2304,-8.2304,-8.2304,-8.2304,-8.2304,-8.2304,-8.2304,-8.2304,-8.2304,-8.2304,-8.2148,-8.1719,-8.0976,-8.0742,-7.9844,-7.8476,-7.8359,-7.789,-7.7187,-7.7187,-7.7187,-7.7187,-7.7187,-7.7187,-7.7109,-7.6211,-7.582,-7.5586,-7.4726,-7.3828,-7.3086,-7.3086,-7.2617,-7.1992,-7.1992,-7.1992,-7.1953,-7.1836,-7.1094,-6.9918,-6.8218,-6.6868,-6.5916,-6.573,-6.5051,-6.4166,-6.332,-6.2474,-6.1678,-6.0935,-6.0781,-6.0781,-6.0781,-5.9973,-5.8819,-5.7253,-5.6049,-5.4511,-5.2231,-5.3164,-5.4087,-5.4087,-5.5703,-5.7049,-5.7665,-5.728,-5.7214,-5.7665,-5.7126,-5.7126,-5.7857,-5.8819,-5.9242,-5.9127,-6.0204,-6.0804,-6.0823,-6.0973,-6.1056,-6.1056,-6.122,-6.1283,-6.1289,-6.1421,-6.1504,-6.1507,-6.1635,-6.1634,-6.152,-6.152,-6.152,-6.152,-6.152,-6.1507,-6.1474,-6.1334,-6.1158,-6.0954,-8.3164,-8.3711,-8.3867,-8.2539,-8.2617,-8.2773,-8.2344,-8.2304,-8.2304,-8.2304,-8.2304,-8.2304,-8.2304,-8.2304,-8.2304,-8.2304,-8.2304,-8.2304,-8.2304,-8.2304,-8.2304,-8.2304,-8.2304,-8.2304,-8.2304,-8.2304,-8.2304,-8.2304,-8.2304,-8.2109,-8.1679,-8.1211,-8.0586,-7.9805,-7.8906,-7.8281,-7.7851,-7.7383,-7.7187,-7.7187,-7.7187,-7.7187,-7.7148,-7.6758,-7.6328,-7.5859,-7.543,-7.4683,-7.3771,-7.3436,-7.2964,-7.2483,-7.2108,-7.1992,-7.1992,-7.1992,-7.1233,-7.0025,-6.8187,-6.7135,-6.6436,-6.6013,-6.5243,-6.4474,-6.4089,-6.3012,-6.1985,-6.1601,-6.1127,-6.0781,-6.0781,-6.0089,-5.9088,-5.7896,-5.6549,-5.5126,-5.3549,-5.4357,-5.5164,-5.5164,-5.7049,-5.8511,-5.8896,-5.8588,-5.8511,-5.8934,-5.8165,-5.805,-5.8896,-5.9319,-5.9704,-6.0204,-6.0589,-6.0781,-6.0781,-6.085,-6.0945,-6.1006,-6.1105,-6.12,-6.1289,-6.1421,-6.1504,-6.1504,-6.1575,-6.1571,-6.1501,-6.1409,-6.1383,-6.1392,-6.1485,-6.1474,-6.1378,-6.1312,-6.1179,-6.097,-8.3906,-8.4297,-8.4336,-8.2617,-8.2461,-8.2539,-8.2344,-8.2304,-8.2304,-8.2304,-8.2304,-8.2304,-8.2304,-8.2304,-8.2304,-8.2304,-8.2304,-8.2304,-8.2304,-8.2304,-8.2304,-8.2304,-8.2304,-8.2304,-8.2304,-8.2304,-8.2304,-8.2304,-8.2304,-8.2304,-8.2304,-8.1601,-8.1172,-8.0937,-7.9648,-7.8867,-7.8476,-7.7773,-7.7383,-7.7187,-7.7187,-7.7187,-7.7187,-7.7187,-7.6797,-7.6211,-7.6211,-7.5493,-7.4506,-7.4011,-7.3451,-7.2903,-7.237,-7.2147,-7.1992,-7.1992,-7.1309,-7.0129,-6.8423,-6.7561,-6.6898,-6.609,-6.5397,-6.4859,-6.4666,-6.3589,-6.2563,-6.2178,-6.1562,-6.105,-6.0819,-6.0242,-5.9473,-5.8473,-5.7319,-5.6165,-5.4934,-5.5665,-5.628,-5.628,-5.8204,-5.9588,-5.9781,-5.9819,-5.9819,-5.9819,-5.9242,-5.9165,-5.9781,-5.9819,-6.0127,-6.0781,-6.0781,-6.0781,-6.0781,-6.0781,-6.0867,-6.0954,-6.0954,-6.1014,-6.1172,-6.1369,-6.1432,-6.1474,-6.1495,-6.1491,-6.1424,-6.1295,-6.1253,-6.1301,-6.14,-6.1413,-6.1378,-6.1312,-6.1207,-6.104,-8.3789,-8.4297,-8.4336,-8.2617,-8.2969,-8.3242,-8.2422,-8.2304,-8.2304,-8.2304,-8.2304,-8.2304,-8.2304,-8.2304,-8.2304,-8.2304,-8.2304,-8.2304,-8.2304,-8.2304,-8.2304,-8.2304,-8.2304,-8.2304,-8.2304,-8.2304,-8.2304,-8.2304,-8.2304,-8.2304,-8.2304,-8.2226,-8.1758,-8.0976,-8.0859,-7.9961,-7.8515,-7.8437,-7.793,-7.7187,-7.7187,-7.7187,-7.7187,-7.7187,-7.7148,-7.7109,-7.7109,-7.6393,-7.5514,-7.5439,-7.4343,-7.3009,-7.2942,-7.2481,-7.1992,-7.1992,-7.1735,-7.1018,-6.928,-6.7958,-6.6898,-6.609,-6.5859,-6.559,-6.4782,-6.4512,-6.3974,-6.2409,-6.2062,-6.1755,-6.0935,-6.0742,-6.0165,-5.855,-5.8819,-5.8396,-5.5934,-5.7049,-5.8127,-5.8127,-5.8934,-5.9819,-6.0627,-6.0704,-6.0704,-6.0704,-6.0666,-6.0627,-6.0704,-6.0704,-6.0742,-6.0781,-6.0781,-6.0781,-6.0781,-6.0781,-6.0793,-6.0816,-6.0816,-6.0827,-6.0834,-6.115,-6.1301,-6.1312,-6.1467,-6.1417,-6.1289,-6.1112,-6.1143,-6.1289,-6.1301,-6.1478,-6.1635,-6.1383,-6.1277,-6.122,-8.457,-8.4258,-8.3711,-8.25,-8.2578,-8.2695,-8.2344,-8.2304,-8.2304,-8.2304,-8.2304,-8.2304,-8.2304,-8.2304,-8.2304,-8.2304,-8.2304,-8.2304,-8.2304,-8.2304,-8.2304,-8.2304,-8.2304,-8.2304,-8.2304,-8.2304,-8.2304,-8.2304,-8.2304,-8.2304,-8.2304,-8.2304,-8.2109,-8.1797,-8.125,-8.0664,-7.9961,-7.8945,-7.832,-7.7969,-7.7422,-7.7187,-7.7187,-7.7187,-7.7187,-7.7187,-7.7187,-7.6761,-7.6148,-7.5721,-7.507,-7.435,-7.3926,-7.3338,-7.2695,-7.2148,-7.1774,-7.1251,-7.0019,-6.884,-6.7705,-6.6859,-6.6282,-6.582,-6.5474,-6.4974,-6.4436,-6.3782,-6.2832,-6.1985,-6.1678,-6.1166,-6.0589,-5.9935,-5.9665,-5.9165,-5.8204,-5.8627,-5.905,-5.905,-5.9781,-6.0435,-6.0781,-6.0781,-6.0781,-6.0781,-6.0781,-6.0781,-6.0781,-6.0781,-6.0781,-6.0781,-6.0781,-6.0781,-6.0781,-6.0781,-6.0781,-6.0781,-6.0781,-6.0781,-6.0804,-6.1159,-6.1234,-6.1135,-6.1306,-6.1289,-6.1105,-6.0945,-6.0954,-6.112,-6.112,-6.1238,-6.1417,-6.122,-6.112,-6.1081,-8.4726,-8.4023,-8.332,-8.2461,-8.2304,-8.2304,-8.2304,-8.2304,-8.2304,-8.2304,-8.2304,-8.2304,-8.2304,-8.2304,-8.2304,-8.2304,-8.2304,-8.2304,-8.2304,-8.2304,-8.2304,-8.2304,-8.2304,-8.2304,-8.2304,-8.2304,-8.2304,-8.2304,-8.2304,-8.2304,-8.2304,-8.2304,-8.2304,-8.2265,-8.1679,-8.125,-8.0937,-7.9765,-7.8984,-7.8437,-7.7851,-7.7422,-7.7187,-7.7187,-7.7187,-7.7187,-7.7187,-7.6993,-7.6604,-7.615,-7.5732,-7.5318,-7.4862,-7.4041,-7.3164,-7.2578,-7.1969,-7.1368,-7.0791,-6.9731,-6.8552,-6.7398,-6.6667,-6.6205,-6.5974,-6.5436,-6.4936,-6.4666,-6.3705,-6.2716,-6.2216,-6.1601,-6.1127,-6.0819,-6.0281,-5.9896,-5.9896,-5.9896,-5.9896,-5.9896,-6.0435,-6.0781,-6.0781,-6.0781,-6.0781,-6.0781,-6.0781,-6.0781,-6.0781,-6.0781,-6.0781,-6.0781,-6.0781,-6.0781,-6.0781,-6.0781,-6.0781,-6.0781,-6.0781,-6.0781,-6.0804,-6.1095,-6.1135,-6.1006,-6.115,-6.1135,-6.0979,-6.0867,-6.0882,-6.0997,-6.0997,-6.1128,-6.1265,-6.1081,-6.0997,-6.097,-8.3945,-8.3594,-8.332,-8.2461,-8.2304,-8.2304,-8.2304,-8.2304,-8.2304,-8.2304,-8.2304,-8.2304,-8.2304,-8.2304,-8.2304,-8.2304,-8.2304,-8.2304,-8.2304,-8.2304,-8.2304,-8.2304,-8.2304,-8.2304,-8.2304,-8.2304,-8.2304,-8.2304,-8.2304,-8.2304,-8.2304,-8.2304,-8.2304,-8.2304,-8.2304,-8.1836,-8.1015,-8.1015,-8.0039,-7.8515,-7.8515,-7.8008,-7.7226,-7.7226,-7.7226,-7.7187,-7.7187,-7.7057,-7.6883,-7.6883,-7.6333,-7.5592,-7.5588,-7.4549,-7.332,-7.3281,-7.2438,-7.1517,-7.1517,-7.0612,-6.9283,-6.7552,-6.709,-6.6898,-6.609,-6.5897,-6.5628,-6.4782,-6.4589,-6.4089,-6.2447,-6.2101,-6.1831,-6.0973,-6.0819,-6.0819,-6.0819,-6.0781,-6.0781,-6.0781,-6.0781,-6.0781,-6.0781,-6.0781,-6.0781,-6.0781,-6.0781,-6.0781,-6.0781,-6.0781,-6.0781,-6.0781,-6.0781,-6.0781,-6.0781,-6.0781,-6.0781,-6.0781,-6.0781,-6.0781,-6.0793,-6.0925,-6.0997,-6.0997,-6.0997,-6.0997,-6.0979,-6.0828,-6.0882,-6.0997,-6.0997,-6.1128,-6.1265,-6.1081,-6.0997,-6.0961,-8.3711,-8.3125,-8.2617,-8.2344,-8.2304,-8.2304,-8.2304,-8.2304,-8.2304,-8.2304,-8.2304,-8.2304,-8.2304,-8.2304,-8.2304,-8.2304,-8.2304,-8.2304,-8.2304,-8.2304,-8.2304,-8.2304,-8.2304,-8.2304,-8.2304,-8.2304,-8.2304,-8.2304,-8.2304,-8.2304,-8.2304,-8.2304,-8.2304,-8.2304,-8.2304,-8.2148,-8.1875,-8.125,-8.0703,-8.0195,-7.9609,-7.8867,-7.8125,-7.8125,-7.7734,-7.7187,-7.7187,-7.7057,-7.6883,-7.6883,-7.6727,-7.6425,-7.5962,-7.5505,-7.4843,-7.3494,-7.2773,-7.2235,-7.1499,-7.0915,-7.0283,-6.9206,-6.8013,-6.7051,-6.6782,-6.632,-6.582,-6.5551,-6.5013,-6.4436,-6.3935,-6.3358,-6.2858,-6.2589,-6.2089,-6.1716,-6.1716,-6.1166,-6.0781,-6.0781,-6.0781,-6.0781,-6.0781,-6.0781,-6.0781,-6.0781,-6.0781,-6.0781,-6.0781,-6.0781,-6.0781,-6.0781,-6.0781,-6.0781,-6.0781,-6.0781,-6.0781,-6.0781,-6.0781,-6.0781,-6.0793,-6.0925,-6.0944,-6.085,-6.0963,-6.0944,-6.0877,-6.0827,-6.0882,-6.0988,-6.0884,-6.0974,-6.1073,-6.0905,-6.0839,-6.0867,-8.3164,-8.2656,-8.2304,-8.2304,-8.2304,-8.2304,-8.2304,-8.2304,-8.2304,-8.2304,-8.2304,-8.2304,-8.2304,-8.2304,-8.2304,-8.2304,-8.2304,-8.2304,-8.2304,-8.2304,-8.2304,-8.2304,-8.2304,-8.2304,-8.2304,-8.2304,-8.2304,-8.2304,-8.2304,-8.2304,-8.2304,-8.2304,-8.2304,-8.2304,-8.2304,-8.2304,-8.2265,-8.1758,-8.1328,-8.0937,-8.0429,-7.9726,-7.8984,-7.8984,-7.8437,-7.7695,-7.7695,-7.7417,-7.7005,-7.7005,-7.7005,-7.6933,-7.6522,-7.6172,-7.5663,-7.4476,-7.3523,-7.267,-7.2,-7.1374,-7.0783,-7.0283,-6.9129,-6.7936,-6.7244,-6.6705,-6.6282,-6.5974,-6.5474,-6.5013,-6.4666,-6.4166,-6.3705,-6.3346,-6.2897,-6.2551,-6.2551,-6.1858,-6.132,-6.132,-6.1012,-6.0781,-6.0781,-6.0781,-6.0781,-6.0781,-6.0781,-6.0781,-6.0781,-6.0781,-6.0781,-6.0781,-6.0781,-6.0781,-6.0781,-6.0781,-6.0781,-6.0781,-6.0781,-6.0781,-6.0793,-6.0892,-6.0882,-6.0793,-6.0892,-6.0871,-6.0781,-6.0781,-6.0856,-6.0915,-6.0823,-6.0856,-6.0915,-6.0811,-6.0781,-6.0781,-8.2461,-8.2304,-8.2304,-8.2304,-8.2304,-8.2304,-8.2304,-8.2304,-8.2304,-8.2304,-8.2304,-8.2304,-8.2304,-8.2304,-8.2304,-8.2304,-8.2304,-8.2304,-8.2304,-8.2304,-8.2304,-8.2304,-8.2304,-8.2304,-8.2304,-8.2304,-8.2304,-8.2304,-8.2304,-8.2304,-8.2304,-8.2304,-8.2304,-8.2304,-8.2304,-8.2304,-8.2304,-8.2304,-8.1836,-8.1133,-8.1133,-8.0586,-7.9765,-7.9765,-7.9258,-7.8515,-7.8437,-7.7851,-7.7187,-7.7187,-7.7187,-7.7187,-7.7187,-7.664,-7.6015,-7.5898,-7.4548,-7.3029,-7.284,-7.1939,-7.1016,-7.0912,-7.036,-6.936,-6.7705,-6.7282,-6.6974,-6.6167,-6.6013,-6.5743,-6.4897,-6.4705,-6.4474,-6.3666,-6.3462,-6.3423,-6.3423,-6.2704,-6.2216,-6.2216,-6.1512,-6.1012,-6.1012,-6.1012,-6.0973,-6.0935,-6.0935,-6.0858,-6.0781,-6.0781,-6.0781,-6.0781,-6.0781,-6.0781,-6.0781,-6.0781,-6.0781,-6.0781,-6.0781,-6.0781,-6.0781,-6.0781,-6.0781,-6.0781,-6.0781,-6.0781,-6.0781,-6.0781,-6.0781,-6.0781,-6.0781,-6.0781,-6.0781,-6.0781,-6.0781,-6.0781,-8.2344,-8.2304,-8.2304,-8.2304,-8.2304,-8.2304,-8.2304,-8.2304,-8.2304,-8.2304,-8.2304,-8.2304,-8.2304,-8.2304,-8.2304,-8.2304,-8.2304,-8.2304,-8.2304,-8.2304,-8.2304,-8.2304,-8.2304,-8.2304,-8.2304,-8.2304,-8.2304,-8.2304,-8.2304,-8.2304,-8.2304,-8.2304,-8.2304,-8.2304,-8.2304,-8.2304,-8.2304,-8.2304,-8.2187,-8.2031,-8.2031,-8.1367,-8.039,-8.039,-7.9726,-7.8711,-7.7812,-7.7344,-7.7187,-7.7187,-7.7187,-7.7187,-7.7187,-7.707,-7.6757,-7.5911,-7.5368,-7.4631,-7.3018,-7.2365,-7.1943,-7.1133,-7.0783,-7.0398,-6.936,-6.8629,-6.7898,-6.7013,-6.6821,-6.659,-6.5782,-6.5628,-6.5551,-6.5359,-6.4743,-6.432,-6.432,-6.3589,-6.3051,-6.3051,-6.2858,-6.2781,-6.2781,-6.2781,-6.2512,-6.187,-6.1831,-6.1524,-6.0819,-6.0781,-6.0781,-6.0781,-6.0781,-6.0781,-6.0781,-6.0781,-6.0781,-6.0781,-6.0781,-6.0781,-6.0781,-6.0781,-6.0781,-6.0781,-6.0781,-6.0781,-6.0781,-6.0781,-6.0781,-6.0781,-6.0781,-6.0781,-6.0781,-6.0781,-6.0781,-6.0781,-8.2304,-8.2304,-8.2304,-8.2304,-8.2304,-8.2304,-8.2304,-8.2304,-8.2304,-8.2304,-8.2304,-8.2304,-8.2304,-8.2304,-8.2304,-8.2304,-8.2304,-8.2304,-8.2304,-8.2304,-8.2304,-8.2304,-8.2304,-8.2304,-8.2304,-8.2304,-8.2304,-8.2304,-8.2304,-8.2304,-8.2304,-8.2304,-8.2304,-8.2304,-8.2304,-8.2304,-8.2304,-8.2304,-8.2304,-8.2304,-8.2304,-8.1953,-8.1406,-8.1406,-8.1054,-8.0312,-7.8633,-7.7656,-7.7187,-7.7187,-7.7187,-7.7187,-7.7187,-7.7187,-7.7109,-7.6512,-7.5915,-7.5212,-7.4125,-7.3101,-7.2211,-7.1645,-7.1206,-7.0706,-6.9898,-6.936,-6.8783,-6.7898,-6.7398,-6.6974,-6.6551,-6.6167,-6.5897,-6.5897,-6.5513,-6.5205,-6.5205,-6.4359,-6.3731,-6.3731,-6.3462,-6.3397,-6.3705,-6.3474,-6.3128,-6.2704,-6.2666,-6.2474,-6.2012,-6.1973,-6.1973,-6.1973,-6.1973,-6.1973,-6.1973,-6.1973,-6.1781,-6.1408,-6.1012,-6.0781,-6.0781,-6.0781,-6.0781,-6.0781,-6.0781,-6.0781,-6.0781,-6.0781,-6.0781,-6.0781,-6.0781,-6.0781,-6.0781,-6.0781,-6.0781,-6.0781,-8.2304,-8.2304,-8.2304,-8.2304,-8.2304,-8.2304,-8.2304,-8.2304,-8.2304,-8.2304,-8.2304,-8.2304,-8.2304,-8.2304,-8.2304,-8.2304,-8.2304,-8.2304,-8.2304,-8.2304,-8.2304,-8.2304,-8.2304,-8.2304,-8.2304,-8.2304,-8.2304,-8.2304,-8.2304,-8.2304,-8.2304,-8.2304,-8.2304,-8.2304,-8.2304,-8.2304,-8.2304,-8.2304,-8.2304,-8.2304,-8.2304,-8.2304,-8.2304,-8.2304,-8.2304,-8.2031,-8.0156,-7.8594,-7.7383,-7.7265,-7.7187,-7.7187,-7.7187,-7.7187,-7.7187,-7.7147,-7.6383,-7.5534,-7.5315,-7.3992,-7.2596,-7.2272,-7.1668,-7.0898,-7.009,-6.9898,-6.9667,-6.8821,-6.8052,-6.7513,-6.7359,-6.6667,-6.609,-6.609,-6.5974,-6.5897,-6.5897,-6.5089,-6.45,-6.45,-6.4038,-6.3935,-6.4448,-6.4051,-6.3666,-6.3538,-6.3512,-6.3474,-6.3308,-6.3308,-6.3308,-6.3308,-6.3308,-6.3308,-6.3308,-6.3308,-6.2974,-6.2281,-6.1435,-6.0935,-6.0781,-6.0781,-6.0781,-6.0781,-6.0781,-6.0781,-6.0781,-6.0781,-6.0781,-6.0781,-6.0781,-6.0781,-6.0781,-6.0781,-6.0781,-6.0781,-8.2304,-8.2304,-8.2304,-8.2304,-8.2304,-8.2304,-8.2304,-8.2304,-8.2304,-8.2304,-8.2304,-8.2304,-8.2304,-8.2304,-8.2304,-8.2304,-8.2304,-8.2304,-8.2304,-8.2304,-8.2304,-8.2304,-8.2304,-8.2304,-8.2304,-8.2304,-8.2304,-8.2304,-8.2304,-8.2304,-8.2304,-8.2304,-8.2304,-8.2304,-8.2304,-8.2304,-8.2304,-8.2304,-8.2304,-8.2304,-8.2304,-8.2304,-8.2304,-8.2304,-8.2304,-8.2265,-8.1953,-8.0312,-7.8203,-7.7461,-7.7187,-7.7187,-7.7187,-7.7187,-7.7187,-7.6998,-7.6805,-7.6425,-7.5322,-7.4834,-7.4247,-7.2596,-7.2091,-7.1783,-7.0937,-7.0744,-7.0514,-6.9706,-6.9436,-6.9129,-6.8359,-6.7513,-6.6936,-6.6936,-6.6359,-6.5897,-6.5897,-6.5782,-6.5667,-6.5667,-6.559,-6.559,-6.5667,-6.559,-6.5243,-6.4474,-6.4436,-6.4089,-6.3346,-6.3308,-6.3308,-6.3308,-6.3308,-6.3308,-6.3308,-6.3308,-6.3231,-6.3128,-6.232,-6.1524,-6.0781,-6.0781,-6.0781,-6.0781,-6.0781,-6.0781,-6.0781,-6.0781,-6.0781,-6.0781,-6.0781,-6.0781,-6.0781,-6.0781,-6.0781,-6.0781,-8.2304,-8.2304,-8.2304,-8.2304,-8.2304,-8.2304,-8.2304,-8.2304,-8.2304,-8.2304,-8.2304,-8.2304,-8.2304,-8.2304,-8.2304,-8.2304,-8.2304,-8.2304,-8.2304,-8.2304,-8.2304,-8.2304,-8.2304,-8.2304,-8.2304,-8.2304,-8.2304,-8.2304,-8.2304,-8.2304,-8.2304,-8.2304,-8.2304,-8.2304,-8.2304,-8.2304,-8.2304,-8.2304,-8.2304,-8.2304,-8.2304,-8.2304,-8.2304,-8.2304,-8.2304,-8.2226,-8.1758,-8.0234,-7.8437,-7.8047,-7.7617,-7.7187,-7.7187,-7.7187,-7.7147,-7.6945,-7.6839,-7.6612,-7.5905,-7.5279,-7.4642,-7.3787,-7.2899,-7.2091,-7.1706,-7.1245,-7.0783,-7.0437,-7.0014,-6.959,-6.9206,-6.8398,-6.7667,-6.7167,-6.6782,-6.6397,-6.5974,-6.5897,-6.5897,-6.5897,-6.5897,-6.5897,-6.5897,-6.5897,-6.5743,-6.5359,-6.532,-6.5166,-6.4782,-6.4743,-6.4743,-6.4743,-6.4743,-6.4743,-6.4743,-6.4743,-6.4512,-6.4012,-6.3166,-6.232,-6.1524,-6.1012,-6.0781,-6.0781,-6.0781,-6.0781,-6.0781,-6.0781,-6.0781,-6.0781,-6.0781,-6.0781,-6.0781,-6.0781,-6.0781,-6.0781]},{"header":{"parameterUnit":"m.s-1","parameterCategory":1,"la1":30.6,"la2":28.766,"lo1":-90.7593,"lo2":-88.6598,"dy":0.0162,"dx":0.0183,"nx":116,"ny":114,"refTime":"2024-06-05T06:00:00:Z","depth":0,"parameterNumber":3,"parameterNumberName":"V-component_of_WINDS"},"data":[0.0,0.0,0.0,0.0,0.0,0.0,0.0,0.0,0.0,0.0,0.0,0.0,0.0,0.0,0.0,0.0,0.0,0.0,0.0,0.0,0.0,0.0,0.0,0.0,0.0,0.0,0.0,0.0,0.0,0.0,0.0,0.0,0.0,0.0,0.0,0.0,0.0,0.0,0.0,0.0,0.0,0.0,0.0,0.0,0.0,0.0,0.0,0.0,0.0,0.0,0.0,0.0,0.0,0.0,0.0,0.0,0.0,0.0,0.0,0.0,0.0,0.0,0.0,0.0,0.0,0.0,0.0,0.0,0.0,0.0,0.0,0.0,0.0,0.0,0.0,0.0,0.0,0.0,0.0,0.0,0.0,0.0,0.0,0.0,0.0,0.0,0.0,0.0,0.0,0.0,0.0,0.0,0.0,0.0,0.0,0.0,0.0,0.0,0.0,0.0,0.0,0.0,0.0,0.0,0.0,0.0,0.0,0.0,0.0,0.0,0.0,0.0,0.0,0.0,0.0,0.0,0.0,0.0,0.0,0.0,0.0,0.0,0.0,0.0,0.0,0.0,0.0,0.0,0.0,0.0,0.0,0.0,0.0,0.0,0.0,0.0,0.0,0.0,0.0,0.0,0.0,0.0,0.0,0.0,0.0,0.0,0.0,0.0,0.0,0.0,0.0,0.0,0.0,0.0,0.0,0.0,0.0,0.0,0.0,0.0,0.0,0.0,0.0,0.0,0.0,0.0,0.0,0.0,0.0,0.0,0.0,0.0,0.0,0.0,0.0,0.0,0.0,0.0,0.0,0.0,0.0,0.0,0.0,0.0,0.0,0.0,0.0,0.0,0.0,0.0,0.0,0.0,0.0,0.0,0.0,0.0,0.0,0.0,0.0,0.0,0.0,0.0,0.0,0.0,0.0,0.0,0.0,0.0,0.0,0.0,0.0,0.0,0.0,0.0,0.0,0.0,0.0,0.0,0.0,0.0,0.0,0.0,0.0,0.0,0.0,0.0,0.0,0.0,0.0,0.0,0.0,0.0,0.0,0.0,0.0,0.0,0.0,0.0,0.0,0.0,0.0,0.0,0.0,0.0,0.0,0.0,0.0,0.0,0.0,0.0,0.0,0.0,0.0,0.0,0.0,0.0,0.0,0.0,0.0,0.0,0.0,0.0,0.0,0.0,0.0,0.0,0.0,0.0,0.0,0.0,0.0,0.0,0.0,0.0,0.0,0.0,0.0,0.0,0.0,0.0,0.0,0.0,0.0,0.0,0.0,0.0,0.0,0.0,0.0,0.0,0.0,0.0,0.0,0.0,0.0,0.0,0.0,0.0,0.0,0.0,0.0,0.0,0.0,0.0,0.0,0.0,0.0,0.0,0.0,0.0,0.0,0.0,0.0,0.0,0.0,0.0,0.0,0.0,0.0,0.0,0.0,0.0,0.0,0.0,0.0,0.0,0.0,0.0,0.0,0.0,0.0,0.0,0.0,0.0,0.0,0.0,0.0,0.0,0.0,0.0,0.0,0.0,0.0,0.0,0.0,0.0,0.0,0.0,0.0,0.0,0.0,0.0,0.0,0.0,0.0,0.0,0.0,0.0,0.0,0.0,0.0,0.0,0.0,0.0,0.0,0.0,0.0,0.0,0.0,0.0,0.0,0.0,0.0,0.0,0.0,0.0,0.0,0.0,0.0,0.0,0.0,0.0,0.0,0.0,0.0,0.0,0.0,0.0,0.0,0.0,0.0,0.0,0.0,0.0,0.0,0.0,0.0,0.0,0.0,0.0,0.0,0.0,0.0,0.0,0.0,0.0,0.0,0.0,0.0,0.0,0.0,0.0,0.0,0.0,0.0,0.0,0.0,0.0,0.0,0.0,0.0,0.0,0.0,0.0,0.0,0.0,0.0,0.0,0.0,0.0,0.0,0.0,0.0,0.0,0.0,0.0,0.0,0.0,0.0,0.0,0.0,0.0,0.0,0.0,0.0,0.0,0.0,0.0,0.0,0.0,0.0,0.0,0.0,0.0,0.0,0.0,0.0,0.0,0.0,0.0,0.0,0.0,0.0,0.0,0.0,0.0,0.0,0.0,0.0,0.0,0.0,0.0,0.0,0.0,0.0,0.0,0.0,0.0,0.0,0.0,0.0,0.0,0.0,0.0,0.0,0.0,0.0,0.0,0.0,0.0,0.0,0.0,0.0,0.0,0.0,0.0,0.0,0.0,0.0,0.0,0.0,0.0,0.0,0.0,0.0,0.0,0.0,0.0,0.0,0.0,0.0,0.0,0.0,0.0,0.0,0.0,0.0,0.0,0.0,0.0,0.0,0.0,0.0,0.0,0.0,0.0,0.0,0.0,0.0,0.0,0.0,0.0,0.0,0.0,0.0,0.0,0.0,0.0,0.0,0.0,0.0,0.0,0.0,0.0,0.0,0.0,0.0,0.0,0.0,0.0,0.0,0.0,0.0,0.0,0.0,0.0,0.0,0.0,0.0,0.0,0.0,0.0,0.0,0.0,0.0,0.0,0.0,0.0,0.0,0.0,0.0,0.0,0.0,0.0,0.0,0.0,0.0,0.0,0.0,0.0,0.0,0.0,0.0,0.0,0.0,0.0,0.0,0.0,0.0,0.0,0.0,0.0,0.0,0.0,0.0,0.0,0.0,0.0,0.0,0.0,0.0,0.0,0.0,0.0,0.0,0.0,0.0,0.0,0.0,0.0,0.0,0.0,0.0,0.0,0.0,0.0,0.0,0.0,0.0,0.0,0.0,0.0,0.0,0.0,0.0,0.0,0.0,0.0,0.0,0.0,0.0,0.0,0.0,0.0,0.0,0.0,0.0,0.0,0.0,0.0,0.0,0.0,0.0,0.0,0.0,0.0,0.0,0.0,0.0,0.0,0.0,0.0,0.0,0.0,0.0,0.0,0.0,0.0,0.0,0.0,0.0,0.0,0.0,0.0,0.0,0.0,0.0,0.0,0.0,0.0,0.0,0.0,0.0,0.0,0.0,0.0,0.0,0.0,0.0,0.0,0.0,0.0,0.0,0.0,0.0,0.0,0.0,0.0,0.0,0.0,0.0,0.0,0.0,0.0,0.0,0.0,0.0,0.0,0.0,0.0,0.0,0.0,0.0,0.0,0.0,0.0,0.0,0.0,0.0,0.0,0.0,0.0,0.0,0.0,0.0,0.0,0.0,0.0,0.0,0.0,0.0,0.0,0.0,0.0,0.0,0.0,0.0,0.0,0.0,0.0,0.0,0.0,0.0,0.0,0.0,0.0,0.0,0.0,0.0,0.0,0.0,0.0,0.0,0.0,0.0,0.0,0.0,0.0,0.0,0.0,0.0,0.0,0.0,0.0,0.0,0.0,0.0,0.0,0.0,0.0,0.0,0.0,0.0,0.0,0.0,0.0,0.0,0.0,0.0,0.0,0.0,0.0,0.0,0.0,0.0,0.0,0.0,0.0,0.0,0.0,0.0,0.0,0.0,0.0,0.0,0.0,0.0,0.0,0.0,0.0,0.0,0.0,0.0,0.0,0.0,0.0,0.0,0.0,0.0,0.0,0.0,0.0,0.0,0.0,0.0,0.0,0.0,0.0,0.0,0.0,0.0,0.0,0.0,0.0,0.0,0.0,0.0,0.0,0.0,0.0,0.0,0.0,0.0,0.0,0.0,0.0,0.0,0.0,0.0,0.0,0.0,0.0,0.0,0.0,0.0,0.0,0.0,0.0,0.0,0.0,0.0,0.0,0.0,0.0,0.0,0.0,0.0,0.0,0.0,0.0,0.0,0.0,0.0,0.0,0.0,0.0,0.0,0.0,0.0,0.0,0.0,0.0,0.0,0.0,0.0,0.0,0.0,0.0,0.0,0.0,0.0,0.0,0.0,0.0,0.0,0.0,0.0,0.0,0.0,0.0,0.0,0.0,0.0,0.0,0.0,0.0,0.0,0.0,0.0,0.0,0.0,0.0,0.0,0.0,0.0,0.0,0.0,0.0,0.0,0.0,0.0,0.0,0.0,0.0,0.0,0.0,0.0,0.0,0.0,0.0,0.0,0.0,0.0,0.0,0.0,0.0,0.0,0.0,0.0,0.0,0.0,0.0,0.0,0.0,0.0,0.0,0.0,0.0,0.0,0.0,0.0,0.0,0.0,0.0,0.0,0.0,0.0,0.0,0.0,0.0,0.0,0.0,0.0,0.0,0.0,0.0,0.0,0.0,0.0,0.0,0.0,0.0,0.0,0.0,0.0,0.0,0.0,0.0,0.0,0.0,0.0,0.0,0.0,0.0,0.0,0.0,0.0,0.0,0.0,0.0,0.0,0.0,0.0,0.0,0.0,0.0,0.0,0.0,0.0,0.0,0.0,0.0,0.0,0.0,0.0,0.0,0.0,0.0,0.0,0.0,0.0,0.0,0.0,0.0,0.0,0.0,0.0,0.0,0.0,0.0,0.0,0.0,0.0,0.0,0.0,0.0,0.0,0.0,0.0,0.0,0.0,0.0,0.0,0.0,0.0,0.0,0.0,0.0,0.0,0.0,0.0,0.0,0.0,0.0,0.0,0.0,0.0,0.0,0.0,0.0,0.0,0.0,0.0,0.0,0.0,0.0,0.0,0.0,0.0,0.0,0.0,0.0,0.0,0.0,0.0,0.0,0.0,0.0,0.0,0.0,0.0,0.0,0.0,0.0,0.0,0.0,0.0,0.0,0.0,0.0,0.0,0.0,0.0,0.0,0.0,0.0,0.0,0.0,0.0,0.0,0.0,0.0,0.0,0.0,0.0,0.0,0.0,0.0,0.0,0.0,0.0,0.0,0.0,0.0,0.0,0.0,0.0,0.0,0.0,0.0,0.0,0.0,0.0,0.0,0.0,0.0,0.0,0.0,0.0,0.0,0.0,0.0,0.0,0.0,0.0,0.0,0.0,0.0,0.0,0.0,0.0,0.0,0.0,0.0,0.0,0.0,0.0,0.0,0.0,0.0,0.0,0.0,0.0,0.0,0.0,0.0,0.0,0.0,0.0,0.0,0.0,0.0,0.0,0.0,0.0,0.0,0.0,0.0,0.0,0.0,0.0,0.0,0.0,0.0,0.0,0.0,0.0,0.0,0.0,0.0,0.0,0.0,0.0,0.0,0.0,0.0,0.0,0.0,0.0,0.0,0.0,0.0,0.0,0.0,0.0,0.0,0.0,0.0,0.0,0.0,0.0,0.0,0.0,0.0,0.0,0.0,0.0,0.0,0.0,0.0,0.0,0.0,0.0,0.0,0.0,0.0,0.0,0.0,0.0,0.0,0.0,0.0,0.0,0.0,0.0,0.0,0.0,0.0,0.0,0.0,0.0,0.0,0.0,0.0,0.0,0.0,0.0,0.0,0.0,0.0,0.0,0.0,0.0,0.0,0.0,0.0,0.0,0.0,0.0,0.0,0.0,0.0,0.0,0.0,0.0,0.0,0.0,0.0,0.0,0.0,0.0,0.0,0.0,0.0,0.0,0.0,0.0,0.0,0.0,0.0,0.0,0.0,0.0,0.0,0.0,0.0,0.0,0.0,0.0,0.0,0.0,0.0,0.0,0.0,0.0,0.0,0.0,0.0,0.0,0.0,0.0,0.0,0.0,0.0,0.0,0.0,0.0,0.0,0.0,0.0,0.0,0.0,0.0,0.0,0.0,0.0,0.0,0.0,0.0,0.0,0.0,0.0,0.0,0.0,0.0,0.0,0.0,0.0,0.0,0.0,0.0,0.0,0.0,0.0,0.0,0.0,0.0,0.0,0.0,0.0,0.0,0.0,0.0,0.0,0.0,0.0,0.0,0.0,0.0,0.0,0.0,0.0,0.0,0.0,0.0,0.0,0.0,0.0,0.0,0.0,0.0,0.0,0.0,0.0,0.0,0.0,0.0,0.0,0.0,0.0,0.0,0.0,0.0,0.0,0.0,0.0,0.0,0.0,0.0,0.0,0.0,0.0,0.0,0.0,0.0,0.0,0.0,0.0,0.0,0.0,0.0,0.0,0.0,0.0,0.0,0.0,0.0,0.0,0.0,0.0,0.0,0.0,0.0,0.0,0.0,0.0,0.0,0.0,0.0,0.0,0.0,0.0,0.0,0.0,0.0,0.0,0.0,0.0,0.0,0.0,-0.8137,-0.7806,0.0,0.0,0.0,0.0,0.0,0.0,0.0,0.0,0.0,0.0,0.0,0.0,0.0,0.0,0.0,0.0,0.0,0.0,0.0,0.0,0.0,0.0,0.0,0.4901,0.5076,0.5332,0.5488,0.5576,0.5508,0.0,0.0,0.0,0.0,0.0,0.25,0.2014,0.1362,0.0581,0.0562,0.0363,0.0,0.0,0.0,0.0,0.0,0.0,0.0,0.0,0.0,0.0,0.0,0.0,0.0,0.0,0.0,0.0,0.0,0.0,0.0,0.0,0.0,0.0,0.0,0.0,0.0,0.0,0.0,0.0,0.0,0.0,0.0,0.0,0.0,0.0,0.0,0.0,0.0,0.0,0.0,0.0,0.0,0.0,0.0,0.0,0.0,0.0,0.0,0.0,0.0,0.0,0.0,0.0,0.0,0.0,0.0,0.0,0.0,0.0,0.0,0.0,0.0,0.0,0.0,0.0,0.0,0.0,0.0,0.0,0.0,0.0,0.0,0.0,0.0,0.0,-0.9001,-0.8655,0.0,0.0,0.0,0.0,0.0,0.0,0.0,0.0,0.0,0.0,0.0,0.0,0.0,0.0,0.0,0.0,0.0,0.0,0.0,0.0,0.0,0.4648,0.4894,0.5056,0.5206,0.5358,0.5461,0.5474,0.5355,0.5338,0.0,0.0,0.0,0.2999,0.1349,0.115,0.0726,0.0,0.0,0.0,0.0,0.0,0.0,0.0,0.0,0.0,0.0,0.0,0.0,0.0,0.0,0.0,0.0,0.0,0.0,0.0,0.0,0.0,0.0,0.0,0.0,0.0,0.0,0.0,0.0,0.0,0.0,0.0,0.0,0.0,0.0,0.0,0.0,0.0,0.0,0.0,0.0,0.0,0.0,0.0,0.0,0.0,0.0,0.0,0.0,0.0,0.0,0.0,0.0,0.0,0.0,0.0,0.0,0.0,0.0,0.0,0.0,0.0,0.0,0.0,0.0,0.0,0.0,0.0,0.0,0.0,0.0,0.0,-1.0385,-1.0473,-1.0683,-1.0432,-1.046,-1.0649,-0.9903,-0.9625,-0.9632,-0.896,0.0,0.0,0.0,0.0,0.0,0.0,0.0,0.0,0.0,0.0,0.0,0.0,0.0,0.0,0.0,0.0,0.0,0.0,0.0,0.4775,0.5036,0.5237,0.5092,0.4451,0.4405,0.439,0.4402,0.4258,0.0,0.0,0.3328,0.2394,0.1321,0.0548,0.0114,0.0,0.0,0.0,0.0,0.0,0.0,0.0,0.0,0.0,0.0,0.0,0.0,0.0,0.0,0.0,0.0,0.0,0.0,0.0,0.0,0.0,0.0,0.0,0.0,0.0,0.0,0.0,0.0,0.0,0.0,0.0,0.0,0.0,0.0,0.0,0.0,0.0,0.0,0.0,0.0,0.0,0.0,0.0,0.0,0.0,0.0,0.0,0.0,0.0,0.0,0.0,-0.6067,-0.7766,0.0,0.0,0.0,0.0,0.0,0.0,0.0,0.0,0.0,0.0,0.0,0.0,0.0,-1.0188,-1.0371,-1.0894,-1.1118,-1.1118,-1.1423,-1.1552,-1.147,-1.143,-1.1436,-1.1463,-1.1348,0.0,-0.9903,-0.9605,0.0,0.0,0.0,0.0,0.0,0.0,0.0,0.0,0.0,0.0,0.0,0.0,0.0,0.0,0.0,0.0,0.0,0.0,0.0,0.0,0.0,0.5549,0.5402,0.454,0.4632,0.4371,0.3538,0.3423,0.315,0.2589,0.2161,0.1501,0.0573,0.0191,0.0,0.0,0.0,0.0,0.0,0.0,0.0,0.0,0.0,0.0,0.0,0.0,0.0,0.0,0.0,0.0,0.0,0.0,0.0,0.0,0.0,0.0,0.0,0.0,0.0,0.0,0.0,0.0,0.0,0.0,0.0,0.0,0.0,0.0,0.0,0.0,0.0,0.0,0.0,0.0,0.0,0.0,0.0,0.0,0.0,0.0,0.0,0.0,0.0,0.0,0.0,-0.5629,-0.7655,-0.8312,-0.8404,-0.8143,0.0,0.0,0.0,0.0,0.0,0.0,0.0,0.0,0.0,-1.0683,-1.0833,-1.1097,-1.1497,-1.1762,-1.1945,-1.2047,-1.2244,-1.2352,-1.2366,-1.2196,-1.2115,-1.2108,-1.1938,-1.1558,-1.0934,-1.0365,-0.9849,-0.9422,0.0,0.0,0.0,0.0,-0.8913,-0.8947,0.0,0.0,0.0,0.0,0.0,0.0,0.0,0.0,0.0,0.0,0.0,0.0,0.5515,0.5901,0.5825,0.4997,0.4791,0.4253,0.3151,0.2706,0.2152,0.141,0.1313,0.0881,0.0037,0.0,0.0,0.0,0.0,0.0,0.0,0.0,0.0,0.0,0.0,0.0,0.0,0.0,0.0,0.0,0.0,0.0,0.0,0.0,0.0,0.0,0.0,0.0,0.0,0.0,0.0,0.0,0.0,0.0,0.0,0.0,0.0,0.0,0.0,0.0,0.0,0.0,0.0,0.0,0.0,0.0,0.0,0.0,0.0,0.0,0.0,0.0,0.0,0.0,0.0,0.0,0.0,-0.6844,-0.8669,-0.871,-0.8913,-0.892,0.0,0.0,0.0,0.0,0.0,0.0,-1.03,-1.0575,-1.0982,-1.1653,-1.1714,-1.1965,-1.2461,-1.2461,-1.2569,-1.2786,-1.2786,-1.2847,-1.2956,-1.2725,-1.2596,-1.2549,-1.2325,-1.2121,-1.1884,-1.1063,-1.0548,-1.0243,-0.9829,-0.9646,-0.9632,-0.9781,-0.9761,-0.9727,0.0,0.0,0.0,0.0,0.0,0.0,0.0,0.0,0.0,0.0,0.0,0.6081,0.5965,0.6268,0.6233,0.5602,0.4418,0.364,0.3565,0.221,0.1445,0.1561,0.1411,0.0905,0.0038,0.0,0.0,0.0,0.0,0.0,0.0,0.0,0.0,0.0,0.0,0.0,0.0,0.0,0.0,0.0,0.0,0.0,0.0,0.0,0.0,0.0,0.0,0.0,0.0,0.0,0.0,0.0,0.0,0.0,0.0,0.0,0.0,0.0,0.0,0.0,0.0,0.0,0.0,0.0,0.0,0.0,0.0,0.0,0.0,0.0,0.0,0.0,0.0,0.0,0.0,0.0,0.0,0.0,0.0,-0.932,-0.972,0.0,0.0,0.0,0.0,-0.9896,-1.0263,-1.0697,-1.1294,-1.1599,-1.1965,-1.2433,-1.2589,-1.2745,-1.2929,-1.2929,-1.2935,-1.2949,-1.2949,-1.2956,-1.2963,-1.2942,-1.2861,-1.2718,-1.2705,-1.2535,-1.2216,-1.1599,-1.1172,-1.0806,-1.0561,-1.0351,-1.0249,-1.0392,-1.0439,-1.0439,0.0,0.0,0.0,0.0,0.0,0.8407,0.8407,0.7369,0.6586,0.6511,0.6116,0.5929,0.6163,0.6743,0.6719,0.581,0.4566,0.3878,0.3856,0.225,0.1479,0.1842,0.1494,0.0908,0.0,0.0,0.0,0.0,0.0,0.0,0.0,0.0,0.0,0.0,0.0,0.0,0.0,0.0,0.0,0.0,0.0,0.0,0.0,0.0,0.0,0.0,0.0,0.0,0.0,0.0,0.0,0.0,0.0,0.0,0.0,0.0,0.0,0.0,0.0,0.0,0.0,0.0,0.0,0.0,0.0,0.0,0.0,0.0,0.0,0.0,0.0,0.0,0.0,0.0,0.0,0.0,0.0,0.0,0.0,-0.9944,-1.0358,0.0,-1.027,-1.0466,-1.069,-1.0894,-1.128,-1.1681,-1.2081,-1.2298,-1.2569,-1.2922,-1.299,-1.3091,-1.3241,-1.3247,-1.3247,-1.3247,-1.3247,-1.3247,-1.3241,-1.3146,-1.3064,-1.3003,-1.2813,-1.2671,-1.2542,-1.2135,-1.1735,-1.1362,-1.1151,-1.0982,-1.0853,-1.0907,-1.0928,-1.0907,0.0,0.0,0.0,0.0,0.8804,0.8804,0.8804,0.7788,0.7053,0.7101,0.6506,0.6236,0.6538,0.7088,0.7235,0.6583,0.5381,0.4472,0.4023,0.2859,0.1958,0.136,0.1025,0.0579,0.0,0.0,0.0,0.0,0.0,0.0,0.0,0.0,0.0,0.0,0.0,0.0,0.0,0.0,0.0,0.0,0.0,0.0,0.0,0.0,0.0,0.0,0.0,0.0,0.0,0.0,0.0,0.0,0.0,0.0,0.0,0.0,0.0,0.0,0.0,0.0,0.0,0.0,0.0,0.0,0.0,0.0,0.0,0.0,0.0,0.0,0.0,0.0,0.0,0.0,0.0,0.0,0.0,-0.8954,-1.0317,-1.0419,-1.0914,-1.1096,-1.0968,-1.126,-1.1552,-1.1748,-1.2088,-1.244,-1.2786,-1.2901,-1.3091,-1.339,-1.3397,-1.3424,-1.3478,-1.3478,-1.3451,-1.3403,-1.3403,-1.3403,-1.3397,-1.3295,-1.322,-1.3159,-1.2915,-1.2779,-1.2712,-1.2461,-1.2155,-1.1823,-1.1619,-1.1477,-1.1382,-1.1335,-1.1287,-1.1212,0.0,0.0,0.0,0.8804,0.8804,0.8804,0.8804,0.8297,0.7841,0.7577,0.7293,0.7126,0.7149,0.7421,0.7726,0.7968,0.6731,0.5422,0.4218,0.3971,0.2751,0.0135,0.0,0.0,0.0,0.0,0.0,0.0,0.0,0.0,0.0,0.0,0.0,0.0,0.0,0.0,0.0,0.0,0.0,0.0,0.0,0.0,0.0,0.0,0.0,0.0,0.0,0.0,0.0,0.0,0.0,0.0,0.0,0.0,0.0,0.0,0.0,0.0,0.0,0.0,0.0,0.0,0.0,0.0,0.0,0.0,0.0,0.0,0.0,0.0,0.0,0.0,0.0,0.0,0.0,0.0,-0.7861,-0.95,-1.0744,-1.0758,-1.1409,-1.1742,-1.1457,-1.183,-1.221,-1.2501,-1.2664,-1.2942,-1.3383,-1.341,-1.3546,-1.3831,-1.3838,-1.3777,-1.3641,-1.3634,-1.3553,-1.341,-1.3403,-1.3403,-1.3403,-1.3403,-1.3322,-1.3173,-1.3024,-1.2874,-1.2725,-1.2569,-1.242,-1.2264,-1.1959,-1.1837,-1.1816,-1.1674,-1.1525,-1.1348,0.0,0.0,0.8804,0.8804,0.8804,0.8804,0.8804,0.8406,0.83,0.8749,0.8105,0.7797,0.834,0.8121,0.7901,0.7982,0.5872,0.5222,0.6781,0.387,0.1732,0.0962,0.0344,0.0,0.0,0.0,0.0,0.0,0.0,0.0,0.0,0.0,0.0,0.0,0.0,0.0,0.0,0.0,0.0,0.0,0.0,0.0,0.0,0.0,0.0,0.0,0.0,0.0,0.0,0.0,0.0,0.0,0.0,0.0,0.0,0.0,0.0,0.0,0.0,0.0,0.0,0.0,0.0,0.0,0.0,0.0,0.0,0.0,0.0,0.0,0.0,0.0,0.0,0.0,-0.7487,-0.8557,-0.9583,-1.0598,-1.1328,-1.1653,-1.206,-1.2332,-1.2359,-1.2576,-1.2793,-1.2976,-1.3132,-1.3322,-1.3553,-1.3661,-1.3756,-1.3838,-1.3838,-1.3824,-1.3783,-1.3682,-1.3607,-1.3566,-1.3451,-1.3403,-1.3403,-1.3403,-1.3376,-1.3322,-1.3071,-1.2935,-1.2881,-1.261,-1.2481,-1.2413,-1.2115,-1.1932,-1.1816,-1.1674,-1.1525,-1.1362,0.0,0.8804,0.8804,0.8804,0.8804,0.8804,0.8804,0.8506,0.8587,0.9369,0.9018,0.8776,0.9046,0.8941,0.8598,0.795,0.6548,0.6035,0.6924,0.3556,0.1513,0.1568,0.0574,0.0,0.0,0.0,0.0,0.0,0.0,0.0,0.0,0.0,0.0,0.0,0.0,0.0,0.0,0.0,0.0,0.0,0.0,0.0,0.0,0.0,0.0,0.0,0.0,0.0,0.0,0.0,0.0,0.0,0.0,0.0,0.0,0.0,0.0,0.0,0.0,0.0,0.0,0.0,0.0,0.0,0.0,0.0,0.0,0.0,0.0,0.0,0.0,0.0,0.0,0.0,-0.8768,-0.9861,-1.0873,-1.1355,-1.1742,-1.2189,-1.2454,-1.2684,-1.2895,-1.2996,-1.3112,-1.3254,-1.341,-1.3559,-1.3709,-1.3858,-1.3966,-1.4034,-1.4034,-1.4,-1.3939,-1.3858,-1.3749,-1.3627,-1.3539,-1.3464,-1.3403,-1.3403,-1.3403,-1.3383,-1.3091,-1.2963,-1.2935,-1.263,-1.2501,-1.2481,0.0,0.0,0.0,0.0,-1.1565,-1.1463,0.0,0.8804,0.8804,0.8804,0.8804,0.8804,0.8804,0.867,0.8876,0.9753,0.9808,0.9689,0.9429,0.9619,0.9202,0.7918,0.7789,0.7015,0.5308,0.322,0.1974,0.1756,0.0654,0.0,0.0,0.0,0.0,0.0,0.0,0.0,0.0,0.0,0.0,0.0,0.0,0.0,0.0,0.0,0.0,0.0,0.0,0.0,0.0,0.0,0.0,0.0,0.0,0.0,0.0,0.0,0.0,0.0,0.0,0.0,0.0,0.0,0.0,0.0,0.0,0.0,0.0,0.0,0.0,0.0,0.0,0.0,0.0,0.0,0.0,0.0,0.0,0.0,0.0,0.0,-1.0054,-1.1362,-1.1796,-1.187,-1.204,-1.2474,-1.2664,-1.2868,-1.3146,-1.3186,-1.3261,-1.3417,-1.3566,-1.3715,-1.3858,-1.4014,0.0,0.0,0.0,-1.4238,-1.4095,-1.4082,-1.3933,-1.3654,-1.3634,-1.3546,-1.3403,-1.3403,-1.3231,-1.3045,-1.3024,-1.2896,-1.2615,-1.2566,-1.236,-1.2172,-1.2013,-1.1868,-1.1702,-1.1352,-1.1397,-1.1599,0.0,0.8804,0.8804,0.8804,0.8804,0.8804,0.8804,0.9159,0.9766,1.0613,0.9871,0.9502,1.0101,0.892,0.8006,0.7801,0.6857,0.5219,0.2833,0.3232,0.2645,0.0489,0.0114,0.0,0.0,0.0,0.0,0.0,0.0,0.0,0.0,0.0,0.0,0.0,0.0,0.0,0.0,0.0,0.0,0.0,0.0,0.0,0.0,0.0,0.0,0.0,0.0,0.0,0.0,0.0,0.0,0.0,0.0,0.0,0.0,0.0,0.0,0.0,0.0,0.0,0.0,0.0,0.0,0.0,0.0,0.0,0.0,0.0,0.0,0.0,0.0,0.0,0.0,-0.989,-1.09,-1.1647,-1.1972,-1.2121,-1.2325,-1.2644,-1.282,-1.2983,-1.3159,-1.3288,-1.3417,-1.3573,-1.3722,-1.3865,-1.4021,-1.4177,-1.4272,-1.4299,-1.4299,-1.4285,-1.4258,-1.4136,-1.398,-1.3797,-1.3682,0.0,-1.3403,-1.3403,-1.2395,-1.0793,-1.2464,-1.2081,-1.0351,-1.1963,-1.1588,-0.9976,-0.9834,-0.9601,-0.9334,-0.9262,-1.0233,-1.1599,0.7783,0.7996,0.8235,0.8235,0.8235,0.8368,0.8752,0.9178,0.978,1.0693,1.062,1.0589,1.0792,0.9721,0.871,0.805,0.6995,0.5359,0.2966,0.3466,0.275,0.0112,0.0,0.0,0.0,0.0,0.0,0.0,0.0,0.0,0.0,0.0,0.0,0.0,0.0,0.0,0.0,0.0,0.0,0.0,0.0,0.0,0.0,0.0,0.0,0.0,0.0,0.0,0.0,0.0,0.0,0.0,0.0,0.0,0.0,0.0,0.0,0.0,0.0,0.0,0.0,0.0,0.0,0.0,0.0,0.0,0.0,0.0,0.0,-0.32,-0.5718,0.0,-0.8682,-1.071,-1.143,-1.183,-1.2135,-1.2305,-1.2508,-1.2813,-1.2915,-1.3051,-1.3268,-1.3356,-1.3464,-1.3614,-1.3763,-1.3905,-1.4061,-1.4217,-1.4299,-1.4299,-1.4299,-1.4299,-1.4299,-1.4224,-1.4068,-1.3838,-1.377,-1.3614,-1.3397,-1.2222,-1.1131,-1.0039,-0.9922,-0.9159,-0.816,-0.9134,-0.8246,-0.624,-0.6205,-0.7248,-0.8785,-0.8692,-0.9939,-1.1606,0.675,0.6966,0.7369,0.7637,0.7691,0.7889,0.8513,0.8936,0.9453,1.0199,1.0948,1.1275,1.1031,1.0474,0.9599,0.8295,0.7438,0.6026,0.3765,0.3739,0.2686,0.0115,0.0,0.0,0.0,0.0,0.0,0.0,0.0,0.0,0.0,0.0,0.0,0.0,0.0,0.0,0.0,0.0,0.0,0.0,0.0,0.0,0.0,0.0,0.0,0.0,0.0,0.0,0.0,0.0,0.0,0.0,0.0,0.0,0.0,0.0,0.0,0.0,0.0,0.0,0.0,0.0,0.0,0.0,0.0,-0.0992,-0.0325,-0.1408,-0.1957,-0.3171,-0.6134,-0.7403,-0.8634,-1.0674,-1.1491,-1.2006,-1.2257,-1.2413,-1.2603,-1.2881,-1.2942,-1.3078,-1.337,-1.3403,-1.3478,-1.3654,-1.3777,-1.3919,-1.4109,-1.4231,-1.4299,-1.4299,-1.4299,-1.4299,-1.4299,-1.4299,-1.4163,-1.3885,-1.3858,-1.3441,-1.2772,-1.0893,-0.954,-0.8615,-0.6687,-0.6123,-0.6462,-0.5922,-0.4693,-0.3048,-0.2629,-0.4654,-0.7743,-0.7637,-0.9307,-1.1476,0.0,0.6145,0.6163,0.7477,0.7691,0.7717,0.7809,0.861,0.9203,0.9181,0.943,0.9765,1.0187,0.9535,0.8774,0.809,0.7592,0.6293,0.3744,0.3852,0.2767,0.0117,0.0,0.0,0.0,0.0,0.0,0.0,0.0,0.0,0.0,0.0,0.0,0.0,0.0,0.0,0.0,0.0,0.0,0.0,0.0,0.0,0.0,0.0,0.0,0.0,0.0,0.0,0.0,0.0,0.0,0.0,0.0,0.0,0.0,0.0,0.0,0.0,0.0,0.0,-0.0387,-0.2048,-0.1209,-0.0428,0.0,-0.1156,-0.006,-0.0192,-0.1507,-0.2802,-0.3189,-0.617,-0.8719,-0.8987,-1.0841,-1.225,-1.2284,-1.2413,-1.2562,-1.2732,-1.2874,-1.3078,-1.337,-1.3403,-1.3519,-1.3797,-1.3831,-1.3966,-1.4258,-1.4292,-1.4299,-1.4299,-1.4299,-1.4299,-1.4299,-1.4299,-1.4211,-1.4048,-1.3905,-1.2721,-1.062,-1.0174,-0.7869,-0.4105,-0.369,-0.4624,-0.6381,-0.4266,-0.3286,-0.2892,-0.1084,-0.1682,-0.3543,-0.3567,-0.6962,-1.1109,0.0,0.6064,0.6335,0.6966,0.7074,0.7208,0.7637,0.8416,0.9001,0.9109,0.9492,0.993,1.0351,0.9304,0.8295,0.7547,0.7196,0.5947,0.3488,0.3739,0.2809,0.0118,0.0,0.0,0.0,0.0,0.0,0.0,0.0,0.0,0.0,0.0,0.0,0.0,0.0,0.0,0.0,0.0,0.0,0.0,0.0,0.0,0.0,0.0,0.0,0.0,0.0,0.0,0.0,0.0,0.0,0.0,0.0,0.0,0.0,0.0,0.0,0.0,0.0,-0.0789,-0.1667,-0.2116,-0.1889,-0.1653,-0.2109,-0.1073,0.0,0.0,-0.0615,-0.1466,-0.2593,-0.5173,-0.7572,-0.8808,-1.0814,-1.2318,-1.24,-1.2467,-1.2528,-1.2589,-1.1694,-1.1647,-1.3159,-1.3268,-1.3431,-1.381,-1.3838,-1.3973,-1.4285,-1.4299,-1.4299,-1.4299,-1.4299,-1.4299,-1.4299,-1.4299,-1.4224,-1.4068,-1.2607,-1.135,-1.0213,-0.7409,-0.436,-0.1428,-0.1313,-0.1868,-0.2673,-0.1662,-0.1333,-0.1176,-0.0312,-0.1154,-0.2865,-0.2904,-0.514,-0.7982,0.0,0.6362,0.6588,0.6588,0.6777,0.7074,0.761,0.8315,0.8858,0.9019,0.958,1.014,1.0546,0.9421,0.831,0.7513,0.7165,0.6068,0.3795,0.3859,0.2927,0.0637,0.0179,0.0,0.0,0.0,0.0,0.0,0.0,0.0,0.0,0.0535,0.0469,0.0,0.0536,0.0462,0.0,0.0,0.0,0.0,0.0,0.0,0.0,0.0,0.0229,0.0496,0.0488,0.0267,0.0052,0.0362,0.0259,0.0,0.0,0.0,0.0,0.0,0.0,-0.0106,-0.0606,-0.1355,-0.2016,-0.217,-0.2078,-0.1837,-0.1524,-0.0717,0.0,0.0,0.0,-0.0427,-0.1854,-0.3774,-0.5917,-0.8033,-1.0126,-1.1714,-1.2404,-1.2467,-1.2286,-1.1741,-1.0385,-1.0201,-1.2067,-1.2281,-1.2758,-1.3664,-1.3817,-1.396,-1.4224,-1.4278,-1.4299,-1.4299,-1.4299,-1.4299,-1.4299,-1.4299,-1.4245,-1.4129,-1.1663,-1.0164,-0.9233,-0.4558,-0.1849,-0.0924,-0.0246,0.0,0.0,0.0,0.0,0.0,0.0,-0.0851,-0.2114,-0.2095,-0.3686,-0.5663,0.0,0.0,0.6588,0.6588,0.7182,0.7664,0.7691,0.8315,0.8761,0.8643,0.9266,0.9943,1.0533,0.9792,0.9019,0.8399,0.7993,0.7006,0.5177,0.4289,0.3237,0.2015,0.0706,0.0,0.0,0.0,0.0,0.0,0.0,0.0,0.0066,0.1777,0.1657,0.0067,0.1854,0.1633,0.0,0.0,0.0,0.0,0.0,0.0,0.0,0.0,0.0725,0.1753,0.1721,0.0,0.0201,0.1373,0.0965,0.0,0.0,0.0,0.0,0.0,0.0,-0.0383,-0.2128,-0.1399,-0.0525,-0.2225,-0.1399,-0.0065,-0.0068,0.0,0.0,0.0,0.0,0.0,-0.0071,-0.1804,-0.3884,-0.6006,-0.8143,-1.0168,-1.2249,-1.2386,-1.16,-0.9747,-0.9343,-0.9369,-0.9682,-1.0008,-1.1134,-1.3445,-1.3763,-1.3912,-1.4068,-1.4217,-1.4299,-1.4299,-1.4299,-1.4299,-1.4299,-1.4299,-1.4299,-1.4285,-1.1709,-0.9339,-0.7001,-0.2291,-0.1262,-0.3186,-0.0985,0.0,0.0,0.0,0.0,0.0,0.0,0.0,-0.0076,-0.0076,-0.2528,-0.5229,0.0,0.0,0.0,0.7423,0.7943,0.8421,0.8421,0.8776,0.9055,0.9015,0.9551,0.0,0.0,0.0,0.0,0.0,0.8356,0.716,0.603,0.535,0.4468,0.3234,0.2919,0.2838,0.2956,0.1995,0.1544,0.1639,0.0571,0.0576,0.1685,0.2268,0.2791,0.326,0.2791,0.225,0.1587,0.0443,0.0,0.0,0.0,0.0541,0.1359,0.1446,0.2121,0.3115,0.0,0.3415,0.2179,0.1812,0.1405,0.0954,0.024,0.0,0.0,0.0,0.0,-0.0111,-0.075,-0.1323,-0.1624,-0.103,-0.133,-0.1505,-0.0278,0.0,0.0,0.0,0.0,0.0,0.0,-0.171,-0.3835,-0.5931,-0.8043,-1.0148,-1.2229,-1.2549,-1.2236,-1.1327,-0.8947,-0.8484,-1.1134,-0.912,-0.9296,-1.3188,-1.233,-1.2331,-1.3968,-1.4217,-1.4299,-1.4299,-1.4299,-1.4299,-1.4299,-1.4299,-1.4299,-1.4299,-1.1709,-0.8411,-0.4494,-0.2949,-0.2603,-0.3269,-0.0985,0.0,0.0,0.0,0.0,0.0,0.0,0.0,0.0,0.0,-0.0824,-0.1768,0.0,0.0,0.0,0.0,0.0,0.0,0.0,0.0,0.0,0.0,0.0,0.0,0.0,0.0,0.0,0.0,0.0,0.8095,0.7119,0.6408,0.5518,0.4471,0.4163,0.4076,0.4242,0.3207,0.2811,0.3022,0.1936,0.2023,0.3202,0.3826,0.4338,0.4737,0.4338,0.3808,0.3156,0.2094,0.1594,0.1523,0.1492,0.1979,0.2658,0.2726,0.3407,0.0,0.0,0.4762,0.3824,0.2608,0.1666,0.0925,0.0233,0.0,0.0,0.0,0.0,-0.0114,-0.0789,-0.1323,-0.1621,-0.107,-0.1374,-0.1401,-0.0281,0.0,0.0,0.0,0.0,0.0,0.0,-0.11,-0.2934,-0.5835,-0.7391,-0.9249,-1.2132,-1.2542,-1.1921,-1.0265,-0.7817,-0.7349,-0.9977,-0.7267,-0.7593,-1.2946,-1.2281,-1.2399,-1.3894,-1.419,-1.4299,-1.4299,-1.4299,-1.4299,-1.4299,-1.4299,-1.3797,-1.2892,-1.1318,-0.8807,-0.57,-0.4027,-0.3776,-0.444,-0.1313,0.0,0.0,0.0,0.0,0.0,0.0,0.0,0.0,0.0,0.0,0.0,0.0,0.0,0.0,0.0,0.0,0.0,0.0,0.0,0.0,0.0,0.0,0.0,0.0,0.0,0.0,0.0,0.0,0.0,0.8359,0.7316,0.0,0.5721,0.4487,0.3895,0.4017,0.3816,0.3832,0.4126,0.4018,0.4233,0.4664,0.6277,0.6206,0.4767,0.6381,0.6158,0.4601,0.4532,0.4348,0.4176,0.417,0.4046,0.3912,0.3898,0.0,0.0,0.0,0.5029,0.4919,0.3679,0.1814,0.0,0.0,0.0,0.0,0.0,0.0,-0.036,-0.2093,-0.1293,-0.0394,-0.2145,-0.1262,0.0,0.0,0.0,0.0,0.0,0.0,0.0,0.0,0.0,-0.1323,-0.5499,-0.6228,-0.775,-1.1792,-1.2323,-1.085,-0.6922,-0.6236,-0.6189,-0.6414,-0.4594,-0.6114,-1.2583,-1.3412,-1.366,-1.3666,-1.4042,-1.4299,-1.4299,-1.4299,-1.4299,-1.4299,-1.4292,-1.2985,-1.0462,-1.0628,-1.0423,-0.9961,-0.5533,-0.4612,-0.6443,-0.197,0.0,0.0,0.0,0.0,0.0,0.0,0.0,0.0,0.0,0.0,0.0,0.0,0.0,0.0,0.0,0.0,0.0,0.0,0.0,0.0,0.0,0.0,0.0,0.0,0.0,0.0,0.0,0.0,0.0,0.9232,0.0,0.0,0.0,0.6649,0.6703,0.6923,0.5907,0.5518,0.5696,0.455,0.4666,0.5973,0.6426,0.7069,0.7726,0.7012,0.6426,0.5912,0.4644,0.4064,0.3927,0.0,0.4418,0.5136,0.0,0.0,0.0,0.0,0.5921,0.4902,0.3602,0.1732,0.0,0.0,0.0,0.0,0.0,0.0,-0.0127,-0.0586,-0.0338,-0.014,-0.0567,-0.0356,0.0,0.0,0.0,0.0,0.0,0.0,0.0,0.0,0.0,-0.084,-0.3467,-0.5238,-0.7235,-0.9932,-1.1795,-1.1786,-0.8914,-0.7365,-0.6438,-0.6188,-0.4443,-0.5423,-1.0407,-1.1171,-1.1317,-1.1321,-1.3248,-1.4299,-1.4299,-1.4299,-1.4299,-1.4299,-1.419,-1.2886,-1.0548,-1.21,-1.1885,-0.9961,-0.7118,-0.6118,-0.6446,-0.1987,0.0,0.0,0.0,0.0,0.0,0.0,0.0,0.0,0.0,0.0,0.0,0.0,0.0,0.0,0.0,0.0,0.0,0.0,0.0,0.0,0.0,0.0,0.0,0.0,0.0,0.0,0.0,0.0,0.0,0.0,0.0,0.0,0.761,0.7328,0.7312,0.7503,0.6846,0.6569,0.6799,0.0,0.0,0.7152,0.7152,0.7634,0.8494,0.7581,0.7152,0.7099,0.6134,0.0,0.0,0.0,0.0,0.0,0.0,0.0,0.0,0.0,0.0,0.0,0.0,0.1475,0.0,0.0,0.0,0.0,0.0,0.0,0.0,0.0,0.0,0.0,0.0,0.0,0.0,0.0,0.0,0.0,0.0,0.0,0.0,0.0,0.0,-0.0687,-0.2769,-0.4869,-0.7043,-0.9305,-1.1518,-1.1721,-0.8495,-0.7247,-0.6158,-0.4892,-0.3896,-0.4372,-0.6877,-0.9224,-1.0934,-1.2015,-1.3462,-1.4299,-1.4299,-1.4299,-1.4299,-1.4299,-1.415,-1.3381,-1.1933,-1.3095,-1.2869,-1.1469,-0.8207,-0.67,-0.6446,-0.191,0.0,0.0,0.0,0.0,0.0,0.0,0.0,0.0,0.0,0.0,0.0,0.0,0.0,0.0,0.0,0.0,0.0,0.0,0.0,0.0,0.0,0.0,0.0,0.0,0.0,0.0,0.0,0.0,0.0,0.0,0.0,0.0,0.8237,0.7233,0.6783,0.691,0.7051,0.7238,0.7419,0.0,0.0,0.0,0.0,0.0,0.0,0.0,0.0,0.0,0.0,0.0,0.0,0.0,0.0,0.0,0.0,0.0,0.0,0.0,0.0,0.0,0.0,0.1224,0.0,0.0,0.0,0.0,0.0,0.0,0.0,0.0,0.0,0.0,0.0,0.0,0.0,0.0,0.0,0.0,0.0,0.0,0.0,0.0,0.0,-0.06,-0.2385,-0.451,-0.6669,-0.8905,-1.0733,-1.0555,-0.6978,-0.6243,-0.5236,-0.311,-0.289,-0.3007,-0.3297,-0.7194,-1.0615,-1.3004,-1.3595,-1.3938,-1.4299,-1.4299,-1.4299,-1.4299,-1.4129,-1.3973,-1.3838,-1.3675,-1.3532,-1.3231,-0.8707,-0.67,-0.6446,-0.191,0.0,0.0,0.0,0.0,0.0,0.0,0.0,0.0,0.0,0.0,0.0,0.0,0.0,0.0,0.0,0.0,0.0,0.0,0.0,0.0,0.0,0.7771,0.9055,0.0,0.0,0.0,0.0,0.0,0.0,0.0,0.0,0.0,0.0,0.7233,0.6824,0.7051,0.7251,0.7346,0.7419,0.755,0.0,0.0,0.0,0.0,0.0,0.0,0.0,0.0,0.0,0.0,0.0,0.0,0.0,0.0,0.0,0.0,0.0,0.0,0.0,0.0,0.0,0.1918,0.0,0.0,0.0,0.0,0.0,0.0,0.0,0.0,0.0,0.0,0.0,0.0,0.0,0.0,0.0,0.0,0.0,0.0,0.0,0.0,0.0,-0.0116,-0.0494,-0.2313,-0.4477,-0.6876,-0.7417,-0.732,-0.6722,-0.4967,-0.2973,-0.0768,-0.0603,-0.1391,-0.3424,-0.4301,-0.5794,-0.8173,-1.021,-1.2237,-1.421,-1.4299,-1.4299,-1.4299,-1.4021,-1.3865,-1.3838,-1.3566,-1.3424,-1.3231,-0.8707,-0.67,-0.6446,-0.191,0.0,0.0,0.0,0.0,0.0,0.0,0.0,0.0,0.0,0.0,0.0,0.0,0.0,0.0,0.0,0.0,0.0,0.0,0.677,0.6179,0.6559,0.7258,0.8273,0.9776,1.0344,1.1059,0.0,0.0,0.0,0.0,0.0,0.0,0.0,0.0,0.7382,0.6905,0.7136,0.7217,0.7143,0.0,0.7441,0.736,0.736,0.736,0.736,0.736,0.0,0.0,0.0,0.0,0.5395,0.4813,0.5264,0.0,0.0,0.0,0.0,0.0,0.0,0.0,0.0,0.3075,0.0894,0.0192,0.0,0.0,0.0,0.0,0.0,0.0,0.0,0.0,0.0,0.0,0.0,0.0,0.0,0.0,0.0,0.0,0.0,0.0,0.0,0.0,0.0,-0.1762,-0.3528,-0.476,-0.5813,-0.6145,-0.5124,-0.4052,-0.2482,-0.0259,0.0,-0.044,-0.16,-0.169,-0.3819,-0.8686,-1.1223,-1.3135,-1.4299,-1.4299,-1.4265,-1.4183,-1.3953,-1.3718,-1.3729,-1.3505,-1.3403,-1.3231,-0.8707,-0.67,-0.6446,-0.191,0.0,0.0,0.0,0.0,0.0,0.0,0.0,0.0,0.0,0.0,0.0,0.0,0.0,0.0,0.0,0.0,0.0,0.0,0.6889,0.6532,0.7007,0.7356,0.8127,0.9583,1.0283,1.117,0.0,0.0,0.0,0.0,0.0,0.0,0.0,0.0,0.7948,0.679,0.0,0.0,0.7027,0.7292,0.0,0.0,0.0,0.0,0.0,0.7112,0.6473,0.5403,0.5403,0.0,0.0,0.0,0.4192,0.0,0.0,0.0,0.0,0.0,0.0,0.0,0.0,0.4419,0.2564,0.1258,0.0459,0.0,0.0,0.0,0.0,0.0,0.0,0.0,0.0,0.0,0.0,0.0,0.0,0.0,0.0,0.0,0.0,0.0,0.0,0.0,0.0,-0.1389,-0.2665,-0.323,-0.4317,-0.4645,-0.3526,-0.2954,-0.1978,-0.0174,0.0,0.0,0.0,-0.0987,-0.4027,-0.9646,-1.2237,-1.3761,-1.4299,-1.4272,-1.419,-1.4075,-1.3885,-1.3743,-1.3627,-1.3471,-1.3403,-1.3231,-0.8707,-0.67,-0.6446,-0.1988,0.0,0.0,0.0,0.0,0.0,0.0,0.0,0.0,0.0,0.0,0.0,0.0,0.0,0.0,0.0,0.0,0.0,0.0,0.7446,0.6757,0.7441,0.8466,0.9473,1.0377,1.0359,1.1013,0.0,0.0,0.0,0.0,0.0,0.0,0.0,0.0,0.0,0.0,0.0,0.0,0.7378,0.7495,0.0,0.0,0.0,0.0,0.0,0.0,0.6473,0.5403,0.5403,0.0,0.0,0.0,0.0,0.0,0.0,0.0,0.0,0.0,0.0,0.0,0.0,0.0,0.526,0.4009,0.1933,0.0,0.0,0.0,0.0,0.0,0.0,0.0,0.0,0.0,0.0,0.0,0.0,0.0,0.0,0.0,0.0,0.0,0.0,0.0,0.0,-0.018,-0.0966,-0.3011,-0.1729,-0.1331,-0.3201,-0.1531,-0.0261,0.0,0.0,0.0,0.0,-0.4027,-0.67,-0.7417,-0.9735,-1.2059,-1.421,-1.4163,-1.4089,-1.4075,-1.379,-1.3641,-1.3627,-1.3471,-1.3403,-1.3231,-0.8707,-0.67,-0.6443,-0.1971,0.0,0.0,0.0,0.0,0.0,0.0,0.0,0.0,0.0,0.0,0.0,0.0,0.0,0.0,0.0,0.0,0.0,0.8214,0.7264,0.7063,0.873,0.9211,1.0141,1.2105,1.2048,1.2229,1.3121,0.0,0.0,0.0,0.0,0.0,0.0,0.0,0.0,0.0,0.0,0.7131,0.6322,0.6379,0.0,0.0,0.0,0.0,0.0,0.0,0.6229,0.441,0.4365,0.0,0.0,0.0,0.0,0.0,0.0,0.0,0.0,0.0,0.0,0.7664,0.7118,0.0,0.0,0.5239,0.3297,0.0,0.0,0.0599,0.0,0.0,0.0,0.0,0.0,0.0,0.0,0.0,0.0,0.0,0.0,0.0,0.0,0.0,0.0,0.0,0.0,0.0,-0.0293,-0.116,-0.0545,-0.0362,-0.1244,-0.0574,0.0,0.0,0.0,-0.0628,-0.2061,-0.5276,-0.7773,-0.9197,-1.1522,-1.3274,-1.4163,-1.4102,-1.3987,-1.381,-1.3688,-1.3587,-1.3492,-1.3431,-1.3403,-1.3231,-0.8707,-0.67,-0.6443,-0.1968,0.0,0.0,0.0,0.0,0.0,0.0,0.0,0.0,0.0,0.0,0.0,0.0,0.0,0.0,0.0,0.0,0.8084,0.7785,0.735,0.7701,0.9495,1.0212,1.1261,1.3182,1.3419,1.3467,1.3585,1.3666,0.0,0.0,0.0,0.0,0.0,0.0,0.0,0.0,0.0,0.6988,0.5641,0.5724,0.5019,0.0,0.0,0.5641,0.5731,0.0,0.0,0.0,0.0,0.0,0.0,0.0,0.0,0.0,0.0,0.0,0.0,0.0,0.0,0.0,0.0,0.0,0.0,0.0,0.0,0.0,0.0,0.1032,0.0,0.0,0.0,0.0,0.0,0.0,0.0,0.0,0.0,0.0,0.0,0.0,0.0,0.0,0.0,0.0,0.0,0.0,0.0,0.0,0.0,0.0,0.0,0.0,0.0,0.0,-0.0617,-0.1793,-0.349,-0.6436,-0.8918,-1.0578,-1.289,-1.4183,-1.4075,-1.3987,-1.3838,-1.3634,-1.3587,-1.3505,-1.3403,-1.3403,-1.3403,-1.3231,-0.8707,-0.669,-0.6413,-0.1965,0.0,0.0,0.0,0.0,0.0,0.0,0.0,0.0,0.0,0.0,0.0,0.0,0.0,0.0,0.0,0.0,0.0,0.7647,0.8043,0.8666,0.9426,1.1502,1.3066,1.3368,1.404,1.4479,1.4509,1.4242,0.0,0.0,0.0,0.0,0.0,0.0,0.0,0.0,0.0,0.7124,0.581,0.5921,0.5322,0.4011,0.5219,0.581,0.5853,0.0,0.0,0.0,0.0,0.0,0.0,0.0,0.0,0.0,0.0,0.0,0.0,0.0,0.0,0.0,0.0,0.0,0.0,0.0,0.0,0.0,0.0,0.1046,0.0,0.0,0.0,0.0,0.0,0.0,0.0,0.0,0.0,0.0,0.0,0.0,0.0,0.0,0.0,0.0,0.0,0.0,0.0,0.0,0.0,0.0,0.0,0.0,0.0,0.0,-0.2172,-0.358,-0.358,-0.7951,-1.0578,-1.0554,-1.2749,-1.4075,-1.4075,-1.379,-1.3634,-1.3627,-1.3478,-1.3403,-1.3403,-1.3403,-1.3403,-1.3231,-0.8707,-0.6659,-0.642,-0.1959,0.0,0.0,0.0,0.0,0.0,0.0,0.0,0.0,0.0,0.0,0.0,0.0,0.0,0.0,0.0,0.0,0.0,0.0,0.7795,0.8814,1.1131,1.1986,1.2916,1.4327,1.4484,1.4603,1.4803,1.4549,0.0,0.0,0.0,0.0,0.0,0.0,0.0,0.0,0.0,0.6813,0.4564,0.4591,0.3454,0.1307,0.3534,0.4564,0.4661,0.6772,0.6336,0.0,0.0,0.0,0.0,0.0,0.0,0.0,0.0,0.0,0.0,0.0,0.0,0.0,0.0,0.0,0.0,0.0,0.0,0.0,0.3695,0.0,0.1156,0.0249,0.0,0.0,0.0,0.0,0.0,0.0,0.0,0.0,0.0,0.0,0.0,0.0,0.0,0.0,0.0,0.0,0.0,0.0,0.0,0.0,0.0,0.0,0.0,0.0,-0.3594,-0.5924,-0.5836,-1.0332,-1.2312,-1.061,-1.1138,-1.2216,-1.3685,-1.3682,-1.358,-1.3471,-1.3424,-1.3403,-1.3403,-1.3403,-1.2561,-1.0965,-0.804,-0.5915,-0.4285,-0.1307,0.0,0.0,0.0,0.0,0.0,0.0,0.0,0.0,0.0,0.0,0.0,0.0,0.0,0.0,0.0,0.0,0.0,0.0,0.809,0.937,1.1739,1.2419,1.321,1.4665,1.4536,1.4522,1.4968,1.479,0.0,0.0,0.0,0.0,0.0,0.0,0.0,1.0578,0.8871,0.6709,0.4015,0.4015,0.2636,0.0054,0.2229,0.3506,0.4075,0.5641,0.5461,0.0,0.0,0.0,0.0,0.0,0.0,0.0,0.0,0.0,0.0,0.0,0.0,0.0,0.0,0.0,0.0,0.0,0.0,0.0,0.0,0.3598,0.2281,0.0,0.0,0.0,0.0,0.0,0.0,0.0,0.0,0.0,0.0,0.0,0.0,0.0,0.0,0.0,0.0,0.0,0.0,0.0,0.0,0.0,0.0,0.0,0.0,0.0,-0.3469,-0.5771,-0.5684,-0.9261,-1.0778,-0.9198,-0.9054,-0.9601,-1.0913,-1.1843,-1.265,-1.3403,-1.3403,-1.3403,-1.3403,-1.2561,-1.1386,-0.9878,-0.6839,-0.4721,-0.3278,-0.0974,0.0,0.0,0.0,0.0,0.0,0.0,0.0,0.0,0.0,0.0,0.0,0.0,0.0,0.0,0.0,0.0,0.0,0.0,0.8865,1.0276,1.1603,1.2809,1.3786,1.4346,1.4255,1.4349,1.4955,0.0,0.0,0.0,0.0,0.0,0.0,0.0,0.0,1.1891,0.9361,0.6698,0.3978,0.3981,0.2634,0.0055,0.1371,0.2739,0.3988,0.4088,0.4092,0.0,0.0,0.0,0.0,0.0,0.0,0.0,0.0,0.0,0.0,0.0,0.0,0.0,0.0,0.0,0.0,0.0,0.0,0.0,0.0,0.0,0.0,0.0,0.0057,0.0,0.0,0.0,0.0,0.0,0.0,0.0,0.0,0.0,0.0,0.0,0.0,0.0,0.0,0.0,0.0,0.0,0.0,0.0,0.0,0.0,0.0,0.0,-0.22,-0.3635,-0.3549,-0.5793,-0.6966,-0.6633,-0.6629,-0.6599,-0.6453,-0.854,-1.0798,-1.3148,-1.3321,-1.3321,-1.3148,-1.1048,-0.9873,-0.9359,-0.5217,-0.3278,-0.3077,-0.0883,0.0,0.0,0.0,0.0,0.0,0.0,0.0,0.0,0.0,0.0,0.0,0.0,0.0,0.0,0.0,0.0,0.0,0.0,0.0,0.0,0.0,1.3002,1.3454,1.3773,1.4188,1.4563,0.0,0.0,0.0,0.0,0.0,0.0,0.0,0.0,0.0,1.1891,0.9361,0.6698,0.3978,0.3978,0.2641,0.0057,0.1362,0.2728,0.4032,0.5084,0.4965,0.0,0.0,0.0,0.0,0.0,0.0,0.0,0.0,0.0,0.0,0.6906,0.6972,0.0,0.0,0.0,0.0,0.0,0.0,0.0,0.0,0.4589,0.3302,0.1776,0.0,0.0,0.0,0.0,0.0,0.0,0.0,0.0,0.0,0.0,0.0,0.0,0.0,0.0,0.0,0.0,0.0,0.0,0.0,0.0,0.0,0.0,0.0,0.0,-0.2215,-0.3596,-0.3426,-0.5642,-0.6123,-0.4296,-0.421,-0.4206,-0.4111,-0.4612,-0.6784,-1.0798,-1.2561,-1.2561,-1.0882,-1.0294,-0.8252,-0.4884,-0.3882,-0.245,-0.0802,-0.024,0.0,0.0,0.0,0.0,0.0,0.0,0.0,0.0,0.0,0.0,0.0,0.0,0.0,0.0,0.0,0.0,0.0,0.0,0.0,0.0,0.0,0.0,0.0,0.0,0.0,0.0,0.0,0.0,0.0,0.0,0.0,0.0,0.0,0.0,1.1374,1.1014,0.9023,0.6675,0.4025,0.3987,0.2636,0.0,0.0756,0.2101,0.4022,0.4777,0.4347,0.0,0.0,0.0,0.0,0.0,0.0,0.0,0.0,0.0,0.0,0.6697,0.6461,0.0,0.7102,0.7746,0.7773,0.0,0.0,0.0,0.0,0.4944,0.3458,0.281,0.1342,0.0,0.0,0.0,0.0,0.0,0.0,0.0,0.0,0.0,0.0,0.0,0.0,0.0,0.0,0.0,0.0,0.0,0.0,0.0,0.0,0.0,0.0,0.0,-0.1188,-0.195,-0.1866,-0.3049,-0.321,-0.1933,-0.1849,-0.1849,-0.1765,-0.2771,-0.5533,-0.9961,-1.122,-1.1724,-1.1552,-0.9492,-0.7207,-0.4861,-0.2777,-0.1132,0.0,0.0,0.0,0.0,0.0,0.0,0.0,0.0,0.0,0.0,0.0,0.0,0.0,0.0,0.0,0.0,0.0,0.0,0.0,0.0,0.0,0.0,0.0,0.0,0.0,0.0,0.0,0.0,0.0,0.0,0.0,0.0,0.0,0.0,0.0,1.2082,1.0894,1.0036,0.8691,0.6799,0.4337,0.4381,0.302,0.0294,0.0356,0.1674,0.398,0.4043,0.3433,0.0,0.0,0.0,0.0,0.0,0.0,0.0,0.0,0.0,0.0,0.0,0.0,0.0,0.6815,0.7753,0.778,0.759,0.0,0.0,0.0,0.0,0.0,0.3657,0.1963,0.0253,0.005,0.0,0.0,0.0,0.0,0.0,0.0,0.0,0.0,0.0,0.0,0.0,0.0,0.0,0.0,0.0,0.0,0.0,0.0,0.0,0.0,0.0,0.0,0.0,0.0,0.0,0.0,0.0,0.0,0.0,0.0,-0.1849,-0.4858,-0.9017,-0.9702,-1.0621,-1.1854,-0.8354,-0.6331,-0.557,-0.1772,0.0,0.0,0.0,0.0,0.0,0.0,0.0,0.0,0.0,0.0,0.0,0.0,0.0,0.0,0.0,0.0,0.0,0.0,0.0,0.0,0.0,0.0,0.0,0.0,0.0,0.0,0.0,0.0,0.0,0.0,0.0,0.0,0.0,0.0,0.0,1.228,1.0937,1.0233,1.0171,0.8742,0.7325,0.596,0.6186,0.4718,0.1705,0.208,0.2874,0.4,0.4283,0.4136,0.3516,0.1058,0.0,0.0,0.0202,0.0,0.0,0.0,0.0,0.0,0.0,0.0,0.0,0.6448,0.7449,0.774,0.7294,0.0,0.0,0.0,0.0,0.0,0.3901,0.2591,0.127,0.0238,0.0,0.0,0.0,0.0,0.0,0.0,0.0,0.0,0.0,0.0,0.0,0.0,0.0,0.0,0.0,0.0,0.0,0.0,0.0,0.0,0.0,0.0,0.0,0.0,0.0,0.0,0.0,0.0,0.0,0.0,-0.0337,-0.1757,-0.4301,-0.8165,-0.8335,-0.4959,-0.6101,-0.4732,-0.1044,-0.032,0.0,0.0,0.0,0.0,0.0,0.0,0.0,0.0,0.0,0.0,0.0,0.0,0.0,0.0,0.0,0.0,0.0,0.0,0.0,0.0,0.0,0.0,0.0,0.0,0.0,0.0,0.0,0.0,0.0,0.0,0.0,0.0,0.0,0.0,1.2575,1.2063,1.0146,0.9097,0.9165,0.8575,0.7719,0.6628,0.6794,0.5882,0.3836,0.379,0.4357,0.5275,0.3788,0.3471,0.3817,0.1159,0.0,0.0,0.0,0.0,0.0,0.0,0.0,0.0,0.0,0.0,0.0,0.0,0.7455,0.7645,0.7353,0.0,0.0,0.0,0.0,0.0,0.3743,0.2226,0.07,0.0146,0.0,0.0,0.0,0.0,0.0,0.0,0.0,0.0,0.0,0.0,0.0,0.0,0.0,0.0,0.0,0.0,0.0,0.0,0.0,0.0,0.0,0.0,0.0,0.0,0.0,0.0,0.0,0.0,0.0,0.0,0.0,-0.0494,-0.1474,-0.4762,-0.5991,-0.5145,-0.495,-0.3783,-0.1756,-0.0556,0.0,0.0,0.0,0.0,0.0,0.0,0.0,0.0,0.0,0.0,0.0,0.0,0.0,0.0,0.0,0.0,0.0,0.0,0.0,0.0,0.0,0.0,0.0,0.0,0.0,0.0,0.0,0.0,0.0,0.0,0.0,0.0,0.0,1.2183,1.1531,1.1686,0.9505,0.8323,0.8425,0.8533,0.824,0.7475,0.7692,0.7133,0.5926,0.5119,0.539,0.6394,0.3436,0.2838,0.3817,0.1159,0.0,0.0,0.0,0.0,0.0,0.0,0.0,0.0,0.0,0.0,0.0,0.0,0.0,0.0,0.0,0.0,0.0,0.7274,0.5729,0.4014,0.3709,0.2046,0.0347,0.0051,0.0,0.0,0.0,0.0,0.0,0.0,0.0,0.0,0.0,0.0,0.0,0.0,0.0,0.0,0.0,0.0,0.0,0.0,0.0,0.0,0.0,0.0,0.0,0.0,0.0,0.0,0.0,0.0,0.0,0.0,0.0,0.0,0.0,-0.1698,-0.3392,-0.5083,-0.3919,-0.3103,-0.2541,-0.0788,0.0,0.0,0.0,0.0,0.0,0.0,0.0,0.0,0.0,0.0,0.0,0.0,0.0,0.0,0.0,0.0,0.0,0.0,0.0,0.0,0.0,0.0,0.0,0.0,0.0,0.0,0.0,0.0,0.0,0.0,0.0,0.0,0.0,1.0828,1.0149,1.0167,0.8946,0.8465,0.8824,0.8844,0.8999,0.9245,0.962,0.9024,0.7556,0.575,0.5486,0.6398,0.3656,0.3013,0.3817,0.1159,0.0,0.0,0.0,0.0,0.0,0.0,0.0,0.0,0.0,0.0,0.0,0.0,0.0,0.0,0.0,0.0,0.7597,0.757,0.6577,0.5213,0.4079,0.2752,0.142,0.0263,0.0,0.0,0.0,0.0,0.0,0.0,0.0,0.0,0.0,0.0,0.0,0.0,0.0,0.0,0.0,0.0,0.0,0.0,0.0,0.0,0.0,0.0,0.0,0.0,0.0,0.0,0.0,0.0,0.0,0.0,0.0,0.0,0.0,-0.016,-0.032,-0.048,-0.2474,-0.2299,-0.0236,-0.0079,0.0,0.0,0.0,0.0,0.0,0.0,0.0,0.0,0.0,0.0,0.0,0.0,0.0,0.0,0.0,0.0,0.0,0.0,0.0,0.0,0.0,0.0,0.0,0.0,0.0,0.0,0.0,0.0,0.0,0.0,0.0,0.0,0.0,1.1023,1.0883,1.0154,0.9028,0.8526,0.8791,0.9069,0.9456,0.9937,1.0202,0.9424,0.7781,0.5868,0.5081,0.5103,0.2258,0.1633,0.2615,0.0806,0.0,0.0,0.0,0.0,0.0,0.0,0.0,0.0,0.0,0.0,0.0,0.0,0.7353,0.7489,0.7353,0.7509,0.7549,0.6526,0.5419,0.4212,0.2893,0.1632,0.0566,0.0104,0.0,0.0,0.0,0.0,0.0,0.0,0.0,0.0,0.0,0.0,0.0,0.0,0.0,0.0,0.0,0.0,0.0,0.0,0.0,0.0,0.0,0.0,0.0,0.0,0.0,0.0,0.0,0.0,0.0,0.0,0.0,0.0,0.0,0.0,0.0,0.0,-0.0869,-0.0867,0.0,0.0,0.0,0.0,0.0,0.0,0.0,0.0,0.0,0.0,0.0,0.0,0.0,0.0,0.0,0.0,0.0,0.0,0.0,0.0,0.0,0.0,0.0,0.0,0.0,0.0,0.0,0.0,0.0,0.0,0.0,0.0,0.0,0.0,0.941,1.019,1.034,0.9527,0.8837,0.8506,0.871,0.915,0.9605,1.0066,1.0256,0.9431,0.7726,0.5869,0.4848,0.4385,0.1364,0.077,0.1895,0.0561,0.0,0.0,0.0,0.0,0.0,0.0,0.0,0.0,0.0,0.0,0.0,0.0,0.7319,0.7441,0.7328,0.7217,0.6887,0.5894,0.4487,0.3025,0.2097,0.0976,0.0,0.0,0.0,0.0,0.0,0.0,0.0,0.0,0.0,0.0,0.0,0.0,0.0,0.0,0.0,0.0,0.0,0.0,0.0,0.0,0.0,0.0,0.0,0.0,0.0,0.0,0.0,0.0,0.0,0.0,0.0,0.0,0.0,0.0,0.0,0.0,0.0,0.0,0.0,0.0,0.0,0.0,0.0,0.0,0.0,0.0,0.0,0.0,0.0,0.0,0.0,0.0,0.0,0.0,0.0,0.0,0.0,0.0,0.0,0.0,0.0,0.0,0.0,0.0,0.0,0.0,0.0,0.0,0.0,0.0,0.0,0.0,0.0,0.0,0.7988,0.7988,0.7988,0.7988,0.8187,0.8404,0.8696,0.9144,0.9449,0.9612,0.9842,0.9142,0.7541,0.5747,0.4708,0.4349,0.1352,0.0746,0.1911,0.0575,0.0,0.0,0.0,0.0,0.0,0.0,0.0,0.0,0.0,0.0,0.0,0.0,0.7265,0.7173,0.7617,0.675,0.5624,0.5888,0.4098,0.2,0.2,0.1016,0.0,0.0,0.0,0.0,0.0,0.0,0.0,0.0,0.0,0.0,0.0,0.0,0.0,0.0,0.0,0.0,0.0,0.0,0.0,0.0,0.0,0.0,0.0,0.0,0.0,0.0,0.0,0.0,0.0,0.0,0.0,0.0,0.0,0.0,0.0,0.0,0.0,0.0,0.0,0.0,0.0,0.0,0.0,0.0,0.0,0.0,0.0,0.0,0.0,0.0,0.0,0.0,0.0,0.0,0.0,0.0,0.0,0.0,0.0,0.0,0.0,0.0,0.0,0.0,0.0,0.0,0.0,0.0,0.0,0.0,0.0,0.0,0.0,0.0,0.8038,0.8874,0.8973,0.8038,0.8187,0.8262,0.819,0.8574,0.9083,0.9754,0.8763,0.7375,0.5528,0.3954,0.2535,0.1274,0.0373,0.021,0.0564,0.0153,0.0,0.0,0.0,0.0,0.005,0.0,0.0,0.0,0.0,0.0,0.0,0.0,0.0,0.0,0.5103,0.4686,0.4263,0.3349,0.2553,0.1773,0.0864,0.0302,0.0,0.0,0.0,0.0,0.0,0.0,0.0,0.0,0.0,0.0,0.0,0.0,0.0,0.0,0.0,0.0,0.0,0.0,0.0,0.0,0.0,0.0,0.0,0.0,0.0,0.0,0.0,0.0,0.0,0.0,0.0,0.0,0.0,0.0,0.0,0.0,0.0,0.0,0.0,0.0,0.0,0.0,0.0,0.0,0.0,0.0,0.0,0.0,0.0,0.0,0.0,0.0,0.0,0.0,0.0,0.0,0.0,0.0,0.0,0.0,0.0,0.0,0.0,0.0,0.0,0.0,0.7988,0.7988,0.0,0.0,0.0,0.0,0.0,0.0,0.0,0.8775,0.8825,0.8038,0.8126,0.8187,0.8214,0.8452,0.8804,0.9286,0.7974,0.6389,0.4597,0.3187,0.1607,0.0,0.0,0.0,0.0,0.0,0.0,0.0,0.0,0.0,0.0,0.0,0.0,0.0,0.0,0.0,0.0,0.0,0.0,0.0,0.3916,0.3442,0.2951,0.2124,0.1563,0.1024,0.0197,0.0,0.0,0.0,0.0,0.0,0.0,0.0,0.0,0.0,0.0,0.0,0.0,0.0,0.0,0.0,0.0,0.0,0.0,0.0,0.0,0.0,0.0,0.0,0.0,0.0,0.0,0.0,0.0,0.0,0.0,0.0,0.0,0.0,0.0,0.0,0.0,0.0,0.0,0.0,0.0,0.0,0.0,0.0,0.0,0.0,0.0,0.0,0.0,0.0,0.0,0.0,0.0,0.0,0.0,0.0,0.0,0.0,0.0,0.0,0.0,0.0,0.0,0.0,0.0,0.0,0.0,0.0,0.7988,0.7988,0.0,0.0,0.0,0.0,0.0,0.0,0.0,0.7988,0.7988,0.7988,0.8002,0.8194,0.8479,0.8608,0.8601,0.8465,0.7268,0.59,0.4397,0.2959,0.1475,0.0,0.0,0.0,0.0,0.0,0.0,0.0,0.0,0.0,0.0,0.0145,0.0,0.0,0.0,0.0,0.0,0.0,0.0,0.0,0.3452,0.2606,0.1665,0.1763,0.097,0.0,0.0,0.0,0.0,0.0,0.0,0.0,0.0,0.0,0.0,0.0,0.0,0.0,0.0,0.0,0.0,0.0,0.0,0.0,0.0,0.0,0.0,0.0,0.0,0.0,0.0,0.0,0.0,0.0,0.0,0.0,0.0,0.0,0.0,0.0,0.0,0.0,0.0,0.0,0.0,0.0,0.0,0.0,0.0,0.0,0.0,0.0,0.0,0.0,0.0,0.0,0.0,0.0,0.0,0.0,0.0,0.0,0.0,0.0,0.0,0.0,0.0,0.0,0.0,0.0,0.0,0.0,0.0,0.0,0.0,0.0,0.0,0.0,0.0,0.0,0.0,0.0,0.0,0.7988,0.7988,0.7988,0.8153,0.8303,0.8479,0.8404,0.835,0.8368,0.6104,0.4722,0.4053,0.1647,0.0335,0.0,0.0,0.0,0.0,0.0,0.0,0.0,0.0,0.0,0.0099,0.1057,0.0802,0.0,0.0,0.0,0.0,0.0,0.0,0.0,0.1092,0.0616,0.0398,0.0441,0.0231,0.0,0.0,0.0,0.0,0.0,0.0,0.0,0.0,0.0,0.0,0.0,0.0,0.0,0.0,0.0,0.0,0.0,0.0,0.0,0.0,0.0,0.0,0.0,0.0,0.0,0.0,0.0,0.0,0.0,0.0,0.0,0.0,0.0,0.0,0.0,0.0,0.0,0.0,0.0,0.0,0.0,0.0,0.0,0.0,0.0,0.0,0.0,0.0,0.0,0.0,0.0,0.0,0.0,0.0,0.0,0.0,0.0,0.0,0.0,0.0,0.0,0.0,0.0,0.0,0.0,0.0,0.0,0.0,0.0,0.0,0.0,0.0,0.0,0.0,0.0,0.0,0.0,0.0,0.7988,0.8022,0.8147,0.8228,0.8354,0.8377,0.8361,0.8235,0.816,0.5555,0.4185,0.3927,0.1267,0.0,0.0,0.0,0.0,0.0,0.0,0.0,0.0,0.0,0.0346,0.0929,0.1471,0.1344,0.0998,0.2217,0.0,0.0,0.0,0.0,0.0,0.0,0.0,0.0,0.0,0.0,0.0,0.0,0.0,0.0,0.0,0.0,0.0,0.0,0.0,0.0,0.0,0.0,0.0,0.0,0.0,0.0,0.0,0.0,0.0,0.0,0.0,0.0,0.0,0.0,0.0,0.0,0.0,0.0,0.0,0.0,0.0,0.0,0.0,0.0,0.0,0.0,0.0,0.0,0.0,0.0,0.0,0.0,0.0,0.0,0.0,0.0,0.0,0.0,0.0,0.0,0.0,0.0,0.0,0.0,0.0,0.0,0.0,0.0,0.0,0.0,0.0,0.0,0.0,0.0,0.0,0.0,0.0,0.0,0.0,0.0,0.0,0.0,0.0,0.0,0.0,0.0,0.0,0.0,0.7988,0.8106,0.8313,0.832,0.8333,0.8354,0.8255,0.8079,0.7722,0.5177,0.3878,0.3581,0.1171,0.0,0.0,0.0,0.0,0.0,0.0,0.0,0.0,0.0,0.0591,0.1498,0.1585,0.1586,0.1509,0.1608,0.0909,0.0,0.0,0.0,0.0,0.0,0.0,0.0,0.0,0.0,0.0,0.0,0.0,0.0,0.0,0.0,0.0,0.0,0.0,0.0,0.0,0.0,0.0,0.0,0.0,0.0,0.0,0.0,0.0,0.0,0.0,0.0,0.0,0.0,0.0,0.0,0.0,0.0,0.0,0.0,0.0,0.0,0.0,0.0,0.0,0.0,0.0,0.0,0.0,0.0,0.0,0.0,0.0,0.0,0.0,0.0,0.0,0.0,0.0,0.0,0.0,0.0,0.0,0.0,0.0,0.0,0.0,0.0,0.0,0.0,0.0,0.0,0.0,0.0,0.0,0.0,0.0,0.0,0.0,0.5272,0.4968,0.6126,0.6282,0.0,0.0,0.0,0.0,0.7988,0.0,0.0,0.8313,0.832,0.833,0.8452,0.8201,0.756,0.6527,0.4708,0.3305,0.2208,0.0733,0.0,0.0,0.0,0.0,0.0,0.0,0.0,0.0,0.0,0.0093,0.0372,0.1361,0.1154,0.0392,0.1402,0.1026,0.0,0.0,0.0,0.0,0.0,0.0,0.0,0.0,0.0,0.0,0.0,0.0,0.0,0.0,0.0,0.0,0.0,0.0,0.0,0.0,0.0,0.0,0.0,0.0,0.0,0.0,0.0,0.0,0.0,0.0,0.0,0.0,0.0,0.0,0.0,0.0,0.0,0.0,0.0,0.0,0.0,0.0,0.0,0.0,0.0,0.0,0.0,0.0,0.0,0.0,0.0,0.0,0.0,0.0,0.0,0.0,0.0,0.0,0.0,0.0,0.0,0.0,0.0,0.0,0.0,0.0,0.0,0.0,0.0,0.0,0.0,0.0,0.0,0.0,0.0,0.0,0.0,0.0,0.0,0.4218,0.4818,0.5577,0.0,0.0,0.0,0.0,0.7988,0.7988,0.0,0.8313,0.8187,0.8214,0.8364,0.8065,0.7681,0.727,0.4943,0.3549,0.3095,0.0978,0.0,0.0,0.0,0.0,0.0,0.0,0.0,0.0,0.0,0.0383,0.1076,0.1496,0.1387,0.1089,0.1523,0.0954,0.0,0.0,0.0,0.0,0.0,0.0,0.0,0.0,0.0,0.0,0.0,0.0,0.0,0.0,0.0,0.0,0.0,0.0,0.0,0.0,0.0,0.0,0.0,0.0,0.0,0.0,0.0,0.0,0.0,0.0,0.0,0.0,0.0,0.0,0.0,0.0,0.0,0.0,0.0,0.0,0.0,0.0,0.0,0.0,0.0,0.0,0.0,0.0,0.0,0.0,0.0,0.0,0.0,0.0,0.0,0.0,0.0,0.0,0.0,0.0,0.0,0.0,0.0,0.0,0.0,0.0,0.0,0.0,0.0,0.0,0.0,0.0,0.0,0.0,0.0,0.0,0.0,0.0,0.0,0.0,0.3466,0.0,0.0,0.0,0.0,0.0,0.7988,0.0,0.0,0.0,0.0,0.8092,0.8208,0.7916,0.7634,0.7434,0.5285,0.3975,0.3402,0.1409,0.0308,0.0,0.0,0.0,0.0,0.0,0.0,0.0,0.0,0.055,0.1336,0.1238,0.1236,0.1317,0.1235,0.0681,0.0,0.0,0.0,0.0,0.0,0.0,0.0,0.0,0.0,0.0,0.0,0.0,0.0,0.0,0.0,0.0,0.0,0.0,0.0,0.0,0.0,0.0,0.0,0.0,0.0,0.0,0.0,0.0,0.0,0.0,0.0,0.0,0.0,0.0,0.0,0.0,0.0,0.0,0.0,0.0,0.0,0.0,0.0,0.0,0.0,0.0,0.0,0.0,0.0,0.0,0.0,0.0,0.0,0.0,0.0,0.0,0.0,0.0,0.0,0.0,0.0,0.0,0.0,0.0,0.0,0.0,0.0,0.0,0.0,0.0,0.0,0.0,0.0,0.0,0.0,0.0,0.0,0.0,0.0,0.0,0.1962,0.2163,0.2714,0.4017,0.0,0.0,0.0,0.0,0.0,0.0,0.0,0.0,0.8002,0.776,0.7054,0.5917,0.5656,0.4259,0.1939,0.1909,0.1199,0.0,0.0,0.0,0.0,0.0,0.0,0.0,0.0,0.0052,0.0104,0.0107,0.0108,0.0108,0.0098,0.0048,0.0,0.0,0.0,0.0,0.0,0.0,0.0,0.0,0.0,0.0,0.0,0.0,0.0,0.0,0.0,0.0,0.0,0.0,0.0,0.0,0.0,0.0,0.0,0.0,0.0,0.0,0.0,0.0,0.0,0.0,0.0,0.0,0.0,0.0,0.0,0.0,0.0,0.0,0.0,0.0,0.0,0.0,0.0,0.0,0.0,0.0,0.0,0.0,0.0,0.0,0.0,0.0,0.0,0.0,0.0,0.0,0.0,0.0,0.0,0.0,0.0,0.0,0.0,0.0,0.0,0.0,0.0,0.0,0.0,0.0,0.0,0.0,0.0,0.0,0.0,0.0,0.0,0.0,0.0,0.0,0.0,0.146,0.2213,0.2663,0.4722,0.0,0.0,0.0,0.0,0.0,0.0,0.0,0.7988,0.7753,0.7428,0.7076,0.6074,0.4752,0.3088,0.2351,0.1309,0.0,0.0,0.0,0.0,0.0,0.0,0.0,0.0,0.0,0.0,0.0,0.0,0.0,0.0,0.0,0.0,0.0,0.0,0.0,0.0,0.0,0.0,0.0,0.0,0.0,0.0,0.0,0.0,0.0,0.0,0.0,0.0,0.0,0.0,0.0,0.0,0.0,0.0,0.0,0.0,0.0,0.0,0.0,0.0,0.0,0.0,0.0,0.0,0.0,0.0,0.0,0.0,0.0,0.0,0.0,0.0,0.0,0.0,0.0,0.0,0.0,0.0,0.0,0.0,0.0,0.0,0.0,0.0,0.0,0.0,0.0,0.0,0.0,0.0,0.0,0.0,0.0,0.0,0.0,0.0,0.0,0.0,0.0,0.0,0.0,0.0,0.0,0.0,0.0,0.0,0.0,0.1008,0.0101,0.0,0.0,0.0,0.0,0.1511,0.1962,0.362,0.5422,0.7235,0.7335,0.0,0.0,0.0,0.0,0.6675,0.687,0.7019,0.7056,0.6537,0.5655,0.4365,0.3181,0.1925,0.0637,0.0176,0.0,0.0,0.0,0.0,0.0,0.0,0.0,0.0,0.0,0.0,0.0,0.0,0.0,0.0,0.0,0.0,0.0,0.0,0.0,0.0,0.0,0.0,0.0,0.0,0.0,0.0,0.0,0.0,0.0,0.0,0.0,0.0,0.0,0.0,0.0,0.0,0.0,0.0,0.0,0.0,0.0,0.0,0.0,0.0,0.0,0.0,0.0,0.0,0.0,0.0,0.0,0.0,0.0,0.0,0.0,0.0,0.0,0.0,0.0,0.0,0.0,0.0,0.0,0.0,0.0,0.0,0.0,0.0,0.0,0.0,0.0,0.0,0.0,0.0,0.0,0.0,0.0,0.0,0.0,0.0,0.0,0.0,0.0,0.0,0.0,0.0,0.0,0.0,0.0,0.0,0.0,0.0,0.0,0.0,0.0,0.0,0.1865,0.2016,0.312,0.5777,0.5927,0.0,0.0,0.0,0.0,0.4017,0.5125,0.5706,0.5591,0.6879,0.6888,0.556,0.4351,0.3129,0.1925,0.0604,0.0,0.0,0.0,0.0,0.0,0.0,0.0,0.0,0.0,0.0,0.0,0.0,0.0,0.0,0.0,0.0,0.0,0.0,0.0,0.0,0.0,0.0,0.0,0.0,0.0,0.0,0.0,0.0,0.0,0.0,0.0,0.0,0.0,0.0,0.0,0.0,0.0,0.0,0.0,0.0,0.0,0.0,0.0,0.0,0.0,0.0,0.0,0.0,0.0,0.0,0.0,0.0,0.0,0.0,0.0,0.0,0.0,0.0,0.0,0.0,0.0,0.0,0.0,0.0,0.0,0.0,0.0,0.0,0.0,0.0,0.0,0.0,0.0,0.0,0.0,0.0,0.0,0.0,0.0,0.0,0.0,0.0,0.0,0.0,0.0,0.0,0.1962,0.0252,0.0,0.0,0.0,0.0,0.0,0.0,0.0,0.0525,0.1885,0.1989,0.2742,0.4425,0.4568,0.4568,0.4568,0.4568,0.4368,0.4017,0.4241,0.4739,0.5591,0.5973,0.5936,0.5431,0.4336,0.3109,0.1792,0.0539,0.0,0.0,0.0,0.0,0.0,0.0,0.0,0.0,0.0,0.0,0.0,0.0,0.0,0.0,0.0,0.0,0.0,0.0,0.0,0.0,0.0,0.0,0.0,0.0,0.0,0.0,0.0,0.0,0.0,0.0,0.0,0.0,0.0,0.0,0.0,0.0,0.0,0.0,0.0,0.0,0.0,0.0,0.0,0.0,0.0,0.0,0.0,0.0,0.0,0.0,0.0,0.0,0.0,0.0,0.0,0.0,0.0,0.0,0.0,0.0,0.0,0.0,0.0,0.0,0.0,0.0,0.0,0.0,0.0,0.0,0.0,0.0,0.0,0.0,0.0,0.0,0.0,0.0,0.0,0.0,0.0,0.0,0.0,0.0,0.4271,0.3397,0.224,0.0313,0.0,0.0,0.0,0.0,0.0,0.0,0.0,0.0331,0.1079,0.1175,0.1733,0.3056,0.3179,0.3165,0.3165,0.3165,0.2914,0.2364,0.2785,0.361,0.4789,0.5308,0.5821,0.6219,0.5002,0.3806,0.2558,0.1315,0.0464,0.0,0.0,0.0,0.0,0.0,0.0,0.0,0.0,0.0,0.0,0.0,0.0,0.0,0.0,0.0,0.0,0.0,0.0,0.0,0.0,0.0,0.0,0.0,0.0,0.0,0.0,0.0,0.0,0.0,0.0,0.0,0.0,0.0,0.0,0.0,0.0,0.0,0.0,0.0,0.0,0.0,0.0,0.0,0.0,0.0,0.0,0.0,0.0,0.0,0.0,0.0,0.0,0.0,0.0,0.0,0.0,0.0,0.0,0.0,0.0,0.0,0.0,0.0,0.0,0.0,0.0,0.0,0.0,0.0,0.0,0.0,0.0,0.0,0.0,0.0,0.0,0.0,0.0,0.0,0.0,0.0,0.0,0.5632,0.4268,0.4,0.3057,0.0385,0.0,0.0,0.0,0.0,0.0,0.0,0.0,0.0,0.0,0.0,0.0531,0.1715,0.1782,0.1762,0.1762,0.1762,0.121,0.005,0.1159,0.2324,0.3382,0.4746,0.6007,0.7138,0.5837,0.4682,0.3722,0.223,0.099,0.0,0.0,0.0,0.0,0.0,0.0,0.0,0.0,0.0,0.0,0.0,0.0,0.0,0.0,0.0,0.0,0.0,0.0,0.0,0.0,0.0,0.0,0.0,0.0,0.0,0.0,0.0,0.0,0.0,0.0,0.0,0.0,0.0,0.0,0.0,0.0,0.0,0.0,0.0,0.0,0.0,0.0,0.0,0.0,0.0,0.0,0.0,0.0,0.0,0.0,0.0,0.0,0.0,0.0,0.0,0.0,0.0,0.0,0.0,0.0,0.0,0.0,0.0,0.0,0.0,0.0,0.0,0.0,0.0,0.0,0.0,0.0,0.0,0.0,0.0,0.0,0.0,0.0,0.0,0.0,0.0,0.4391,0.4497,0.424,0.3309,0.1983,0.0284,0.0,0.0,0.0,0.0,0.0,0.0,0.0,0.0,0.0,0.0,0.011,0.0372,0.0411,0.0404,0.0404,0.0404,0.0252,0.0,0.0252,0.0948,0.2142,0.3397,0.4601,0.5756,0.4525,0.3826,0.3525,0.1331,0.0232,0.0,0.0,0.0,0.0,0.0,0.0,0.0,0.0,0.0,0.0,0.0,0.0,0.0,0.0,0.0,0.0,0.0,0.0,0.0,0.0,0.0,0.0,0.0,0.0,0.0,0.0,0.0,0.0,0.0,0.0,0.0,0.0,0.0,0.0,0.0,0.0,0.0,0.0,0.0,0.0,0.0,0.0,0.0,0.0,0.0,0.0,0.0,0.0,0.0,0.0,0.0,0.0,0.0,0.0,0.0,0.0,0.0,0.0,0.0,0.0,0.0,0.0,0.0,0.0,0.0,0.0,0.0,0.0,0.0,0.0,0.0,0.0,0.0,0.0,0.0,0.0,0.0,0.0,0.0,0.0,0.3769,0.3642,0.3404,0.4069,0.3078,0.1719,0.0237,0.0,0.0,0.0,0.0,0.0,0.0,0.0,0.0,0.0,0.0,0.0,0.0,0.0,0.0,0.0,0.0,0.0,0.0,0.0,0.06,0.1813,0.302,0.3899,0.451,0.4508,0.3859,0.2668,0.1438,0.0567,0.0,0.0,0.0,0.0,0.0,0.0,0.0,0.0,0.0,0.0,0.0,0.0,0.0,0.0,0.0,0.0,0.0,0.0,0.0,0.0,0.0,0.0,0.0,0.0,0.0,0.0,0.0,0.0,0.0,0.0,0.0,0.0,0.0,0.0,0.0,0.0,0.0,0.0,0.0,0.0,0.0,0.0,0.0,0.0,0.0,0.0,0.0,0.0,0.0,0.0,0.0,0.0,0.0,0.0,0.0,0.0,0.0,0.0,0.0,0.0,0.0,0.0,0.0,0.0,0.0,0.0,0.0,0.0,0.0,0.0,0.0,0.0,0.0,0.0,0.0,0.0,0.0,0.0,0.0,0.0,0.3988,0.3324,0.2606,0.3962,0.3102,0.1722,0.0246,0.0,0.0,0.0,0.0,0.0,0.0,0.0,0.0,0.0,0.0,0.0,0.0,0.0,0.0,0.0,0.0,0.0,0.0,0.0,0.05,0.1471,0.2637,0.3243,0.327,0.4238,0.368,0.1791,0.1553,0.092,0.0,0.0,0.0,0.0,0.0,0.0,0.0,0.0,0.0,0.0,0.0,0.0,0.0,0.0,0.0,0.0,0.0,0.0,0.0,0.0,0.0,0.0,0.0,0.0,0.0,0.0,0.0,0.0,0.0,0.0,0.0,0.0,0.0,0.0,0.0,0.0,0.0,0.0,0.0,0.0,0.0,0.0,0.0,0.0,0.0,0.0,0.0,0.0,0.0,0.0,0.0,0.0,0.0,0.0,0.0,0.0,0.0,0.0,0.0,0.0,0.0,0.0,0.0,0.0,0.0,0.0,0.0,0.0,0.0,0.0,0.0,0.0,0.0,0.0,0.0,0.0,0.0,0.0,0.0,0.0,0.5265,0.3995,0.2644,0.3947,0.3102,0.1722,0.0246,0.0,0.0,0.0,0.0,0.0,0.0,0.0,0.0,0.0,0.0,0.0,0.0,0.0,0.0,0.0,0.0,0.0,0.0,0.0,0.005,0.0196,0.1394,0.2024,0.203,0.2124,0.2041,0.1768,0.0661,0.0146,0.0,0.0,0.0,0.0,0.0,0.0,0.0,0.0,0.0,0.0,0.0,0.0,0.0,0.0,0.0,0.0,0.0,0.0,0.0,0.0,0.0,0.0,0.0,0.0,0.0,0.0,0.0,0.0,0.0,0.0,0.0,0.0,0.0,0.0,0.0,0.0,0.0,0.0,0.0,0.0,0.0,0.0,0.0,0.0,0.0,0.0,0.0,0.0,0.0,0.0,0.0,0.0,0.0,0.0,0.0,0.0,0.0,0.0,0.0,0.0,0.0,0.0,0.0,0.0,0.0,0.0,0.0,0.0,0.0,0.0,0.0,0.0,0.0,0.0,0.0,0.0,0.0,0.0,0.0,0.0,0.4431,0.2856,0.1357,0.2804,0.1871,0.0704,0.0121,0.0,0.0,0.0,0.0,0.0,0.0,0.0,0.0,0.0,0.0,0.0,0.0,0.0,0.0,0.0,0.0,0.0,0.0,0.0,0.0,0.0,0.1188,0.1443,0.0785,0.1492,0.144,0.0743,0.025,0.0,0.0,0.0,0.0,0.0,0.0,0.0,0.0,0.0,0.0,0.0,0.0,0.0,0.0,0.0,0.0,0.0,0.0,0.0,0.0,0.0,0.0,0.0,0.0,0.0,0.0,0.0,0.0,0.0,0.0,0.0,0.0,0.0,0.0,0.0,0.0,0.0,0.0,0.0,0.0,0.0,0.0,0.0,0.0,0.0,0.0,0.0,0.0,0.0,0.0,0.0,0.0,0.0,0.0,0.0,0.0,0.0,0.0,0.0,0.0,0.0,0.0,0.0,0.0,0.0,0.0,0.0,0.0,0.0,0.0,0.0,0.0,0.0,0.0,0.0,0.0,0.0,0.0,0.0,0.0,0.0,0.314,0.1639,0.0432,0.1895,0.0948,0.0,0.0,0.0,0.0,0.0,0.0,0.0,0.0,0.0,0.0,0.0,0.0,0.0,0.0,0.0,0.0,0.0,0.0,0.0,0.0,0.0,0.0,0.0,0.09,0.0839,0.0,0.0913,0.0851,0.0,0.0,0.0,0.0,0.0,0.0,0.0,0.0,0.0,0.0,0.0,0.0,0.0,0.0,0.0,0.0,0.0,0.0,0.0,0.0,0.0,0.0,0.0,0.0,0.0,0.0,0.0,0.0,0.0,0.0,0.0,0.0,0.0,0.0,0.0,0.0,0.0,0.0,0.0,0.0,0.0,0.0,0.0,0.0,0.0,0.0,0.0,0.0,0.0,0.0,0.0,0.0,0.0,0.0,0.0,0.0,0.0,0.0,0.0,0.0,0.0,0.0,0.0,0.0,0.0,0.0,0.0,0.0,0.0,0.0,0.0,0.0,0.0,0.0,0.0,0.0,0.0,0.0,0.0,0.0,0.0,0.0,0.0,0.1804,0.0934,0.0418,0.175,0.0877,0.0,0.0,0.0,0.0,0.0,0.0,0.0,0.0,0.0,0.0,0.0,0.0,0.0,0.0,0.0,0.0,0.0,0.0,0.0,0.0,0.0,0.0,0.0,0.0048,0.0048,0.0,0.0047,0.0047,0.0,0.0,0.0,0.0,0.0,0.0,0.0,0.0,0.0,0.0,0.0,0.0,0.0,0.0,0.0,0.0,0.0,0.0,0.0,0.0,0.0,0.0,0.0,0.0,0.0,0.0,0.0,0.0,0.0,0.0,0.0,0.0,0.0,0.0,0.0,0.0,0.0,0.0,0.0,0.0,0.0,0.0,0.0,0.0,0.0,0.0,0.0,0.0,0.0,0.0,0.0,0.0,0.0,0.0,0.0,0.0,0.0,0.0,0.0,0.0,0.0,0.0,0.0,0.0,0.0,0.0,0.0,0.0,0.0,0.0,0.0,0.0,0.0,0.0,0.0,0.0,0.0,0.0,0.0,0.0,0.0,0.0,0.0,0.058,0.032,0.016,0.0577,0.0323,0.0,0.0,0.0,0.0,0.0,0.0,0.0,0.0,0.0,0.0,0.0,0.0,0.0,0.0,0.0,0.0,0.0,0.0,0.0,0.0,0.0,0.0,0.0,0.0,0.0,0.0,0.0,0.0,0.0,0.0,0.0,0.0,0.0,0.0,0.0,0.0,0.0,0.0,0.0,0.0,0.0,0.0,0.0,0.0,0.0,0.0,0.0,0.0,0.0,0.0,0.0,0.0,0.0,0.0,0.0,0.0,0.0,0.0,0.0,0.0,0.0,0.0,0.0,0.0,0.0,0.0,0.0,0.0,0.0,0.0,0.0,0.0,0.0,0.0,0.0,0.0,0.0,0.0,0.0,0.0,0.0,0.0,0.0,0.0,0.0,0.0,0.0,0.0,0.0,0.0,0.0,0.0,0.0,0.0,0.0,0.0,0.0,0.0,0.0,0.0,0.0,0.0,0.0,0.0,0.0,0.0,0.0,0.0,0.0,0.0,0.0336,0.0,0.0,0.0,0.0,0.0,0.0,0.0,0.0,0.0,0.0,0.0,0.0,0.0,0.0,0.0,0.0,0.0,0.0,0.0,0.0,0.0,0.0,0.0,0.0,0.0,0.0,0.0,0.0,0.0,0.0,0.0,0.0,0.0,0.0,0.0,0.0,0.0,0.0,0.0,0.0,0.0,0.0,0.0,0.0,0.0,0.0,0.0,0.0,0.0,0.0,0.0,0.0,0.0,0.0,0.0,0.0,0.0,0.0,0.0,0.0,0.0,0.0,0.0,0.0,0.0,0.0,0.0,0.0,0.0,0.0,0.0,0.0,0.0,0.0,0.0,0.0,0.0,0.0,0.0,0.0,0.0,0.0,0.0,0.0,0.0,0.0,0.0,0.0,0.0,0.0,0.0,0.0,0.0,0.0,0.0,0.0,0.0,0.0,0.0,0.0,0.0,0.0,0.0,0.0,0.0,0.0,0.0,0.0,0.0,0.0,0.0,0.0,0.0,0.0,0.0404,0.1411,0.0,0.0,0.0,0.0,0.0,0.0,0.0,0.0,0.0,0.0,0.0,0.0,0.0,0.0,0.0,0.0,0.0,0.0,0.0,0.0,0.0,0.0,0.0,0.0,0.0,0.0,0.0,0.0,0.0,0.0,0.0,0.0,0.0,0.0,0.0,0.0,0.0,0.0,0.0,0.0,0.0,0.0,0.0,0.0,0.0,0.0,0.0,0.0,0.0,0.0,0.0,0.0,0.0,0.0,0.0,0.0,0.0,0.0,0.0,0.0,0.0,0.0,0.0,0.0,0.0,0.0,0.0,0.0,0.0,0.0,0.0,0.0,0.0,0.0,0.0,0.0,0.0,0.0,0.0,0.0,0.0,0.0,0.0,0.0,0.0,0.0,0.0,0.0,0.0,0.0,0.0,0.0,0.0,0.0,0.0,0.0,0.0,0.0,0.0,0.0,0.0,0.0,0.0,0.0,0.0,0.0,0.0,0.0,0.0,0.0,0.0,0.0,0.0,0.0,0.1143,0.2954,0.0,0.0,0.0,0.0,0.0,0.0,0.0,0.0,0.0,0.0,0.0,0.0,0.0,0.0,0.0,0.0,0.0,0.0,0.0,0.0,0.0,0.0,0.0,0.0,0.0,0.0,0.0,0.0,0.0,0.0,0.0,0.0,0.0,0.0,0.0,0.0,0.0,0.0,0.0,0.0,0.0,0.0,0.0,0.0,0.0,0.0,0.0,0.0,0.0,0.0,0.0,0.0,0.0,0.0,0.0,0.0,0.0,0.0,0.0,0.0,0.0,0.0,0.0,0.0,0.0,0.0,0.0,0.0,0.0,0.0,0.0,0.0,0.0,0.0,0.0,0.0,0.0,0.0,0.0,0.0,0.0,0.0,0.0,0.0,0.0,0.0,0.0,0.0,0.0,0.0,0.0,0.0,0.0,0.0,0.0,0.0,0.0,0.0,0.0,0.0,0.0,0.0,0.0,0.0,0.0,0.0,0.0,0.0,0.0,0.0,0.0,0.0,0.0,0.0,0.1143,0.2954,0.0,0.0,0.0,0.0,0.0,0.0,0.0,0.0,0.0,0.0,0.0,0.0,0.0,0.0,0.0,0.0,0.0,0.0,0.0,0.0,0.0,0.0,0.0,0.0,0.0,0.0,0.0,0.0,0.0,0.0,0.0,0.0,0.0,0.0,0.0,0.0,0.0,0.0,0.0,0.0,0.0,0.0,0.0,0.0,0.0,0.0,0.0,0.0,0.0,0.0,0.0,0.0,0.0,0.0,0.0,0.0,0.0,0.0,0.0,0.0,0.0,0.0,0.0,0.0,0.0,0.0,0.0,0.0,0.0,0.0,0.0,0.0,0.0,0.0,0.0,0.0,0.0,0.0,0.0,0.0,0.0,0.0,0.0,0.0,0.0,0.0,0.0,0.0,0.0,0.0,0.0,0.0,0.0,0.0,0.0,0.0,0.0,0.0,0.0,0.0,0.0,0.0,0.0,0.0,0.0,0.0,0.0,0.0,0.0,0.0,0.0,0.0,0.0,0.0,0.168,0.4024,0.0,0.0,0.0,0.0,0.0,0.0,0.0,0.0,0.0,0.0,0.0,0.0,0.0,0.0,0.0,0.0,0.0,0.0,0.0,0.0,0.0,0.0,0.0,0.0,0.0,0.0,0.0,0.0,0.0,0.0,0.0,0.0,0.0,0.0,0.0,0.0,0.0,0.0,0.0,0.0,0.0,0.0,0.0,0.0,0.0,0.0,0.0,0.0,0.0,0.0,0.0,0.0,0.0,0.0,0.0,0.0,0.0,0.0,0.0,0.0,0.0,0.0,0.0,0.0,0.0,0.0,0.0,0.0,0.0,0.0,0.0,0.0,0.0,0.0,0.0,0.0,0.0,0.0,0.0,0.0,0.0145,0.0,0.0,0.0,0.0,0.0,0.0,0.0,0.0,0.0,0.0,0.0,0.0,0.0,0.0,0.0202,0.0202,0.0,0.0269,0.0202,0.0,0.0,0.0,0.0,0.0,0.0,0.0,0.0,0.0,0.0,0.0,0.0,0.0,0.0269,0.2484,0.5429,0.0,0.0,0.0,0.0,0.0,0.0,0.0,0.0,0.0,0.0,0.0,0.0,0.0,0.0,0.0,0.0,0.0,0.0,0.0,0.0,0.0,0.0,0.0,0.0,0.0,0.0,0.0,0.0,0.0,0.0,0.0,0.0,0.0,0.0,0.0,0.0,0.0,0.0,0.0,0.0,0.0,0.0,0.0,0.0,0.0,0.0,0.0,0.0,0.0,0.0,0.0,0.0,0.0,0.0,0.0,0.0,0.0,0.0,0.0,0.0,0.0,0.0,0.0,0.0,0.0,0.0,0.0,0.0,0.0,0.0,0.0,0.0,0.0,0.0,0.0,0.0,0.0,0.0,0.0,0.0,0.0999,0.1216,0.009,0.0,0.0,0.0,0.0,0.0,0.0,0.0,0.0,0.0,0.0,0.0,0.0,0.147,0.1478,0.0,0.1545,0.1478,0.0,0.0,0.0,0.0,0.0,0.0,0.0,0.0,0.0,0.0,0.0,0.0,0.0202,0.168,0.3557,0.5429,0.0,0.0,0.0,0.0,0.0,0.0,0.0,0.0,0.0,0.0,0.0,0.0,0.0,0.0,0.0,0.0,0.0,0.0,0.0,0.0,0.0,0.0,0.0,0.0,0.0,0.0,0.0,0.0,0.0,0.0,0.0,0.0,0.0,0.0,0.0,0.0,0.0,0.0,0.0,0.0,0.0,0.0,0.0,0.0,0.0,0.0,0.0,0.0,0.0,0.0,0.0,0.0,0.0,0.0,0.0,0.0,0.0,0.0,0.0,0.0712,0.1189,0.0209,0.0683,0.1142,0.0202,0.0,0.0,0.0,0.0,0.0266,0.1207,0.1977,0.2218,0.1501,0.1192,0.0804,0.0109,0.0,0.0,0.0,0.0555,0.0688,0.0046,0.0,0.0,0.0,0.0,0.0,0.0,0.0,0.0,0.0,0.0,0.0,0.0,0.1801,0.1814,0.0,0.1814,0.1747,0.0,0.0,0.0,0.0,0.0,0.0,0.0,0.0,0.0,0.0,0.0,0.0,0.0202,0.2016,0.3823,0.5496,0.0,0.0,0.0,0.0,0.0,0.0,0.0,0.0,0.0,0.0,0.0,0.0,0.0,0.0,0.0,0.0,0.0,0.0,0.0,0.0,0.0,0.0,0.0,0.0,0.0,0.0,0.0,0.0,0.0,0.0,0.0,0.0,0.0,0.0,0.0,0.0,0.0,0.0,0.0,0.0,0.0,0.0,0.0,0.0,0.0,0.0,0.0,0.0,0.0,0.0,0.0,0.0,0.0,0.0,0.0,0.0,0.0,0.0073,0.051,0.1643,0.245,0.147,0.1919,0.2417,0.1411,0.0538,0.0202,0.1009,0.1142,0.1591,0.2979,0.4119,0.4321,0.293,0.2392,0.1635,0.022,0.0,0.0105,0.0408,0.0402,0.0539,0.0841,0.0604,0.0408,0.0429,0.0176,0.0,0.0,0.0,0.0,0.0,0.0,0.0,0.0,0.219,0.2148,0.0,0.2216,0.2148,0.0,0.0,0.0,0.0,0.0,0.0,0.0,0.0,0.0,0.0,0.0,0.0,0.0269,0.2484,0.4158,0.5696,0.0,0.0,0.0,0.0,0.0,0.0,0.0,0.0,0.0,0.0,0.0,0.0,0.0,0.0,0.0,0.0,0.0,0.0,0.0,0.0,0.0,0.0,0.0,0.0,0.0,0.0,0.0,0.0,0.0,0.0,0.0,0.0,0.0,0.0,0.0,0.0,0.0,0.0,0.0,0.0,0.0,0.0,0.0,0.0,0.0,0.0,0.0,0.0,0.0,0.0,0.0,0.0,0.0,0.0,0.0,0.0,0.0,0.0365,0.2183,0.264,0.3077,0.4678,0.3901,0.3088,0.4559,0.235,0.0941,0.4225,0.4894,0.4964,0.5129,0.5119,0.454,0.2958,0.2543,0.1904,0.0225,0.0,0.0476,0.1656,0.1828,0.2292,0.3506,0.2529,0.1807,0.182,0.0672,0.0,0.0,0.0,0.0,0.0,0.0,0.0,0.0,0.3399,0.3423,0.0067,0.3488,0.3354,0.0,0.0,0.0,0.0,0.0,0.0,0.0,0.0,0.0,0.0,0.0,0.0,0.0404,0.389,0.5228,0.5897,0.0,0.0,0.0,0.0,0.0,0.0,0.0,0.0,0.0,0.0,0.0,0.0,0.0,0.0,0.0,0.0,0.0,0.0,0.0,0.0,0.0,0.0,0.0,0.0,0.0,0.0,0.0,0.0,0.0,0.0,0.0,0.0,0.0,0.0,0.0,0.0,0.0,0.0,0.0,0.0,0.0,0.0,0.0,0.0,0.0,0.0,0.0,0.0,0.0,0.0,0.0,0.0,0.0,0.0,0.0,0.0,0.0801,0.1892,0.2691,0.4419,0.5726,0.4332,0.4925,0.5492,0.4091,0.3488,0.3622,0.5095,0.6231,0.6996,0.694,0.7458,0.7464,0.597,0.4608,0.3213,0.1732,0.0617,0.0489,0.1847,0.2024,0.2547,0.3871,0.3353,0.2698,0.2039,0.0755,0.0,0.0,0.0,0.0,0.0,0.0,0.0,0.0,0.248,0.2484,0.0,0.2551,0.2484,0.0,0.0,0.0,0.0,0.0,0.0,0.0,0.0,0.0,0.0,0.0,0.0672,0.1948,0.4492,0.603,0.7298,0.0,0.0,0.0,0.0,0.0,0.0,0.0,0.0,0.0,0.0,0.0,0.0,0.0,0.0,0.0,0.0,0.0,0.0,0.0,0.0,0.0,0.0,0.0,0.0,0.0,0.0,0.0,0.0,0.0,0.0,0.0,0.0,0.0,0.0,0.0,0.0,0.0,0.0,0.0,0.0,0.0,0.0,0.0,0.0,0.0,0.0,0.0,0.0,0.0,0.0,0.0,0.0,0.0,0.0,0.0,0.0,0.0947,0.2328,0.3415,0.557,0.7152,0.573,0.6719,0.7536,0.5499,0.5228,0.5563,0.603,0.7564,0.8767,0.8767,0.9398,0.9497,0.8032,0.642,0.4663,0.2784,0.1477,0.1051,0.1922,0.1989,0.267,0.4438,0.4047,0.3608,0.3299,0.1992,0.0896,0.0047,0.0388,0.0656,0.075,0.1216,0.1456,0.1478,0.2806,0.2618,0.0807,0.2083,0.1747,0.0,0.0,0.0,0.0,0.0,0.0,0.0,0.0,0.0,0.0,0.0,0.1076,0.2887,0.476,0.6498,0.823,0.0,0.0,0.0,0.0,0.0,0.0,0.0,0.0,0.0,0.0,0.0,0.0,0.0,0.0,0.0,0.0,0.0,0.0,0.0,0.0,0.0,0.0,0.0,0.0,0.0,0.0,0.0,0.0,0.0,0.0,0.0,0.0,0.0,0.0,0.0,0.0,0.0,0.0,0.0,0.0,0.0,0.0,0.0,0.0,0.0,0.0,0.0,0.0,0.0,0.0,0.0,0.0,0.0,0.0,0.0,0.0,0.0,0.0875,0.4721,0.5682,0.6524,1.0146,0.9662,0.872,1.0279,0.7902,0.5897,0.7631,0.9443,1.0651,1.0651,1.0473,0.9734,0.8083,0.7545,0.6244,0.2934,0.2461,0.2374,0.2028,0.1995,0.3042,0.5708,0.478,0.463,0.6128,0.494,0.2945,0.0151,0.1385,0.2277,0.2446,0.4009,0.4898,0.5032,0.5277,0.4426,0.2685,0.2685,0.1747,0.0,0.0,0.0,0.0,0.0,0.0,0.0,0.0,0.0,0.0,0.0,0.1076,0.2887,0.476,0.6498,0.823,0.0,0.0,0.0,0.0,0.0,0.0,0.0,0.0,0.0,0.0,0.0,0.0,0.0,0.0,0.0,0.0,0.0,0.0,0.0,0.0,0.0,0.0,0.0,0.0,0.0,0.0,0.0,0.0,0.0,0.0,0.0,0.0,0.0,0.0,0.0,0.0,0.0,0.0,0.0,0.0,0.0,0.0,0.0,0.0,0.0,0.0,0.0,0.0,0.0,0.0,0.0,0.0,0.0,0.0,0.0,0.0,0.0947,0.2545,0.5084,0.6686,0.7884,0.9198,0.9802,0.9906,0.9244,0.9035,0.9178,0.9709,1.0313,1.0717,1.0717,1.048,1.0122,0.9576,0.8335,0.7015,0.5805,0.3834,0.3131,0.4744,0.401,0.4425,0.7086,0.6894,0.6446,0.6114,0.5605,0.4558,0.2953,0.3548,0.3934,0.4022,0.4683,0.453,0.3494,0.3537,0.2618,0.0874,0.2081,0.2417,0.1814,0.1814,0.1142,0.0,0.0,0.0,0.0,0.0,0.0,0.0,0.0,0.1881,0.4626,0.5162,0.7298,0.9915,0.0,0.0,0.0,0.0,0.0,0.0,0.0,0.0,0.0,0.0,0.0,0.0,0.0,0.0,0.0,0.0,0.0,0.0,0.0,0.0,0.0,0.0,0.0,0.0,0.0,0.0,0.0,0.0,0.0,0.0,0.0,0.0,0.0,0.0,0.0,0.0,0.0,0.0,0.0,0.0,0.0,0.0,0.0,0.0,0.0,0.0,0.0,0.0,0.0,0.0,0.0,0.0,0.0,0.0,0.0,0.0,0.0878,0.2256,0.4213,0.6058,0.7656,0.8399,0.9799,1.0723,0.9452,0.9977,1.0717,1.0717,1.0717,1.0717,1.0717,1.048,1.0283,1.0283,0.9162,0.7959,0.7232,0.5402,0.4529,0.5487,0.525,0.5647,0.7292,0.7916,0.7891,0.7095,0.7037,0.6754,0.6016,0.5704,0.5599,0.5704,0.6556,0.6282,0.4661,0.4026,0.2819,0.1009,0.2148,0.3088,0.3689,0.3021,0.2083,0.1009,0.0269,0.0,0.0,0.0,0.0,0.0,0.0,0.2216,0.5429,0.5429,0.7636,1.0717,0.0,0.0,0.0,0.0,0.0,0.0,0.0,0.0,0.0,0.0,0.0,0.0,0.0,0.0,0.0,0.0,0.0,0.0,0.0,0.0,0.0,0.0,0.0,0.0,0.0,0.0,0.0,0.0,0.0,0.0,0.0,0.0,0.0,0.0,0.0,0.0,0.0,0.0,0.0,0.0,0.0,0.0,0.0,0.0,0.0,0.0,0.0,0.0,0.0,0.0,0.0,0.0,0.0,0.0,0.0,0.0,0.0,0.0438,0.2547,0.4431,0.6296,0.8216,0.9934,1.109,1.0799,1.0724,1.0717,1.0717,1.0717,1.0717,1.0717,1.048,1.0283,1.0283,0.9903,0.9078,0.746,0.7074,0.6393,0.4974,0.595,0.6727,0.6664,0.8004,0.8824,0.8737,0.8981,0.9083,0.8905,0.7743,0.7237,0.7577,0.936,0.9524,0.7817,0.6324,0.4693,0.2887,0.2752,0.3555,0.5162,0.3488,0.2618,0.2417,0.074,0.0,0.0,0.0,0.0,0.0,0.0,0.2216,0.5429,0.5429,0.7636,1.0717,0.0,0.0,0.0,0.0,0.0,0.0,0.0,0.0,0.0,0.0,0.0,0.0,0.0,0.0,0.0,0.0,0.0,0.0,0.0,0.0,0.0,0.0,0.0,0.0,0.0,0.0,0.0,0.0,0.0,0.0,0.0,0.0,0.0,0.0,0.0,0.0,0.0,0.0,0.0,0.0,0.0,0.0,0.0,0.0,0.0,0.0,0.0,0.0,0.0,0.0,0.0,0.0,0.0,0.0,0.0,0.0,0.0,0.0738,0.4153,0.5446,0.66,1.0048,1.1004,1.1118,1.0934,1.0739,1.0717,1.0717,1.0717,1.0717,1.0717,1.048,1.0283,1.0283,0.9903,0.9439,0.8929,0.78,0.7277,0.7796,0.7237,0.7243,0.8236,0.8673,0.8865,0.8831,0.8947,0.9022,0.9096,0.9097,0.9123,0.9226,1.0062,0.9655,0.7995,0.755,0.6498,0.476,0.3354,0.2954,0.3354,0.2887,0.1948,0.0605,0.0202,0.0,0.0,0.0,0.0,0.0,0.0,0.2216,0.5429,0.5429,0.7636,1.0717,0.0,0.0,0.0,0.0,0.0,0.0,0.0,0.0,0.0,0.0,0.0,0.0,0.0,0.0,0.0,0.0,0.0,0.0,0.0,0.0,0.0,0.0,0.0,0.0,0.0,0.0,0.0,0.0,0.0,0.0,0.0,0.0,0.0,0.0,0.0,0.0,0.0,0.0,0.0,0.0,0.0,0.0,0.0,0.0,0.0,0.0,0.0,0.0,0.0,0.0,0.0,0.0,0.0,0.0,0.0,0.0,0.0,0.0668,0.3673,0.5107,0.6741,1.0519,1.1335,1.1124,1.0982,1.0833,1.0717,1.0717,1.0717,1.0717,1.0717,1.048,1.0256,1.0188,0.9802,0.9449,0.93,0.8577,0.8292,0.8943,0.8532,0.8515,0.9144,0.931,0.933,0.9252,0.9306,0.9374,0.9456,0.9822,0.9998,0.9869,1.0365,0.9767,0.803,0.7231,0.6364,0.5362,0.4426,0.3957,0.389,0.3088,0.2148,0.121,0.0336,0.0,0.0,0.0,0.0,0.0,0.0,0.2216,0.5429,0.5429,0.7636,1.0717,0.0,0.0,0.0,0.0,0.0,0.0,0.0,0.0,0.0,0.0,0.0,0.0,0.0,0.0,0.0,0.0,0.0,0.0,0.0,0.0,0.0,0.0,0.0,0.0,0.0,0.0,0.0,0.0,0.0,0.0,0.0,0.0,0.0,0.0,0.0,0.0,0.0,0.0,0.0,0.0,0.0,0.0,0.0,0.0,0.0,0.0,0.0,0.0,0.0,0.0,0.0,0.0,0.0,0.0,0.0,0.0,0.0,0.0523,0.2746,0.4988,0.7454,1.0593,1.1307,1.1158,1.1016,1.086,1.0751,1.0724,1.0717,1.0717,1.0717,1.0493,1.0256,1.0017,0.9707,0.9381,0.9234,0.9248,0.9275,0.9275,0.9598,0.9815,0.972,0.9856,0.9896,0.9727,0.9802,0.9863,0.989,1.0161,1.0249,1.0058,1.0507,0.9975,0.8435,0.6698,0.5763,0.5763,0.5496,0.5429,0.5362,0.3555,0.2685,0.2618,0.0807,0.0135,0.0404,0.0404,0.0404,0.0404,0.0404,0.2283,0.5028,0.5295,0.7503,1.0319,0.0,0.0,0.0,0.0,0.0,0.0,0.0,0.0,0.0,0.0,0.0,0.0,0.0,0.0,0.0,0.0,0.0,0.0,0.0,0.0,0.0,0.0,0.0,0.0,0.0,0.0,0.0,0.0,0.0,0.0,0.0,0.0,0.0,0.0,0.0,0.0,0.0,0.0,0.0,0.0,0.0,0.0,0.0,0.0,0.0,0.0,0.0,0.0,0.0,0.0,0.0,0.0,0.0,0.0,0.0,0.0,0.0,0.0763,0.4396,0.7988,1.0809,1.1442,1.147,1.1314,1.1165,1.1016,1.0806,1.0744,1.0717,1.0717,1.0717,1.0575,1.0371,1.0031,0.9883,0.9612,0.9268,0.9374,0.9537,0.9537,0.9822,1.0059,1.0168,1.01,1.0024,1.0168,1.0073,1.0073,1.0202,1.0371,1.0446,1.0426,1.0616,1.0585,1.0246,0.8501,0.7564,0.7564,0.6097,0.5429,0.5362,0.3555,0.2685,0.2618,0.0807,0.0874,0.2283,0.2283,0.2283,0.2283,0.2283,0.2618,0.3289,0.4827,0.6698,0.8634,0.0,0.0,0.0,0.0,0.0,0.0,0.0,0.0,0.0,0.0,0.0,0.0,0.0,0.0,0.0,0.0,0.0,0.0,0.0,0.0,0.0,0.0,0.0,0.0,0.0,0.0,0.0,0.0,0.0,0.0,0.0,0.0,0.0,0.0,0.0,0.0,0.0,0.0,0.0,0.0,0.0,0.0,0.0,0.0,0.0,0.0,0.0,0.0815,0.161,0.0401,0.0796,0.1582,0.0393,0.0,0.0,0.0,0.1554,0.3593,0.5366,0.869,1.1714,1.164,1.1504,1.1369,1.1301,1.1111,1.086,1.0793,1.0778,1.0717,1.0717,1.0595,1.0419,1.0209,0.9971,0.972,0.9442,0.9585,0.9727,0.9727,1.0059,1.0317,1.0385,1.0331,1.0317,1.0392,1.0256,1.0236,1.0385,1.046,1.0527,1.0616,1.0683,1.0717,1.0717,0.9842,0.8972,0.7964,0.7165,0.6297,0.5362,0.3555,0.2685,0.2685,0.1814,0.1948,0.2752,0.3756,0.4158,0.4024,0.3088,0.3289,0.4225,0.5095,0.6498,0.823,0.0,0.0,0.0,0.0,0.0,0.0,0.0,0.0,0.0,0.0,0.0,0.0,0.0,0.0,0.0,0.0,0.0,0.0,0.0,0.0,0.0,0.0,0.0,0.0,0.0,0.0,0.0,0.0,0.0,0.0,0.0,0.0,0.0,0.0,0.0,0.0,0.0,0.0,0.0,0.0,0.0,0.0,0.0,0.0,0.0,0.0,0.0,0.1482,0.309,0.1373,0.1923,0.3103,0.1342,0.0394,0.0,0.0,0.288,0.6058,0.5836,0.8745,1.1796,1.1653,1.1531,1.1436,1.1402,1.1212,1.0961,1.0894,1.0786,1.0765,1.0724,1.0622,1.0487,1.031,1.0107,0.9903,0.9686,0.9815,0.9924,0.9924,1.0263,1.0507,1.0541,1.0548,1.0548,1.0548,1.0446,1.0432,1.0541,1.0548,1.0602,1.0717,1.0717,1.0717,1.0717,1.0717,0.9981,0.8634,0.8634,0.7897,0.6564,0.4359,0.3354,0.3289,0.2887,0.2954,0.3488,0.5295,0.5763,0.5228,0.389,0.3689,0.4225,0.5095,0.6231,0.7698,0.0,0.0,0.0,0.0,0.0,0.0,0.0,0.0,0.0,0.0,0.0,0.0,0.0,0.0,0.0,0.0,0.0,0.0,0.0,0.0,0.0,0.0,0.0,0.0,0.0,0.0,0.0,0.0,0.0,0.0,0.0,0.0,0.0,0.0,0.0,0.0,0.0,0.0,0.0,0.0,0.0,0.0,0.0,0.0,0.0,0.0,0.0,0.1417,0.3297,0.3211,0.3246,0.3347,0.3105,0.1661,0.0,0.0,0.2975,0.6213,0.5909,0.8721,1.1796,1.1653,1.1613,1.1565,1.1423,1.1375,1.128,1.0934,1.0873,1.082,1.0744,1.0711,1.0609,1.0324,1.0371,1.0297,0.9863,1.0059,1.0249,1.0249,1.0392,1.0548,1.069,1.0704,1.0704,1.0704,1.0697,1.069,1.0704,1.0704,1.0711,1.0717,1.0717,1.0717,1.0717,1.0717,1.0651,1.0518,1.0518,1.0452,1.018,0.6765,0.5228,0.5095,0.3423,0.3622,0.5362,0.7098,0.6831,0.5362,0.5228,0.3222,0.0807,0.4158,0.5496,0.6097,0.0,0.0,0.0,0.0,0.0,0.0,0.0,0.0,0.0,0.0,0.0,0.0,0.0,0.0,0.0,0.0,0.0,0.0,0.0,0.0,0.0,0.0,0.0,0.0,0.0,0.0,0.0,0.0,0.0,0.0,0.0,0.0,0.0,0.0,0.0,0.0,0.0,0.0,0.0,0.0,0.0,0.0,0.0,0.0,0.0,0.0,0.0,0.2345,0.5241,0.3886,0.4345,0.5199,0.3793,0.176,0.0,0.0,0.2977,0.6234,0.5972,0.891,1.1938,1.1789,1.1687,1.1606,1.1545,1.1457,1.1362,1.1246,1.1008,1.086,1.0806,1.0785,1.0683,1.0568,1.0521,1.0432,1.0263,1.0337,1.0412,1.0412,1.0541,1.0656,1.0717,1.0717,1.0717,1.0717,1.0717,1.0717,1.0717,1.0717,1.0717,1.0717,1.0717,1.0717,1.0717,1.0717,1.0717,1.0717,1.0717,1.0717,1.0585,0.7036,0.5964,0.6898,0.5162,0.5362,0.7165,0.8972,0.8634,0.7031,0.7031,0.5492,0.3622,0.6097,0.7031,0.7365,0.0,0.0,0.0,0.0,0.0,0.0,0.0,0.0,0.0,0.0,0.0,0.0,0.0,0.0,0.0,0.0,0.0,0.0,0.0,0.0,0.0,0.0,0.0,0.0,0.0,0.0,0.0,0.0,0.0,0.0,0.0,0.0,0.0,0.0,0.0,0.0,0.0,0.0,0.0,0.0,0.0,0.0,0.0,0.0,0.0,0.0,0.0,0.2436,0.5441,0.3908,0.4383,0.5349,0.3841,0.1777,0.0,0.0,0.2985,0.6244,0.6116,0.9025,1.2088,1.1884,1.1755,1.1674,1.1633,1.1538,1.145,1.1402,1.1233,1.0988,1.09,1.0793,1.0778,1.0724,1.0629,1.0561,1.0561,1.0561,1.0561,1.0561,1.0656,1.0717,1.0717,1.0717,1.0717,1.0717,1.0717,1.0717,1.0717,1.0717,1.0717,1.0717,1.0717,1.0717,1.0717,1.0717,1.0717,1.0717,1.0717,1.0717,1.0585,0.7569,0.6898,0.7964,0.6765,0.6898,0.8163,0.9981,0.9643,0.803,0.803,0.6965,0.5629,0.7365,0.803,0.823,0.0,0.0,0.0,0.0,0.0,0.0,0.0,0.0,0.0,0.0,0.0,0.0,0.0,0.0,0.0,0.0,0.0,0.0,0.0,0.0,0.0,0.0,0.0,0.0,0.0,0.0,0.0,0.0,0.0,0.0,0.0,0.0,0.0,0.0,0.0,0.0,0.0,0.0,0.0,0.0,0.0,0.0,0.0,0.0,0.0,0.0,0.0,0.1429,0.3273,0.3273,0.3333,0.33,0.3383,0.1789,0.0,0.0,0.3004,0.6336,0.6336,0.9218,1.2216,1.1911,1.183,1.1796,1.1653,1.1619,1.1572,1.1423,1.1389,1.1301,1.0941,1.088,1.0833,1.0751,1.0724,1.0724,1.0724,1.0717,1.0717,1.0717,1.0717,1.0717,1.0717,1.0717,1.0717,1.0717,1.0717,1.0717,1.0717,1.0717,1.0717,1.0717,1.0717,1.0717,1.0717,1.0717,1.0717,1.0717,1.0717,1.0717,1.0651,0.8834,0.803,0.803,0.803,0.803,0.8163,0.9975,0.9643,0.803,0.803,0.6965,0.5629,0.7365,0.803,0.8296,0.0,0.0,0.0,0.0,0.0,0.0,0.0,0.0,0.0,0.0,0.0,0.0,0.0,0.0,0.0,0.0,0.0,0.0,0.0,0.0,0.0,0.0,0.0,0.0,0.0,0.0,0.0,0.0,0.0,0.0,0.0,0.0,0.0,0.0,0.0,0.0,0.0,0.0,0.0,0.0,0.0,0.0,0.0,0.0,0.0,0.0,0.0,0.1429,0.3273,0.3273,0.3266,0.3003,0.1492,0.0577,0.0327,0.1764,0.4132,0.6637,0.8067,1.044,1.2393,1.2203,1.1993,1.1823,1.1775,1.1694,1.1606,1.1558,1.1463,1.1362,1.1274,1.1172,1.1084,1.1036,1.0948,1.0813,1.0813,1.0785,1.0717,1.0717,1.0717,1.0717,1.0717,1.0717,1.0717,1.0717,1.0717,1.0717,1.0717,1.0717,1.0717,1.0717,1.0717,1.0717,1.0717,1.0717,1.0717,1.0717,1.0717,1.0717,1.0651,0.8834,0.8701,0.9842,0.8568,0.8701,0.9915,1.0452,0.9643,0.8097,0.9371,0.8773,0.7431,0.9238,0.9908,0.9981,0.0,0.0,0.0,0.0,0.0,0.0,0.0,0.0,0.0,0.0,0.0,0.0,0.0,0.0,0.0,0.0,0.0,0.0,0.0,0.0,0.0,0.0,0.0,0.0,0.0,0.0,0.0,0.0,0.0,0.0,0.0,0.0,0.0,0.0,0.0,0.0,0.0,0.0,0.0,0.0,0.0,0.0,0.0,0.0,0.0,0.0,0.0,0.0845,0.2016,0.2016,0.2016,0.1763,0.0417,0.0,0.0248,0.1544,0.4014,0.6597,0.7806,1.0269,1.2481,1.2393,1.2189,1.1979,1.1857,1.1762,1.1687,1.1633,1.1545,1.1463,1.1402,1.1314,1.1233,1.1241,1.109,1.1029,1.1029,1.0907,1.0812,1.0812,1.0758,1.0717,1.0717,1.0717,1.0717,1.0717,1.0717,1.0717,1.0717,1.0717,1.0717,1.0717,1.0717,1.0717,1.0717,1.0717,1.0717,1.0717,1.0717,1.0717,1.0651,0.9576,0.9643,1.0651,0.9576,0.9709,1.0717,1.0717,1.0047,0.9172,1.0246,1.0047,0.9172,1.0313,1.0717,1.0717,0.0,0.0,0.0,0.0,0.0,0.0,0.0,0.0,0.0,0.0,0.0,0.0,0.0,0.0,0.0,0.0,0.0,0.0,0.0,0.0,0.0,0.0,0.0,0.0,0.0,0.0,0.0,0.0,0.0,0.0,0.0,0.0,0.0,0.0,0.0,0.0,0.0,0.0,0.0,0.0,0.0,0.0,0.0,0.0,0.0,0.0,0.0,0.0,0.0,0.0,0.0,0.0,0.0,0.0,0.0,0.0248,0.301,0.6068,0.6453,0.9311,1.2283,1.2424,1.2406,1.223,1.1938,1.1864,1.1809,1.1667,1.164,1.1592,1.1443,1.1409,1.1369,1.1226,1.1261,1.1255,1.1255,1.1056,1.09,1.09,1.0846,1.0758,1.0758,1.0758,1.0751,1.0744,1.0744,1.0731,1.0717,1.0717,1.0717,1.0717,1.0717,1.0717,1.0717,1.0717,1.0717,1.0717,1.0717,1.0717,1.0717,1.0717,1.0717,1.0717,1.0717,1.0717,1.0717,1.0717,1.0717,1.0717,1.0717,1.0717,1.0717,1.0717,1.0717,1.0717,0.0,0.0,0.0,0.0,0.0,0.0,0.0,0.0,0.0,0.0,0.0,0.0,0.0,0.0,0.0,0.0,0.0,0.0,0.0,0.0,0.0,0.0,0.0,0.0,0.0,0.0,0.0,0.0,0.0,0.0,0.0,0.0,0.0,0.0,0.0,0.0,0.0,0.0,0.0,0.0,0.0,0.0,0.0,0.0,0.0,0.0,0.0,0.0,0.0,0.0,0.0,0.0,0.0,0.0,0.0335,0.1988,0.3044,0.4483,0.7836,0.9366,1.0431,1.2063,1.2481,1.2413,1.223,1.2101,1.1972,1.1816,1.1782,1.1742,1.1599,1.1572,1.1558,1.1525,1.1416,1.1341,1.1341,1.1212,1.1118,1.1118,1.1084,1.107,1.107,1.107,1.1023,1.084,1.0833,1.0779,1.0724,1.0717,1.0717,1.0717,1.0717,1.0717,1.0717,1.0717,1.0717,1.0717,1.0717,1.0717,1.0717,1.0717,1.0717,1.0717,1.0717,1.0717,1.0717,1.0717,1.0717,1.0717,1.0717,1.0717,1.0717,1.0717,1.0717,1.0717,0.0,0.0,0.0,0.0,0.0,0.0,0.0,0.0,0.0,0.0,0.0,0.0,0.0,0.0,0.0,0.0,0.0,0.0,0.0,0.0,0.0,0.0,0.0,0.0,0.0,0.0,0.0,0.0,0.0,0.0,0.0,0.0,0.0,0.0,0.0,0.0,0.0,0.0,0.0,0.0,0.0,0.0,0.0,0.0,0.0,0.0,0.0,0.0,0.0,0.0,0.0,0.0,0.0,0.0,0.0252,0.1336,0.3066,0.5177,0.7382,0.9462,1.1276,1.2311,1.2556,1.2467,1.2325,1.223,1.2128,1.1972,1.1884,1.1809,1.1735,1.1667,1.1619,1.1619,1.1552,1.1497,1.1497,1.1348,1.1309,1.1309,1.1261,1.1179,1.1233,1.1192,1.1131,1.1056,1.105,1.1016,1.0934,1.0928,1.0928,1.0928,1.0928,1.0928,1.0928,1.0928,1.0894,1.0759,1.0758,1.0717,1.0717,1.0717,1.0717,1.0717,1.0717,1.0717,1.0717,1.0717,1.0717,1.0717,1.0717,1.0717,1.0717,1.0717,1.0717,1.0717,0.0,0.0,0.0,0.0,0.0,0.0,0.0,0.0,0.0,0.0,0.0,0.0,0.0,0.0,0.0,0.0,0.0,0.0,0.0,0.0,0.0,0.0,0.0,0.0,0.0,0.0,0.0,0.0,0.0,0.0,0.0,0.0,0.0,0.0,0.0,0.0,0.0,0.0,0.0,0.0,0.0,0.0,0.0,0.0,0.0,0.0,0.0,0.0,0.0,0.0,0.0,0.0,0.0,0.0,0.0084,0.0421,0.3085,0.6111,0.6838,0.9577,1.2311,1.2581,1.2637,1.2501,1.2359,1.2325,1.2284,1.2135,1.1999,1.1904,1.1877,1.1755,1.1653,1.1653,1.1633,1.1619,1.1619,1.1477,1.1446,1.1446,1.1364,1.1274,1.1291,1.1294,1.1226,1.1275,1.1199,1.1192,1.1234,1.1234,1.1234,1.1234,1.1234,1.1234,1.1234,1.1234,1.1104,1.0982,1.0833,1.0744,1.0717,1.0717,1.0717,1.0717,1.0717,1.0717,1.0717,1.0717,1.0717,1.0717,1.0717,1.0717,1.0717,1.0717,1.0717,1.0717,0.0,0.0,0.0,0.0,0.0,0.0,0.0,0.0,0.0,0.0,0.0,0.0,0.0,0.0,0.0,0.0,0.0,0.0,0.0,0.0,0.0,0.0,0.0,0.0,0.0,0.0,0.0,0.0,0.0,0.0,0.0,0.0,0.0,0.0,0.0,0.0,0.0,0.0,0.0,0.0,0.0,0.0,0.0,0.0,0.0,0.0,0.0,0.0,0.0,0.0,0.0,0.0,0.0,0.0,0.0337,0.2268,0.3269,0.4591,0.8332,0.9769,1.06,1.2311,1.2712,1.2657,1.2508,1.2474,1.2433,1.2291,1.2244,1.2189,1.2054,1.1904,1.1803,1.1803,1.1701,1.1619,1.1619,1.1599,1.1579,1.1579,1.1565,1.1565,1.1579,1.1565,1.1504,1.1369,1.1362,1.1301,1.1241,1.1234,1.1234,1.1234,1.1234,1.1234,1.1234,1.1234,1.122,1.1131,1.0989,1.0779,1.0717,1.0717,1.0717,1.0717,1.0717,1.0717,1.0717,1.0717,1.0717,1.0717,1.0717,1.0717,1.0717,1.0717,1.0717,1.0717,0.0,0.0,0.0,0.0,0.0,0.0,0.0,0.0,0.0,0.0,0.0,0.0,0.0,0.0,0.0,0.0,0.0,0.0,0.0,0.0,0.0,0.0,0.0,0.0,0.0,0.0,0.0,0.0,0.0,0.0,0.0,0.0,0.0,0.0,0.0,0.0,0.0,0.0,0.0,0.0,0.0,0.0,0.0,0.0,0.0,0.0,0.0,0.0,0.0,0.0,0.0,0.0,0.0,0.0,0.0421,0.2687,0.4195,0.5861,0.9068,1.0831,1.1906,1.2762,1.2854,1.2712,1.2644,1.2562,1.2481,1.242,1.2345,1.2271,1.2203,1.206,1.1932,1.1843,1.1775,1.1708,1.1633,1.1619,1.1619,1.1619,1.1619,1.1619,1.1619,1.1619,1.1592,1.1525,1.1518,1.1491,1.1423,1.1416,1.1416,1.1416,1.1416,1.1416,1.1416,1.1416,1.1375,1.1287,1.1138,1.0989,1.0779,1.0758,1.0717,1.0717,1.0717,1.0717,1.0717,1.0717,1.0717,1.0717,1.0717,1.0717,1.0717,1.0717,1.0717,1.0717]}]]